Wetterdaten: Mittwoch, 28.12.2016
Datum Zeit Temp. A. Temp. A. max Feuchte A. Luftdruck Regen Wind Richtung Richtung Sonnenschein ET UV Solar Taupunkt Windböen
28.12.2016 00:00 0,8 °C 0,8 °C 77 % 1044,4 hPa 0,0 mm 3,9 km/h (1 Bft) SW 231 ° 0 min 0,000 mm 0,0 UV-I 0 W/m² -2,8 °C 8,0 km/h (2 Bft)
28.12.2016 00:01 0,8 °C 0,8 °C 77 % 1044,5 hPa 0,0 mm 2,1 km/h (1 Bft) S 186 ° 0 min 0,000 mm 0,0 UV-I 0 W/m² -2,8 °C 3,2 km/h (1 Bft)
28.12.2016 00:03 0,8 °C 0,8 °C 76 % 1044,5 hPa 0,0 mm 2,9 km/h (1 Bft) W 261 ° 0 min 0,000 mm 0,0 UV-I 0 W/m² -2,9 °C 4,8 km/h (1 Bft)
28.12.2016 00:04 0,8 °C 0,8 °C 76 % 1044,5 hPa 0,0 mm 2,3 km/h (1 Bft) W 269 ° 0 min 0,000 mm 0,0 UV-I 0 W/m² -2,9 °C 3,2 km/h (1 Bft)
28.12.2016 00:05 0,8 °C 0,8 °C 76 % 1044,5 hPa 0,0 mm 3,0 km/h (1 Bft) W 278 ° 0 min 0,000 mm 0,0 UV-I 0 W/m² -2,9 °C 4,8 km/h (1 Bft)
28.12.2016 00:06 0,8 °C 0,8 °C 76 % 1044,5 hPa 0,0 mm 1,7 km/h (1 Bft) W 278 ° 0 min 0,000 mm 0,0 UV-I 0 W/m² -2,9 °C 3,2 km/h (1 Bft)
28.12.2016 00:07 0,8 °C 0,8 °C 76 % 1044,4 hPa 0,0 mm 1,6 km/h (1 Bft) W 270 ° 0 min 0,000 mm 0,0 UV-I 0 W/m² -2,9 °C 3,2 km/h (1 Bft)
28.12.2016 00:09 0,8 °C 0,8 °C 75 % 1044,4 hPa 0,0 mm 1,7 km/h (1 Bft) W 278 ° 0 min 0,000 mm 0,0 UV-I 0 W/m² -3,1 °C 3,2 km/h (1 Bft)
28.12.2016 00:10 0,8 °C 0,8 °C 76 % 1044,3 hPa 0,0 mm 1,5 km/h (1 Bft) W 278 ° 0 min 0,000 mm 0,0 UV-I 0 W/m² -2,9 °C 3,2 km/h (1 Bft)
28.12.2016 00:11 0,8 °C 0,8 °C 76 % 1044,3 hPa 0,0 mm 2,3 km/h (1 Bft) W 278 ° 0 min 0,000 mm 0,0 UV-I 0 W/m² -2,9 °C 4,8 km/h (1 Bft)
28.12.2016 00:12 0,8 °C 0,8 °C 76 % 1044,2 hPa 0,0 mm 3,2 km/h (1 Bft) W 270 ° 0 min 0,000 mm 0,0 UV-I 0 W/m² -2,9 °C 4,8 km/h (1 Bft)
28.12.2016 00:14 0,8 °C 0,8 °C 75 % 1044,1 hPa 0,0 mm 4,3 km/h (1 Bft) SW 232 ° 0 min 0,000 mm 0,0 UV-I 0 W/m² -3,1 °C 6,4 km/h (2 Bft)
28.12.2016 00:15 0,8 °C 0,8 °C 75 % 1044,1 hPa 0,0 mm 3,7 km/h (1 Bft) S 179 ° 0 min 0,000 mm 0,0 UV-I 0 W/m² -3,1 °C 6,4 km/h (2 Bft)
28.12.2016 00:16 0,8 °C 0,8 °C 75 % 1044,1 hPa 0,0 mm 5,0 km/h (1 Bft) S-SW 205 ° 0 min 0,000 mm 0,0 UV-I 0 W/m² -3,1 °C 6,4 km/h (2 Bft)
28.12.2016 00:17 0,8 °C 0,8 °C 75 % 1044,1 hPa 0,0 mm 4,4 km/h (1 Bft) S-SW 200 ° 0 min 0,000 mm 0,0 UV-I 0 W/m² -3,1 °C 8,0 km/h (2 Bft)
28.12.2016 00:18 0,8 °C 0,8 °C 75 % 1044,1 hPa 0,0 mm 5,9 km/h (2 Bft) S-SW 209 ° 0 min 0,000 mm 0,0 UV-I 0 W/m² -3,1 °C 12,9 km/h (3 Bft)
28.12.2016 00:19 0,8 °C 0,8 °C 75 % 1044,1 hPa 0,0 mm 5,4 km/h (1 Bft) SW 224 ° 0 min 0,000 mm 0,0 UV-I 0 W/m² -3,1 °C 9,7 km/h (2 Bft)
28.12.2016 00:20 0,8 °C 0,8 °C 75 % 1044,1 hPa 0,0 mm 4,4 km/h (1 Bft) S-SW 212 ° 0 min 0,000 mm 0,0 UV-I 0 W/m² -3,1 °C 8,0 km/h (2 Bft)
28.12.2016 00:21 0,8 °C 0,8 °C 75 % 1044,1 hPa 0,0 mm 6,0 km/h (2 Bft) SW 219 ° 0 min 0,000 mm 0,0 UV-I 0 W/m² -3,1 °C 8,0 km/h (2 Bft)
28.12.2016 00:22 0,8 °C 0,8 °C 75 % 1044,1 hPa 0,0 mm 3,7 km/h (1 Bft) SW 218 ° 0 min 0,000 mm 0,0 UV-I 0 W/m² -3,1 °C 6,4 km/h (2 Bft)
28.12.2016 00:23 0,8 °C 0,8 °C 75 % 1044,1 hPa 0,0 mm 2,5 km/h (1 Bft) SW 218 ° 0 min 0,000 mm 0,0 UV-I 0 W/m² -3,1 °C 4,8 km/h (1 Bft)
28.12.2016 00:24 0,8 °C 0,8 °C 75 % 1044,0 hPa 0,0 mm 4,2 km/h (1 Bft) S-SW 196 ° 0 min 0,000 mm 0,0 UV-I 0 W/m² -3,1 °C 8,0 km/h (2 Bft)
28.12.2016 00:25 0,8 °C 0,8 °C 75 % 1043,9 hPa 0,0 mm 7,7 km/h (2 Bft) S-SW 193 ° 0 min 0,000 mm 0,0 UV-I 0 W/m² -3,1 °C 11,3 km/h (2 Bft)
28.12.2016 00:26 0,8 °C 0,8 °C 75 % 1043,9 hPa 0,0 mm 5,5 km/h (1 Bft) S-SW 213 ° 0 min 0,000 mm 0,0 UV-I 0 W/m² -3,1 °C 9,7 km/h (2 Bft)
28.12.2016 00:27 0,8 °C 0,8 °C 75 % 1043,9 hPa 0,0 mm 5,6 km/h (1 Bft) S-SW 194 ° 0 min 0,000 mm 0,0 UV-I 0 W/m² -3,1 °C 8,0 km/h (2 Bft)
28.12.2016 00:28 0,8 °C 0,8 °C 75 % 1043,9 hPa 0,0 mm 6,9 km/h (2 Bft) S-SW 204 ° 0 min 0,000 mm 0,0 UV-I 0 W/m² -3,1 °C 9,7 km/h (2 Bft)
28.12.2016 00:29 0,8 °C 0,8 °C 75 % 1043,9 hPa 0,0 mm 4,3 km/h (1 Bft) SW 236 ° 0 min 0,000 mm 0,0 UV-I 0 W/m² -3,1 °C 6,4 km/h (2 Bft)
28.12.2016 00:30 0,8 °C 0,8 °C 75 % 1043,9 hPa 0,0 mm 3,6 km/h (1 Bft) SW 233 ° 0 min 0,000 mm 0,0 UV-I 0 W/m² -3,1 °C 6,4 km/h (2 Bft)
28.12.2016 00:31 0,8 °C 0,8 °C 75 % 1043,8 hPa 0,0 mm 5,1 km/h (1 Bft) S-SW 201 ° 0 min 0,000 mm 0,0 UV-I 0 W/m² -3,1 °C 8,0 km/h (2 Bft)
28.12.2016 00:32 0,8 °C 0,8 °C 75 % 1043,8 hPa 0,0 mm 4,8 km/h (1 Bft) S-SW 206 ° 0 min 0,000 mm 0,0 UV-I 0 W/m² -3,1 °C 8,0 km/h (2 Bft)
28.12.2016 00:33 0,8 °C 0,8 °C 75 % 1043,8 hPa 0,0 mm 5,6 km/h (1 Bft) S-SW 207 ° 0 min 0,000 mm 0,0 UV-I 0 W/m² -3,1 °C 9,7 km/h (2 Bft)
28.12.2016 00:34 0,8 °C 0,8 °C 75 % 1043,8 hPa 0,0 mm 4,6 km/h (1 Bft) W-SW 243 ° 0 min 0,000 mm 0,0 UV-I 0 W/m² -3,1 °C 8,0 km/h (2 Bft)
28.12.2016 00:35 0,8 °C 0,8 °C 75 % 1043,7 hPa 0,0 mm 3,4 km/h (1 Bft) W-SW 242 ° 0 min 0,000 mm 0,0 UV-I 0 W/m² -3,1 °C 4,8 km/h (1 Bft)
28.12.2016 00:36 0,8 °C 0,8 °C 75 % 1043,7 hPa 0,0 mm 2,2 km/h (1 Bft) W-SW 242 ° 0 min 0,000 mm 0,0 UV-I 0 W/m² -3,1 °C 4,8 km/h (1 Bft)
28.12.2016 00:37 0,8 °C 0,8 °C 75 % 1043,6 hPa 0,0 mm 2,3 km/h (1 Bft) W-SW 242 ° 0 min 0,000 mm 0,0 UV-I 0 W/m² -3,1 °C 3,2 km/h (1 Bft)
28.12.2016 00:38 0,8 °C 0,8 °C 75 % 1043,6 hPa 0,0 mm 2,7 km/h (1 Bft) W-SW 242 ° 0 min 0,000 mm 0,0 UV-I 0 W/m² -3,1 °C 4,8 km/h (1 Bft)
28.12.2016 00:39 0,8 °C 0,8 °C 75 % 1043,5 hPa 0,0 mm 3,9 km/h (1 Bft) S-SW 207 ° 0 min 0,000 mm 0,0 UV-I 0 W/m² -3,1 °C 6,4 km/h (2 Bft)
28.12.2016 00:40 0,8 °C 0,8 °C 75 % 1043,4 hPa 0,0 mm 3,4 km/h (1 Bft) S 186 ° 0 min 0,000 mm 0,0 UV-I 0 W/m² -3,1 °C 6,4 km/h (2 Bft)
28.12.2016 00:41 0,8 °C 0,8 °C 75 % 1043,4 hPa 0,0 mm 2,5 km/h (1 Bft) S 187 ° 0 min 0,000 mm 0,0 UV-I 0 W/m² -3,1 °C 4,8 km/h (1 Bft)
28.12.2016 00:42 0,8 °C 0,8 °C 76 % 1043,5 hPa 0,0 mm 3,6 km/h (1 Bft) S 191 ° 0 min 0,000 mm 0,0 UV-I 0 W/m² -2,9 °C 6,4 km/h (2 Bft)
28.12.2016 00:43 0,8 °C 0,8 °C 76 % 1043,6 hPa 0,0 mm 4,5 km/h (1 Bft) S-SW 208 ° 0 min 0,000 mm 0,0 UV-I 0 W/m² -2,9 °C 6,4 km/h (2 Bft)
28.12.2016 00:44 0,8 °C 0,8 °C 76 % 1043,6 hPa 0,0 mm 3,4 km/h (1 Bft) S 186 ° 0 min 0,000 mm 0,0 UV-I 0 W/m² -2,9 °C 4,8 km/h (1 Bft)
28.12.2016 00:45 0,8 °C 0,8 °C 76 % 1043,6 hPa 0,0 mm 1,9 km/h (1 Bft) S 190 ° 0 min 0,000 mm 0,0 UV-I 0 W/m² -2,9 °C 3,2 km/h (1 Bft)
28.12.2016 00:46 0,8 °C 0,8 °C 76 % 1043,6 hPa 0,0 mm 1,6 km/h (1 Bft) S 180 ° 0 min 0,000 mm 0,0 UV-I 0 W/m² -2,9 °C 4,8 km/h (1 Bft)
28.12.2016 00:47 0,8 °C 0,8 °C 77 % 1043,5 hPa 0,0 mm 3,2 km/h (1 Bft) S 180 ° 0 min 0,000 mm 0,0 UV-I 0 W/m² -2,8 °C 6,4 km/h (2 Bft)
28.12.2016 00:48 0,8 °C 0,8 °C 77 % 1043,6 hPa 0,0 mm 1,6 km/h (1 Bft) S-SW 202 ° 0 min 0,000 mm 0,0 UV-I 0 W/m² -2,8 °C 1,6 km/h (1 Bft)
28.12.2016 00:49 0,7 °C 0,7 °C 77 % 1043,7 hPa 0,0 mm 1,6 km/h (1 Bft) S-SW 202 ° 0 min 0,000 mm 0,0 UV-I 0 W/m² -2,9 °C 3,2 km/h (1 Bft)
28.12.2016 00:50 0,7 °C 0,8 °C 77 % 1043,6 hPa 0,0 mm 1,6 km/h (1 Bft) S-SW 202 ° 0 min 0,000 mm 0,0 UV-I 0 W/m² -2,9 °C 1,6 km/h (1 Bft)
28.12.2016 00:51 0,7 °C 0,7 °C 77 % 1043,6 hPa 0,0 mm 1,6 km/h (1 Bft) S-SO 157 ° 0 min 0,000 mm 0,0 UV-I 0 W/m² -2,9 °C 3,2 km/h (1 Bft)
28.12.2016 00:52 0,7 °C 0,7 °C 78 % 1043,6 hPa 0,0 mm 1,6 km/h (1 Bft) S-SO 157 ° 0 min 0,000 mm 0,0 UV-I 0 W/m² -2,7 °C 3,2 km/h (1 Bft)
28.12.2016 00:53 0,7 °C 0,7 °C 77 % 1043,5 hPa 0,0 mm 1,6 km/h (1 Bft) S-SO 157 ° 0 min 0,000 mm 0,0 UV-I 0 W/m² -2,9 °C 3,2 km/h (1 Bft)
28.12.2016 00:54 0,7 °C 0,7 °C 76 % 1043,5 hPa 0,0 mm 1,6 km/h (1 Bft) S-SO 157 ° 0 min 0,000 mm 0,0 UV-I 0 W/m² -3,0 °C 3,2 km/h (1 Bft)
28.12.2016 00:55 0,7 °C 0,7 °C 76 % 1043,6 hPa 0,0 mm 3,2 km/h (1 Bft) S-SO 157 ° 0 min 0,000 mm 0,0 UV-I 0 W/m² -3,0 °C 4,8 km/h (1 Bft)
28.12.2016 00:56 0,7 °C 0,7 °C 77 % 1043,5 hPa 0,0 mm 1,6 km/h (1 Bft) S-SO 157 ° 0 min 0,000 mm 0,0 UV-I 0 W/m² -2,9 °C 1,6 km/h (1 Bft)
28.12.2016 00:57 0,7 °C 0,7 °C 77 % 1043,5 hPa 0,0 mm 0,0 km/h (0 Bft) N 0 ° 0 min 0,000 mm 0,0 UV-I 0 W/m² -2,9 °C 0,0 km/h (0 Bft)
28.12.2016 00:58 0,7 °C 0,7 °C 78 % 1043,6 hPa 0,0 mm 1,6 km/h (1 Bft) S-SO 157 ° 0 min 0,000 mm 0,0 UV-I 0 W/m² -2,7 °C 4,8 km/h (1 Bft)
28.12.2016 00:59 0,7 °C 0,7 °C 78 % 1043,5 hPa 0,0 mm 1,6 km/h (1 Bft) S-SO 157 ° 0 min 0,000 mm 0,0 UV-I 0 W/m² -2,7 °C 4,8 km/h (1 Bft)
28.12.2016 01:02 0,7 °C 0,7 °C 78 % 1043,5 hPa 0,0 mm 0,0 km/h (0 Bft) S-SO 167 ° 0 min 0,025 mm 0,0 UV-I 0 W/m² -2,7 °C 0,0 km/h (0 Bft)
28.12.2016 01:03 0,7 °C 0,7 °C 78 % 1043,5 hPa 0,0 mm 0,3 km/h (0 Bft) S-SO 167 ° 0 min 0,000 mm 0,0 UV-I 0 W/m² -2,7 °C 1,6 km/h (1 Bft)
28.12.2016 01:04 0,6 °C 0,7 °C 78 % 1043,5 hPa 0,0 mm 0,8 km/h (0 Bft) S-SO 167 ° 0 min 0,000 mm 0,0 UV-I 0 W/m² -2,8 °C 1,6 km/h (1 Bft)
28.12.2016 01:05 0,6 °C 0,7 °C 78 % 1043,5 hPa 0,0 mm 2,6 km/h (1 Bft) S-SO 167 ° 0 min 0,000 mm 0,0 UV-I 0 W/m² -2,8 °C 4,8 km/h (1 Bft)
28.12.2016 01:06 0,6 °C 0,6 °C 78 % 1043,5 hPa 0,0 mm 0,3 km/h (0 Bft) S-SO 167 ° 0 min 0,000 mm 0,0 UV-I 0 W/m² -2,8 °C 1,6 km/h (1 Bft)
28.12.2016 01:07 0,6 °C 0,6 °C 78 % 1043,4 hPa 0,0 mm 0,1 km/h (0 Bft) S-SO 167 ° 0 min 0,000 mm 0,0 UV-I 0 W/m² -2,8 °C 1,6 km/h (1 Bft)
28.12.2016 01:08 0,6 °C 0,6 °C 78 % 1043,4 hPa 0,0 mm 0,8 km/h (0 Bft) S 169 ° 0 min 0,000 mm 0,0 UV-I 0 W/m² -2,8 °C 4,8 km/h (1 Bft)
28.12.2016 01:09 0,6 °C 0,6 °C 77 % 1043,4 hPa 0,0 mm 2,7 km/h (1 Bft) S 171 ° 0 min 0,000 mm 0,0 UV-I 0 W/m² -3,0 °C 3,2 km/h (1 Bft)
28.12.2016 01:10 0,6 °C 0,6 °C 77 % 1043,4 hPa 0,0 mm 3,1 km/h (1 Bft) S 171 ° 0 min 0,000 mm 0,0 UV-I 0 W/m² -3,0 °C 6,4 km/h (2 Bft)
28.12.2016 01:11 0,6 °C 0,6 °C 78 % 1043,4 hPa 0,0 mm 3,8 km/h (1 Bft) S 186 ° 0 min 0,000 mm 0,0 UV-I 0 W/m² -2,8 °C 6,4 km/h (2 Bft)
28.12.2016 01:12 0,6 °C 0,6 °C 78 % 1043,3 hPa 0,0 mm 2,8 km/h (1 Bft) S 186 ° 0 min 0,000 mm 0,0 UV-I 0 W/m² -2,8 °C 3,2 km/h (1 Bft)
28.12.2016 01:13 0,6 °C 0,6 °C 77 % 1043,3 hPa 0,0 mm 3,1 km/h (1 Bft) S 186 ° 0 min 0,000 mm 0,0 UV-I 0 W/m² -3,0 °C 4,8 km/h (1 Bft)
28.12.2016 01:14 0,6 °C 0,6 °C 78 % 1043,3 hPa 0,0 mm 2,5 km/h (1 Bft) S 186 ° 0 min 0,000 mm 0,0 UV-I 0 W/m² -2,8 °C 4,8 km/h (1 Bft)
28.12.2016 01:16 0,5 °C 0,6 °C 78 % 1043,2 hPa 0,0 mm 0,4 km/h (0 Bft) W-SW 250 ° 0 min 0,000 mm 0,0 UV-I 0 W/m² -2,9 °C 1,6 km/h (1 Bft)
28.12.2016 01:17 0,5 °C 0,5 °C 78 % 1043,2 hPa 0,0 mm 2,4 km/h (1 Bft) SW 232 ° 0 min 0,000 mm 0,0 UV-I 0 W/m² -2,9 °C 4,8 km/h (1 Bft)
28.12.2016 01:18 0,5 °C 0,5 °C 78 % 1043,2 hPa 0,0 mm 2,5 km/h (1 Bft) SW 231 ° 0 min 0,000 mm 0,0 UV-I 0 W/m² -2,9 °C 4,8 km/h (1 Bft)
28.12.2016 01:19 0,5 °C 0,5 °C 78 % 1043,2 hPa 0,0 mm 3,7 km/h (1 Bft) SW 223 ° 0 min 0,000 mm 0,0 UV-I 0 W/m² -2,9 °C 6,4 km/h (2 Bft)
28.12.2016 01:20 0,5 °C 0,5 °C 78 % 1043,1 hPa 0,0 mm 3,6 km/h (1 Bft) S-SO 167 ° 0 min 0,000 mm 0,0 UV-I 0 W/m² -2,9 °C 8,0 km/h (2 Bft)
28.12.2016 01:21 0,5 °C 0,5 °C 79 % 1043,1 hPa 0,0 mm 0,4 km/h (0 Bft) S-SO 167 ° 0 min 0,000 mm 0,0 UV-I 0 W/m² -2,7 °C 1,6 km/h (1 Bft)
28.12.2016 01:22 0,5 °C 0,5 °C 78 % 1043,1 hPa 0,0 mm 0,0 km/h (0 Bft) S-SO 167 ° 0 min 0,000 mm 0,0 UV-I 0 W/m² -2,9 °C 0,0 km/h (0 Bft)
28.12.2016 01:23 0,4 °C 0,5 °C 79 % 1043,0 hPa 0,0 mm 0,7 km/h (0 Bft) SW 236 ° 0 min 0,000 mm 0,0 UV-I 0 W/m² -2,8 °C 4,8 km/h (1 Bft)
28.12.2016 01:24 0,4 °C 0,5 °C 79 % 1043,1 hPa 0,0 mm 3,4 km/h (1 Bft) S 183 ° 0 min 0,000 mm 0,0 UV-I 0 W/m² -2,8 °C 4,8 km/h (1 Bft)
28.12.2016 01:26 0,4 °C 0,5 °C 79 % 1042,9 hPa 0,0 mm 4,5 km/h (1 Bft) SW 217 ° 0 min 0,000 mm 0,0 UV-I 0 W/m² -2,8 °C 4,8 km/h (1 Bft)
28.12.2016 01:27 0,4 °C 0,4 °C 78 % 1043,0 hPa 0,0 mm 1,8 km/h (1 Bft) SW 217 ° 0 min 0,000 mm 0,0 UV-I 0 W/m² -3,0 °C 3,2 km/h (1 Bft)
28.12.2016 01:28 0,4 °C 0,4 °C 79 % 1043,0 hPa 0,0 mm 0,8 km/h (0 Bft) SW 217 ° 0 min 0,000 mm 0,0 UV-I 0 W/m² -2,8 °C 1,6 km/h (1 Bft)
28.12.2016 01:29 0,4 °C 0,4 °C 79 % 1043,0 hPa 0,0 mm 1,0 km/h (0 Bft) SW 216 ° 0 min 0,000 mm 0,0 UV-I 0 W/m² -2,8 °C 1,6 km/h (1 Bft)
28.12.2016 01:30 0,4 °C 0,4 °C 79 % 1043,0 hPa 0,0 mm 1,2 km/h (1 Bft) SW 216 ° 0 min 0,000 mm 0,0 UV-I 0 W/m² -2,8 °C 1,6 km/h (1 Bft)
28.12.2016 01:33 0,3 °C 3,9 °C 79 % 1043,1 hPa 0,0 mm 1,1 km/h (1 Bft) SW 216 ° 0 min 0,000 mm 0,0 UV-I 0 W/m² -2,9 °C 1,6 km/h (1 Bft)
28.12.2016 01:34 0,3 °C 0,3 °C 79 % 1043,0 hPa 0,0 mm 1,2 km/h (1 Bft) SW 216 ° 0 min 0,000 mm 0,0 UV-I 0 W/m² -2,9 °C 1,6 km/h (1 Bft)
28.12.2016 01:35 0,3 °C 0,3 °C 79 % 1043,0 hPa 0,0 mm 0,1 km/h (0 Bft) SW 216 ° 0 min 0,000 mm 0,0 UV-I 0 W/m² -2,9 °C 1,6 km/h (1 Bft)
28.12.2016 01:36 0,3 °C 0,3 °C 78 % 1043,0 hPa 0,0 mm 1,9 km/h (1 Bft) SW 216 ° 0 min 0,000 mm 0,0 UV-I 0 W/m² -3,1 °C 3,2 km/h (1 Bft)
28.12.2016 01:37 0,3 °C 0,3 °C 78 % 1042,9 hPa 0,0 mm 3,1 km/h (1 Bft) SW 223 ° 0 min 0,000 mm 0,0 UV-I 0 W/m² -3,1 °C 4,8 km/h (1 Bft)
28.12.2016 01:38 0,3 °C 0,3 °C 78 % 1042,9 hPa 0,0 mm 0,7 km/h (0 Bft) SW 223 ° 0 min 0,000 mm 0,0 UV-I 0 W/m² -3,1 °C 1,6 km/h (1 Bft)
28.12.2016 01:39 0,3 °C 0,3 °C 78 % 1042,9 hPa 0,0 mm 0,2 km/h (0 Bft) SW 223 ° 0 min 0,000 mm 0,0 UV-I 0 W/m² -3,1 °C 1,6 km/h (1 Bft)
28.12.2016 01:40 0,3 °C 0,3 °C 78 % 1042,8 hPa 0,0 mm 0,0 km/h (0 Bft) SW 223 ° 0 min 0,000 mm 0,0 UV-I 0 W/m² -3,1 °C 0,0 km/h (0 Bft)
28.12.2016 01:41 0,3 °C 0,3 °C 78 % 1042,8 hPa 0,0 mm 0,1 km/h (0 Bft) SW 223 ° 0 min 0,000 mm 0,0 UV-I 0 W/m² -3,1 °C 1,6 km/h (1 Bft)
28.12.2016 01:42 0,3 °C 0,3 °C 78 % 1042,8 hPa 0,0 mm 0,2 km/h (0 Bft) SW 223 ° 0 min 0,000 mm 0,0 UV-I 0 W/m² -3,1 °C 1,6 km/h (1 Bft)
28.12.2016 01:43 0,2 °C 0,3 °C 78 % 1042,8 hPa 0,0 mm 0,3 km/h (0 Bft) SW 223 ° 0 min 0,000 mm 0,0 UV-I 0 W/m² -3,2 °C 1,6 km/h (1 Bft)
28.12.2016 01:44 0,3 °C 0,3 °C 78 % 1042,8 hPa 0,0 mm 1,6 km/h (1 Bft) SW 225 ° 0 min 0,000 mm 0,0 UV-I 0 W/m² -3,1 °C 4,8 km/h (1 Bft)
28.12.2016 01:45 0,2 °C 0,3 °C 78 % 1042,9 hPa 0,0 mm 1,6 km/h (1 Bft) SW 225 ° 0 min 0,000 mm 0,0 UV-I 0 W/m² -3,2 °C 3,2 km/h (1 Bft)
28.12.2016 01:46 0,2 °C 0,2 °C 78 % 1042,9 hPa 0,0 mm 3,2 km/h (1 Bft) SW 225 ° 0 min 0,000 mm 0,0 UV-I 0 W/m² -3,2 °C 4,8 km/h (1 Bft)
28.12.2016 01:47 0,2 °C 0,2 °C 78 % 1042,9 hPa 0,0 mm 1,6 km/h (1 Bft) SW 225 ° 0 min 0,000 mm 0,0 UV-I 0 W/m² -3,2 °C 4,8 km/h (1 Bft)
28.12.2016 01:48 0,2 °C 0,2 °C 78 % 1042,9 hPa 0,0 mm 4,8 km/h (1 Bft) SW 225 ° 0 min 0,000 mm 0,0 UV-I 0 W/m² -3,2 °C 6,4 km/h (2 Bft)
28.12.2016 01:49 0,2 °C 0,3 °C 78 % 1042,9 hPa 0,0 mm 1,6 km/h (1 Bft) S-SW 202 ° 0 min 0,000 mm 0,0 UV-I 0 W/m² -3,2 °C 3,2 km/h (1 Bft)
28.12.2016 01:50 0,2 °C 0,2 °C 78 % 1042,9 hPa 0,0 mm 1,6 km/h (1 Bft) S-SW 202 ° 0 min 0,000 mm 0,0 UV-I 0 W/m² -3,2 °C 3,2 km/h (1 Bft)
28.12.2016 01:52 0,2 °C 0,2 °C 77 % 1042,8 hPa 0,0 mm 4,8 km/h (1 Bft) S-SO 167 ° 0 min 0,000 mm 0,0 UV-I 0 W/m² -3,3 °C 6,4 km/h (2 Bft)
28.12.2016 01:53 0,2 °C 0,2 °C 78 % 1042,9 hPa 0,0 mm 3,5 km/h (1 Bft) S-SW 208 ° 0 min 0,000 mm 0,0 UV-I 0 W/m² -3,2 °C 6,4 km/h (2 Bft)
28.12.2016 01:54 0,2 °C 0,2 °C 78 % 1042,8 hPa 0,0 mm 2,3 km/h (1 Bft) S 171 ° 0 min 0,000 mm 0,0 UV-I 0 W/m² -3,2 °C 6,4 km/h (2 Bft)
28.12.2016 01:55 0,2 °C 0,2 °C 79 % 1042,8 hPa 0,0 mm 2,4 km/h (1 Bft) S 171 ° 0 min 0,000 mm 0,0 UV-I 0 W/m² -3,0 °C 3,2 km/h (1 Bft)
28.12.2016 01:56 0,2 °C 0,2 °C 79 % 1042,8 hPa 0,0 mm 1,2 km/h (1 Bft) S 171 ° 0 min 0,000 mm 0,0 UV-I 0 W/m² -3,0 °C 1,6 km/h (1 Bft)
28.12.2016 01:57 0,2 °C 0,2 °C 79 % 1042,8 hPa 0,0 mm 1,3 km/h (1 Bft) S 171 ° 0 min 0,000 mm 0,0 UV-I 0 W/m² -3,0 °C 1,6 km/h (1 Bft)
28.12.2016 01:58 0,2 °C 0,2 °C 79 % 1042,9 hPa 0,0 mm 3,0 km/h (1 Bft) O 88 ° 0 min 0,000 mm 0,0 UV-I 0 W/m² -3,0 °C 4,8 km/h (1 Bft)
28.12.2016 01:59 0,2 °C 0,2 °C 79 % 1042,9 hPa 0,0 mm 2,5 km/h (1 Bft) O 88 ° 0 min 0,000 mm 0,0 UV-I 0 W/m² -3,0 °C 3,2 km/h (1 Bft)
28.12.2016 02:00 0,2 °C 0,2 °C 79 % 1042,8 hPa 0,0 mm 1,1 km/h (1 Bft) O 88 ° 0 min 0,000 mm 0,0 UV-I 0 W/m² -3,0 °C 1,6 km/h (1 Bft)
28.12.2016 02:01 0,2 °C 0,2 °C 79 % 1042,9 hPa 0,0 mm 0,6 km/h (0 Bft) O 88 ° 0 min 0,000 mm 0,0 UV-I 0 W/m² -3,0 °C 1,6 km/h (1 Bft)
28.12.2016 02:02 0,2 °C 0,2 °C 79 % 1042,9 hPa 0,0 mm 0,4 km/h (0 Bft) O 88 ° 0 min 0,000 mm 0,0 UV-I 0 W/m² -3,0 °C 1,6 km/h (1 Bft)
28.12.2016 02:03 0,2 °C 0,2 °C 79 % 1042,9 hPa 0,0 mm 1,9 km/h (1 Bft) O 88 ° 0 min 0,000 mm 0,0 UV-I 0 W/m² -3,0 °C 3,2 km/h (1 Bft)
28.12.2016 02:04 0,2 °C 0,2 °C 79 % 1042,9 hPa 0,0 mm 2,2 km/h (1 Bft) O 88 ° 0 min 0,000 mm 0,0 UV-I 0 W/m² -3,0 °C 3,2 km/h (1 Bft)
28.12.2016 02:05 0,2 °C 0,2 °C 79 % 1042,9 hPa 0,0 mm 1,2 km/h (1 Bft) O 88 ° 0 min 0,000 mm 0,0 UV-I 0 W/m² -3,0 °C 1,6 km/h (1 Bft)
28.12.2016 02:06 0,2 °C 0,2 °C 79 % 1042,9 hPa 0,0 mm 0,0 km/h (0 Bft) O 88 ° 0 min 0,000 mm 0,0 UV-I 0 W/m² -3,0 °C 0,0 km/h (0 Bft)
28.12.2016 02:07 0,2 °C 0,2 °C 79 % 1042,9 hPa 0,0 mm 1,5 km/h (1 Bft) O 88 ° 0 min 0,000 mm 0,0 UV-I 0 W/m² -3,0 °C 3,2 km/h (1 Bft)
28.12.2016 02:08 0,2 °C 0,2 °C 79 % 1042,9 hPa 0,0 mm 0,3 km/h (0 Bft) O 88 ° 0 min 0,000 mm 0,0 UV-I 0 W/m² -3,0 °C 1,6 km/h (1 Bft)
28.12.2016 02:09 0,1 °C 0,2 °C 79 % 1042,9 hPa 0,0 mm 2,6 km/h (1 Bft) O 88 ° 0 min 0,000 mm 0,0 UV-I 0 W/m² -3,1 °C 3,2 km/h (1 Bft)
28.12.2016 02:10 0,2 °C 0,2 °C 79 % 1043,0 hPa 0,0 mm 1,8 km/h (1 Bft) O 88 ° 0 min 0,000 mm 0,0 UV-I 0 W/m² -3,0 °C 3,2 km/h (1 Bft)
28.12.2016 02:11 0,1 °C 0,2 °C 79 % 1043,1 hPa 0,0 mm 0,1 km/h (0 Bft) O 88 ° 0 min 0,000 mm 0,0 UV-I 0 W/m² -3,1 °C 1,6 km/h (1 Bft)
28.12.2016 02:12 0,1 °C 0,1 °C 79 % 1043,1 hPa 0,0 mm 0,3 km/h (0 Bft) O 88 ° 0 min 0,000 mm 0,0 UV-I 0 W/m² -3,1 °C 1,6 km/h (1 Bft)
28.12.2016 02:13 0,1 °C 0,1 °C 79 % 1043,1 hPa 0,0 mm 1,7 km/h (1 Bft) O 88 ° 0 min 0,000 mm 0,0 UV-I 0 W/m² -3,1 °C 3,2 km/h (1 Bft)
28.12.2016 02:14 0,1 °C 0,1 °C 79 % 1043,1 hPa 0,0 mm 1,3 km/h (1 Bft) O 88 ° 0 min 0,000 mm 0,0 UV-I 0 W/m² -3,1 °C 3,2 km/h (1 Bft)
28.12.2016 02:15 0,0 °C 0,1 °C 80 % 1043,1 hPa 0,0 mm 0,7 km/h (0 Bft) O 88 ° 0 min 0,000 mm 0,0 UV-I 0 W/m² -3,0 °C 1,6 km/h (1 Bft)
28.12.2016 02:16 0,1 °C 0,1 °C 80 % 1043,1 hPa 0,0 mm 0,0 km/h (0 Bft) O 88 ° 0 min 0,000 mm 0,0 UV-I 0 W/m² -2,9 °C 0,0 km/h (0 Bft)
28.12.2016 02:17 0,0 °C 0,1 °C 80 % 1043,1 hPa 0,0 mm 1,2 km/h (1 Bft) O 88 ° 0 min 0,000 mm 0,0 UV-I 0 W/m² -3,0 °C 3,2 km/h (1 Bft)
28.12.2016 02:18 0,0 °C 0,0 °C 80 % 1043,1 hPa 0,0 mm 0,0 km/h (0 Bft) O 88 ° 0 min 0,000 mm 0,0 UV-I 0 W/m² -3,0 °C 0,0 km/h (0 Bft)
28.12.2016 02:19 -0,1 °C 0,0 °C 80 % 1043,2 hPa 0,0 mm 0,0 km/h (0 Bft) O 88 ° 0 min 0,000 mm 0,0 UV-I 0 W/m² -3,1 °C 0,0 km/h (0 Bft)
28.12.2016 02:20 -0,1 °C 0,0 °C 80 % 1043,2 hPa 0,0 mm 0,7 km/h (0 Bft) O 88 ° 0 min 0,000 mm 0,0 UV-I 0 W/m² -3,1 °C 1,6 km/h (1 Bft)
28.12.2016 02:21 0,0 °C 0,0 °C 80 % 1043,2 hPa 0,0 mm 1,1 km/h (1 Bft) O 88 ° 0 min 0,000 mm 0,0 UV-I 0 W/m² -3,0 °C 1,6 km/h (1 Bft)
28.12.2016 02:22 -0,1 °C 0,0 °C 80 % 1043,3 hPa 0,0 mm 0,2 km/h (0 Bft) O 88 ° 0 min 0,000 mm 0,0 UV-I 0 W/m² -3,1 °C 1,6 km/h (1 Bft)
28.12.2016 02:23 -0,1 °C -0,1 °C 80 % 1043,3 hPa 0,0 mm 0,0 km/h (0 Bft) O 88 ° 0 min 0,000 mm 0,0 UV-I 0 W/m² -3,1 °C 0,0 km/h (0 Bft)
28.12.2016 02:24 -0,1 °C -0,1 °C 80 % 1043,2 hPa 0,0 mm 0,0 km/h (0 Bft) O 88 ° 0 min 0,000 mm 0,0 UV-I 0 W/m² -3,1 °C 0,0 km/h (0 Bft)
28.12.2016 02:25 -0,1 °C -0,1 °C 80 % 1043,2 hPa 0,0 mm 0,0 km/h (0 Bft) O 88 ° 0 min 0,000 mm 0,0 UV-I 0 W/m² -3,1 °C 0,0 km/h (0 Bft)
28.12.2016 02:26 -0,1 °C -0,1 °C 80 % 1043,2 hPa 0,0 mm 1,0 km/h (0 Bft) O 88 ° 0 min 0,000 mm 0,0 UV-I 0 W/m² -3,1 °C 1,6 km/h (1 Bft)
28.12.2016 02:27 -0,1 °C -0,1 °C 81 % 1043,2 hPa 0,0 mm 0,2 km/h (0 Bft) O 88 ° 0 min 0,000 mm 0,0 UV-I 0 W/m² -3,0 °C 1,6 km/h (1 Bft)
28.12.2016 02:28 -0,2 °C -0,1 °C 81 % 1043,2 hPa 0,0 mm 0,3 km/h (0 Bft) O 88 ° 0 min 0,000 mm 0,0 UV-I 0 W/m² -3,1 °C 1,6 km/h (1 Bft)
28.12.2016 02:29 -0,2 °C -0,1 °C 81 % 1043,2 hPa 0,0 mm 1,5 km/h (1 Bft) O 88 ° 0 min 0,000 mm 0,0 UV-I 0 W/m² -3,1 °C 3,2 km/h (1 Bft)
28.12.2016 02:30 -0,2 °C -0,2 °C 81 % 1043,2 hPa 0,0 mm 2,5 km/h (1 Bft) O 88 ° 0 min 0,000 mm 0,0 UV-I 0 W/m² -3,1 °C 3,2 km/h (1 Bft)
28.12.2016 02:31 -0,2 °C -0,2 °C 81 % 1043,2 hPa 0,0 mm 0,9 km/h (0 Bft) O 88 ° 0 min 0,000 mm 0,0 UV-I 0 W/m² -3,1 °C 1,6 km/h (1 Bft)
28.12.2016 02:32 -0,2 °C -0,2 °C 81 % 1043,2 hPa 0,0 mm 1,0 km/h (0 Bft) O 88 ° 0 min 0,000 mm 0,0 UV-I 0 W/m² -3,1 °C 1,6 km/h (1 Bft)
28.12.2016 02:33 -0,2 °C -0,2 °C 81 % 1043,2 hPa 0,0 mm 1,0 km/h (0 Bft) O 88 ° 0 min 0,000 mm 0,0 UV-I 0 W/m² -3,1 °C 1,6 km/h (1 Bft)
28.12.2016 02:34 -0,2 °C -0,2 °C 81 % 1043,2 hPa 0,0 mm 0,5 km/h (0 Bft) O 88 ° 0 min 0,000 mm 0,0 UV-I 0 W/m² -3,1 °C 1,6 km/h (1 Bft)
28.12.2016 02:35 -0,3 °C -0,2 °C 81 % 1043,3 hPa 0,0 mm 1,3 km/h (1 Bft) O 88 ° 0 min 0,000 mm 0,0 UV-I 0 W/m² -3,2 °C 1,6 km/h (1 Bft)
28.12.2016 02:36 -0,3 °C -0,3 °C 81 % 1043,2 hPa 0,0 mm 0,1 km/h (0 Bft) O 88 ° 0 min 0,000 mm 0,0 UV-I 0 W/m² -3,2 °C 1,6 km/h (1 Bft)
28.12.2016 02:37 -0,3 °C -0,3 °C 81 % 1043,2 hPa 0,0 mm 0,3 km/h (0 Bft) O 88 ° 0 min 0,000 mm 0,0 UV-I 0 W/m² -3,2 °C 1,6 km/h (1 Bft)
28.12.2016 02:38 -0,3 °C -0,3 °C 82 % 1043,2 hPa 0,0 mm 0,0 km/h (0 Bft) O 88 ° 0 min 0,000 mm 0,0 UV-I 0 W/m² -3,0 °C 0,0 km/h (0 Bft)
28.12.2016 02:39 -0,3 °C -0,3 °C 82 % 1043,2 hPa 0,0 mm 0,8 km/h (0 Bft) O 88 ° 0 min 0,000 mm 0,0 UV-I 0 W/m² -3,0 °C 1,6 km/h (1 Bft)
28.12.2016 02:40 -0,3 °C -0,3 °C 82 % 1043,2 hPa 0,0 mm 0,5 km/h (0 Bft) O 88 ° 0 min 0,000 mm 0,0 UV-I 0 W/m² -3,0 °C 1,6 km/h (1 Bft)
28.12.2016 02:41 -0,3 °C -0,3 °C 82 % 1043,2 hPa 0,0 mm 1,4 km/h (1 Bft) O 88 ° 0 min 0,000 mm 0,0 UV-I 0 W/m² -3,0 °C 3,2 km/h (1 Bft)
28.12.2016 02:42 -0,3 °C -0,3 °C 82 % 1043,2 hPa 0,0 mm 2,0 km/h (1 Bft) O 88 ° 0 min 0,000 mm 0,0 UV-I 0 W/m² -3,0 °C 3,2 km/h (1 Bft)
28.12.2016 02:43 -0,4 °C -0,3 °C 82 % 1043,3 hPa 0,0 mm 0,3 km/h (0 Bft) O 88 ° 0 min 0,000 mm 0,0 UV-I 0 W/m² -3,1 °C 1,6 km/h (1 Bft)
28.12.2016 02:44 -0,4 °C -0,3 °C 82 % 1043,3 hPa 0,0 mm 0,0 km/h (0 Bft) O 88 ° 0 min 0,000 mm 0,0 UV-I 0 W/m² -3,1 °C 0,0 km/h (0 Bft)
28.12.2016 02:45 -0,4 °C -0,3 °C 82 % 1043,3 hPa 0,0 mm 0,0 km/h (0 Bft) O 88 ° 0 min 0,000 mm 0,0 UV-I 0 W/m² -3,1 °C 0,0 km/h (0 Bft)
28.12.2016 02:46 -0,4 °C -0,4 °C 82 % 1043,4 hPa 0,0 mm 0,0 km/h (0 Bft) O 88 ° 0 min 0,000 mm 0,0 UV-I 0 W/m² -3,1 °C 0,0 km/h (0 Bft)
28.12.2016 02:47 -0,4 °C -0,4 °C 82 % 1043,4 hPa 0,0 mm 0,0 km/h (0 Bft) O 88 ° 0 min 0,000 mm 0,0 UV-I 0 W/m² -3,1 °C 0,0 km/h (0 Bft)
28.12.2016 02:48 -0,4 °C -0,4 °C 82 % 1043,4 hPa 0,0 mm 0,6 km/h (0 Bft) O 88 ° 0 min 0,000 mm 0,0 UV-I 0 W/m² -3,1 °C 1,6 km/h (1 Bft)
28.12.2016 02:49 -0,4 °C -0,4 °C 82 % 1043,3 hPa 0,0 mm 0,2 km/h (0 Bft) O 88 ° 0 min 0,000 mm 0,0 UV-I 0 W/m² -3,1 °C 1,6 km/h (1 Bft)
28.12.2016 02:50 -0,5 °C -0,4 °C 82 % 1043,4 hPa 0,0 mm 0,0 km/h (0 Bft) O 88 ° 0 min 0,000 mm 0,0 UV-I 0 W/m² -3,2 °C 0,0 km/h (0 Bft)
28.12.2016 02:51 -0,5 °C -0,5 °C 83 % 1043,3 hPa 0,0 mm 0,1 km/h (0 Bft) O 88 ° 0 min 0,000 mm 0,0 UV-I 0 W/m² -3,0 °C 1,6 km/h (1 Bft)
28.12.2016 02:52 -0,5 °C -0,5 °C 83 % 1043,3 hPa 0,0 mm 1,0 km/h (0 Bft) O 89 ° 0 min 0,000 mm 0,0 UV-I 0 W/m² -3,0 °C 3,2 km/h (1 Bft)
28.12.2016 02:53 -0,5 °C -0,5 °C 82 % 1043,3 hPa 0,0 mm 2,7 km/h (1 Bft) O-SO 117 ° 0 min 0,000 mm 0,0 UV-I 0 W/m² -3,2 °C 3,2 km/h (1 Bft)
28.12.2016 02:54 -0,6 °C -0,5 °C 82 % 1043,3 hPa 0,0 mm 3,0 km/h (1 Bft) O-SO 117 ° 0 min 0,000 mm 0,0 UV-I 0 W/m² -3,3 °C 4,8 km/h (1 Bft)
28.12.2016 02:55 -0,6 °C -0,6 °C 82 % 1043,3 hPa 0,0 mm 3,2 km/h (1 Bft) SO 140 ° 0 min 0,000 mm 0,0 UV-I 0 W/m² -3,3 °C 4,8 km/h (1 Bft)
28.12.2016 02:56 -0,6 °C -0,6 °C 82 % 1043,3 hPa 0,0 mm 1,3 km/h (1 Bft) SO 140 ° 0 min 0,000 mm 0,0 UV-I 0 W/m² -3,3 °C 3,2 km/h (1 Bft)
28.12.2016 02:57 -0,6 °C -0,6 °C 82 % 1043,3 hPa 0,0 mm 1,2 km/h (1 Bft) S-SO 147 ° 0 min 0,000 mm 0,0 UV-I 0 W/m² -3,3 °C 4,8 km/h (1 Bft)
28.12.2016 02:58 -0,6 °C -0,6 °C 82 % 1043,3 hPa 0,0 mm 4,0 km/h (1 Bft) NW 305 ° 0 min 0,000 mm 0,0 UV-I 0 W/m² -3,3 °C 6,4 km/h (2 Bft)
28.12.2016 02:59 -0,6 °C -0,6 °C 83 % 1043,3 hPa 0,0 mm 1,0 km/h (0 Bft) NW 305 ° 0 min 0,000 mm 0,0 UV-I 0 W/m² -3,1 °C 3,2 km/h (1 Bft)
28.12.2016 03:00 -0,6 °C -0,6 °C 83 % 1043,3 hPa 0,0 mm 1,2 km/h (1 Bft) NW 304 ° 0 min 0,000 mm 0,0 UV-I 0 W/m² -3,1 °C 3,2 km/h (1 Bft)
28.12.2016 03:01 -0,6 °C -0,6 °C 83 % 1043,3 hPa 0,0 mm 0,1 km/h (0 Bft) NW 304 ° 0 min 0,000 mm 0,0 UV-I 0 W/m² -3,1 °C 1,6 km/h (1 Bft)
28.12.2016 03:02 -0,6 °C -0,6 °C 83 % 1043,3 hPa 0,0 mm 1,0 km/h (0 Bft) NW 304 ° 0 min 0,000 mm 0,0 UV-I 0 W/m² -3,1 °C 1,6 km/h (1 Bft)
28.12.2016 03:03 -0,6 °C -0,6 °C 83 % 1043,2 hPa 0,0 mm 0,1 km/h (0 Bft) NW 304 ° 0 min 0,000 mm 0,0 UV-I 0 W/m² -3,1 °C 1,6 km/h (1 Bft)
28.12.2016 03:04 -0,6 °C -0,6 °C 83 % 1043,3 hPa 0,0 mm 0,0 km/h (0 Bft) NW 304 ° 0 min 0,000 mm 0,0 UV-I 0 W/m² -3,1 °C 0,0 km/h (0 Bft)
28.12.2016 03:05 -0,6 °C -0,6 °C 83 % 1043,3 hPa 0,0 mm 0,7 km/h (0 Bft) NW 304 ° 0 min 0,000 mm 0,0 UV-I 0 W/m² -3,1 °C 1,6 km/h (1 Bft)
28.12.2016 03:06 -0,6 °C -0,6 °C 83 % 1043,3 hPa 0,0 mm 0,9 km/h (0 Bft) NW 304 ° 0 min 0,000 mm 0,0 UV-I 0 W/m² -3,1 °C 1,6 km/h (1 Bft)
28.12.2016 03:07 -0,6 °C -0,6 °C 83 % 1043,3 hPa 0,0 mm 2,1 km/h (1 Bft) NW 304 ° 0 min 0,000 mm 0,0 UV-I 0 W/m² -3,1 °C 3,2 km/h (1 Bft)
28.12.2016 03:08 -0,6 °C -0,6 °C 82 % 1043,4 hPa 0,0 mm 1,7 km/h (1 Bft) W-NW 286 ° 0 min 0,000 mm 0,0 UV-I 0 W/m² -3,3 °C 3,2 km/h (1 Bft)
28.12.2016 03:09 -0,6 °C -0,6 °C 82 % 1043,4 hPa 0,0 mm 1,5 km/h (1 Bft) W-NW 286 ° 0 min 0,000 mm 0,0 UV-I 0 W/m² -3,3 °C 3,2 km/h (1 Bft)
28.12.2016 03:10 -0,6 °C -0,6 °C 82 % 1043,4 hPa 0,0 mm 0,0 km/h (0 Bft) W-NW 286 ° 0 min 0,000 mm 0,0 UV-I 0 W/m² -3,3 °C 0,0 km/h (0 Bft)
28.12.2016 03:11 -0,6 °C -0,6 °C 81 % 1043,4 hPa 0,0 mm 0,0 km/h (0 Bft) W-NW 286 ° 0 min 0,000 mm 0,0 UV-I 0 W/m² -3,4 °C 0,0 km/h (0 Bft)
28.12.2016 03:12 -0,7 °C -0,6 °C 82 % 1043,4 hPa 0,0 mm 1,3 km/h (1 Bft) W-NW 286 ° 0 min 0,000 mm 0,0 UV-I 0 W/m² -3,4 °C 3,2 km/h (1 Bft)
28.12.2016 03:13 -0,7 °C -0,7 °C 82 % 1043,4 hPa 0,0 mm 2,3 km/h (1 Bft) W-NW 286 ° 0 min 0,000 mm 0,0 UV-I 0 W/m² -3,4 °C 3,2 km/h (1 Bft)
28.12.2016 03:14 -0,7 °C -0,7 °C 82 % 1043,4 hPa 0,0 mm 1,7 km/h (1 Bft) W-NW 286 ° 0 min 0,000 mm 0,0 UV-I 0 W/m² -3,4 °C 3,2 km/h (1 Bft)
28.12.2016 03:15 -0,7 °C -0,7 °C 83 % 1043,5 hPa 0,0 mm 0,1 km/h (0 Bft) W-NW 286 ° 0 min 0,000 mm 0,0 UV-I 0 W/m² -3,2 °C 1,6 km/h (1 Bft)
28.12.2016 03:16 -0,7 °C -0,7 °C 83 % 1043,5 hPa 0,0 mm 0,0 km/h (0 Bft) W-NW 286 ° 0 min 0,000 mm 0,0 UV-I 0 W/m² -3,2 °C 0,0 km/h (0 Bft)
28.12.2016 03:17 -0,7 °C -0,7 °C 82 % 1043,5 hPa 0,0 mm 1,3 km/h (1 Bft) W-NW 286 ° 0 min 0,000 mm 0,0 UV-I 0 W/m² -3,4 °C 1,6 km/h (1 Bft)
28.12.2016 03:18 -0,7 °C -0,7 °C 82 % 1043,6 hPa 0,0 mm 1,1 km/h (1 Bft) W-NW 286 ° 0 min 0,000 mm 0,0 UV-I 0 W/m² -3,4 °C 1,6 km/h (1 Bft)
28.12.2016 03:19 -0,7 °C -0,7 °C 82 % 1043,7 hPa 0,0 mm 2,2 km/h (1 Bft) W-NW 286 ° 0 min 0,000 mm 0,0 UV-I 0 W/m² -3,4 °C 3,2 km/h (1 Bft)
28.12.2016 03:20 -0,7 °C -0,7 °C 82 % 1043,7 hPa 0,0 mm 1,7 km/h (1 Bft) W-NW 286 ° 0 min 0,000 mm 0,0 UV-I 0 W/m² -3,4 °C 3,2 km/h (1 Bft)
28.12.2016 03:21 -0,7 °C -0,7 °C 82 % 1043,8 hPa 0,0 mm 1,3 km/h (1 Bft) W-NW 286 ° 0 min 0,000 mm 0,0 UV-I 0 W/m² -3,4 °C 1,6 km/h (1 Bft)
28.12.2016 03:22 -0,7 °C -0,7 °C 82 % 1043,8 hPa 0,0 mm 0,7 km/h (0 Bft) W-NW 286 ° 0 min 0,000 mm 0,0 UV-I 0 W/m² -3,4 °C 1,6 km/h (1 Bft)
28.12.2016 03:23 -0,8 °C -0,7 °C 81 % 1043,8 hPa 0,0 mm 0,2 km/h (0 Bft) W-NW 286 ° 0 min 0,000 mm 0,0 UV-I 0 W/m² -3,6 °C 1,6 km/h (1 Bft)
28.12.2016 03:24 -0,8 °C -0,8 °C 81 % 1043,8 hPa 0,0 mm 0,0 km/h (0 Bft) W-NW 286 ° 0 min 0,000 mm 0,0 UV-I 0 W/m² -3,6 °C 0,0 km/h (0 Bft)
28.12.2016 03:25 -0,8 °C -0,7 °C 81 % 1043,8 hPa 0,0 mm 0,0 km/h (0 Bft) W-NW 286 ° 0 min 0,000 mm 0,0 UV-I 0 W/m² -3,6 °C 0,0 km/h (0 Bft)
28.12.2016 03:26 -0,8 °C -0,8 °C 81 % 1043,8 hPa 0,0 mm 0,8 km/h (0 Bft) W-NW 286 ° 0 min 0,000 mm 0,0 UV-I 0 W/m² -3,6 °C 1,6 km/h (1 Bft)
28.12.2016 03:27 -0,8 °C -0,8 °C 81 % 1043,8 hPa 0,0 mm 1,3 km/h (1 Bft) W-NW 286 ° 0 min 0,000 mm 0,0 UV-I 0 W/m² -3,6 °C 1,6 km/h (1 Bft)
28.12.2016 03:28 -0,8 °C -0,8 °C 81 % 1043,8 hPa 0,0 mm 1,7 km/h (1 Bft) W-NW 286 ° 0 min 0,000 mm 0,0 UV-I 0 W/m² -3,6 °C 3,2 km/h (1 Bft)
28.12.2016 03:29 -0,8 °C -0,8 °C 81 % 1043,9 hPa 0,0 mm 1,0 km/h (0 Bft) W-NW 286 ° 0 min 0,000 mm 0,0 UV-I 0 W/m² -3,6 °C 1,6 km/h (1 Bft)
28.12.2016 03:30 -0,8 °C -0,8 °C 80 % 1043,8 hPa 0,0 mm 2,5 km/h (1 Bft) W-NW 286 ° 0 min 0,000 mm 0,0 UV-I 0 W/m² -3,8 °C 3,2 km/h (1 Bft)
28.12.2016 03:31 -0,8 °C -0,8 °C 80 % 1043,9 hPa 0,0 mm 2,6 km/h (1 Bft) W-NW 286 ° 0 min 0,000 mm 0,0 UV-I 0 W/m² -3,8 °C 4,8 km/h (1 Bft)
28.12.2016 03:32 -0,8 °C -0,8 °C 79 % 1043,9 hPa 0,0 mm 2,4 km/h (1 Bft) W-NW 286 ° 0 min 0,000 mm 0,0 UV-I 0 W/m² -4,0 °C 3,2 km/h (1 Bft)
28.12.2016 03:33 -0,8 °C -0,8 °C 79 % 1044,0 hPa 0,0 mm 1,5 km/h (1 Bft) W-NW 286 ° 0 min 0,000 mm 0,0 UV-I 0 W/m² -4,0 °C 3,2 km/h (1 Bft)
28.12.2016 03:34 -0,8 °C -0,8 °C 79 % 1044,0 hPa 0,0 mm 0,8 km/h (0 Bft) W-NW 286 ° 0 min 0,000 mm 0,0 UV-I 0 W/m² -4,0 °C 1,6 km/h (1 Bft)
28.12.2016 03:35 -0,8 °C -0,8 °C 79 % 1043,9 hPa 0,0 mm 0,7 km/h (0 Bft) W-NW 286 ° 0 min 0,000 mm 0,0 UV-I 0 W/m² -4,0 °C 1,6 km/h (1 Bft)
28.12.2016 03:36 -0,8 °C -0,8 °C 79 % 1043,9 hPa 0,0 mm 0,0 km/h (0 Bft) W-NW 286 ° 0 min 0,000 mm 0,0 UV-I 0 W/m² -4,0 °C 0,0 km/h (0 Bft)
28.12.2016 03:37 -0,8 °C -0,7 °C 79 % 1043,9 hPa 0,0 mm 0,5 km/h (0 Bft) W-NW 286 ° 0 min 0,000 mm 0,0 UV-I 0 W/m² -4,0 °C 1,6 km/h (1 Bft)
28.12.2016 03:38 -0,8 °C -0,8 °C 79 % 1043,8 hPa 0,0 mm 1,9 km/h (1 Bft) W-SW 240 ° 0 min 0,000 mm 0,0 UV-I 0 W/m² -4,0 °C 3,2 km/h (1 Bft)
28.12.2016 03:39 -0,8 °C -0,8 °C 79 % 1043,8 hPa 0,0 mm 3,7 km/h (1 Bft) S-SW 201 ° 0 min 0,000 mm 0,0 UV-I 0 W/m² -4,0 °C 4,8 km/h (1 Bft)
28.12.2016 03:40 -0,8 °C -0,8 °C 79 % 1043,7 hPa 0,0 mm 2,2 km/h (1 Bft) S-SW 199 ° 0 min 0,000 mm 0,0 UV-I 0 W/m² -4,0 °C 4,8 km/h (1 Bft)
28.12.2016 03:41 -0,8 °C -0,8 °C 80 % 1043,8 hPa 0,0 mm 4,6 km/h (1 Bft) S-SW 199 ° 0 min 0,000 mm 0,0 UV-I 0 W/m² -3,8 °C 6,4 km/h (2 Bft)
28.12.2016 03:42 -0,8 °C -0,8 °C 79 % 1043,8 hPa 0,0 mm 5,6 km/h (1 Bft) S 191 ° 0 min 0,000 mm 0,0 UV-I 0 W/m² -4,0 °C 6,4 km/h (2 Bft)
28.12.2016 03:43 -0,8 °C -0,7 °C 79 % 1043,7 hPa 0,0 mm 3,5 km/h (1 Bft) S 180 ° 0 min 0,000 mm 0,0 UV-I 0 W/m² -4,0 °C 6,4 km/h (2 Bft)
28.12.2016 03:44 -0,8 °C -0,8 °C 80 % 1043,8 hPa 0,0 mm 2,5 km/h (1 Bft) S 185 ° 0 min 0,000 mm 0,0 UV-I 0 W/m² -3,8 °C 4,8 km/h (1 Bft)
28.12.2016 03:45 -0,8 °C -0,7 °C 80 % 1043,8 hPa 0,0 mm 1,9 km/h (1 Bft) S 185 ° 0 min 0,000 mm 0,0 UV-I 0 W/m² -3,8 °C 3,2 km/h (1 Bft)
28.12.2016 03:46 -0,8 °C -0,8 °C 80 % 1044,0 hPa 0,0 mm 1,5 km/h (1 Bft) S 185 ° 0 min 0,000 mm 0,0 UV-I 0 W/m² -3,8 °C 3,2 km/h (1 Bft)
28.12.2016 03:47 -0,8 °C -0,7 °C 80 % 1044,0 hPa 0,0 mm 0,3 km/h (0 Bft) S 185 ° 0 min 0,000 mm 0,0 UV-I 0 W/m² -3,8 °C 1,6 km/h (1 Bft)
28.12.2016 03:48 -0,8 °C -0,8 °C 80 % 1044,0 hPa 0,0 mm 0,4 km/h (0 Bft) S 185 ° 0 min 0,000 mm 0,0 UV-I 0 W/m² -3,8 °C 1,6 km/h (1 Bft)
28.12.2016 03:49 -0,8 °C -0,8 °C 80 % 1044,0 hPa 0,0 mm 1,1 km/h (1 Bft) S 185 ° 0 min 0,000 mm 0,0 UV-I 0 W/m² -3,8 °C 3,2 km/h (1 Bft)
28.12.2016 03:50 -0,8 °C -0,8 °C 80 % 1044,0 hPa 0,0 mm 0,0 km/h (0 Bft) S 185 ° 0 min 0,000 mm 0,0 UV-I 0 W/m² -3,8 °C 0,0 km/h (0 Bft)
28.12.2016 03:51 -0,8 °C -0,8 °C 80 % 1044,1 hPa 0,0 mm 0,0 km/h (0 Bft) S 185 ° 0 min 0,000 mm 0,0 UV-I 0 W/m² -3,8 °C 0,0 km/h (0 Bft)
28.12.2016 03:52 -0,8 °C -0,8 °C 80 % 1044,1 hPa 0,0 mm 0,0 km/h (0 Bft) S 185 ° 0 min 0,000 mm 0,0 UV-I 0 W/m² -3,8 °C 0,0 km/h (0 Bft)
28.12.2016 03:53 -0,8 °C -0,8 °C 80 % 1044,1 hPa 0,0 mm 0,0 km/h (0 Bft) S 185 ° 0 min 0,000 mm 0,0 UV-I 0 W/m² -3,8 °C 0,0 km/h (0 Bft)
28.12.2016 03:54 -0,8 °C -0,8 °C 80 % 1044,2 hPa 0,0 mm 0,0 km/h (0 Bft) S 185 ° 0 min 0,000 mm 0,0 UV-I 0 W/m² -3,8 °C 0,0 km/h (0 Bft)
28.12.2016 03:55 -0,8 °C -0,8 °C 81 % 1044,1 hPa 0,0 mm 0,6 km/h (0 Bft) S 185 ° 0 min 0,000 mm 0,0 UV-I 0 W/m² -3,6 °C 1,6 km/h (1 Bft)
28.12.2016 03:56 -0,8 °C -0,8 °C 81 % 1044,1 hPa 0,0 mm 1,5 km/h (1 Bft) S 185 ° 0 min 0,000 mm 0,0 UV-I 0 W/m² -3,6 °C 1,6 km/h (1 Bft)
28.12.2016 03:57 -0,8 °C -0,8 °C 80 % 1044,1 hPa 0,0 mm 1,5 km/h (1 Bft) S 185 ° 0 min 0,000 mm 0,0 UV-I 0 W/m² -3,8 °C 1,6 km/h (1 Bft)
28.12.2016 03:58 -0,9 °C -0,8 °C 80 % 1044,1 hPa 0,0 mm 1,7 km/h (1 Bft) S 185 ° 0 min 0,000 mm 0,0 UV-I 0 W/m² -3,9 °C 3,2 km/h (1 Bft)
28.12.2016 03:59 -0,9 °C -0,9 °C 80 % 1044,1 hPa 0,0 mm 0,9 km/h (0 Bft) S 185 ° 0 min 0,000 mm 0,0 UV-I 0 W/m² -3,9 °C 3,2 km/h (1 Bft)
28.12.2016 04:00 -0,9 °C -0,9 °C 80 % 1044,1 hPa 0,0 mm 1,9 km/h (1 Bft) S 185 ° 0 min 0,000 mm 0,0 UV-I 0 W/m² -3,9 °C 4,8 km/h (1 Bft)
28.12.2016 04:01 -0,9 °C -0,9 °C 80 % 1044,2 hPa 0,0 mm 1,2 km/h (1 Bft) S 185 ° 0 min 0,000 mm 0,0 UV-I 0 W/m² -3,9 °C 3,2 km/h (1 Bft)
28.12.2016 04:02 -0,9 °C -0,9 °C 80 % 1044,2 hPa 0,0 mm 3,8 km/h (1 Bft) S 185 ° 0 min 0,000 mm 0,0 UV-I 0 W/m² -3,9 °C 4,8 km/h (1 Bft)
28.12.2016 04:03 -0,9 °C -0,9 °C 80 % 1044,2 hPa 0,0 mm 2,9 km/h (1 Bft) S 185 ° 0 min 0,000 mm 0,0 UV-I 0 W/m² -3,9 °C 3,2 km/h (1 Bft)
28.12.2016 04:04 -0,9 °C -0,9 °C 80 % 1044,2 hPa 0,0 mm 3,1 km/h (1 Bft) S 185 ° 0 min 0,000 mm 0,0 UV-I 0 W/m² -3,9 °C 4,8 km/h (1 Bft)
28.12.2016 04:05 -0,9 °C -0,9 °C 80 % 1044,3 hPa 0,0 mm 2,7 km/h (1 Bft) S 185 ° 0 min 0,000 mm 0,0 UV-I 0 W/m² -3,9 °C 4,8 km/h (1 Bft)
28.12.2016 04:06 -0,9 °C -0,9 °C 80 % 1044,3 hPa 0,0 mm 4,2 km/h (1 Bft) S 170 ° 0 min 0,000 mm 0,0 UV-I 0 W/m² -3,9 °C 6,4 km/h (2 Bft)
28.12.2016 04:07 -0,9 °C -0,9 °C 80 % 1044,2 hPa 0,0 mm 4,6 km/h (1 Bft) S 171 ° 0 min 0,000 mm 0,0 UV-I 0 W/m² -3,9 °C 8,0 km/h (2 Bft)
28.12.2016 04:08 -0,9 °C -0,9 °C 80 % 1044,2 hPa 0,0 mm 4,7 km/h (1 Bft) S 171 ° 0 min 0,000 mm 0,0 UV-I 0 W/m² -3,9 °C 6,4 km/h (2 Bft)
28.12.2016 04:09 -0,9 °C -0,9 °C 80 % 1044,2 hPa 0,0 mm 4,0 km/h (1 Bft) S-SO 166 ° 0 min 0,000 mm 0,0 UV-I 0 W/m² -3,9 °C 8,0 km/h (2 Bft)
28.12.2016 04:10 -0,9 °C -0,9 °C 81 % 1044,2 hPa 0,0 mm 4,2 km/h (1 Bft) S 171 ° 0 min 0,000 mm 0,0 UV-I 0 W/m² -3,7 °C 6,4 km/h (2 Bft)
28.12.2016 04:11 -0,9 °C -0,9 °C 81 % 1044,2 hPa 0,0 mm 6,4 km/h (2 Bft) S 181 ° 0 min 0,000 mm 0,0 UV-I 0 W/m² -3,7 °C 8,0 km/h (2 Bft)
28.12.2016 04:12 -0,9 °C -0,9 °C 80 % 1044,3 hPa 0,0 mm 5,3 km/h (1 Bft) S-SO 165 ° 0 min 0,000 mm 0,0 UV-I 0 W/m² -3,9 °C 8,0 km/h (2 Bft)
28.12.2016 04:13 -0,8 °C -0,8 °C 80 % 1044,3 hPa 0,0 mm 4,0 km/h (1 Bft) S-SO 166 ° 0 min 0,000 mm 0,0 UV-I 0 W/m² -3,8 °C 6,4 km/h (2 Bft)
28.12.2016 04:14 -0,8 °C -0,8 °C 80 % 1044,3 hPa 0,0 mm 4,6 km/h (1 Bft) S-SO 166 ° 0 min 0,000 mm 0,0 UV-I 0 W/m² -3,8 °C 6,4 km/h (2 Bft)
28.12.2016 04:15 -0,9 °C -0,8 °C 79 % 1044,3 hPa 0,0 mm 4,9 km/h (1 Bft) S-SO 167 ° 0 min 0,000 mm 0,0 UV-I 0 W/m² -4,1 °C 6,4 km/h (2 Bft)
28.12.2016 04:16 -0,9 °C -0,9 °C 80 % 1044,3 hPa 0,0 mm 3,9 km/h (1 Bft) S-SO 167 ° 0 min 0,000 mm 0,0 UV-I 0 W/m² -3,9 °C 4,8 km/h (1 Bft)
28.12.2016 04:17 -0,8 °C -0,8 °C 80 % 1044,2 hPa 0,0 mm 2,6 km/h (1 Bft) S-SO 167 ° 0 min 0,000 mm 0,0 UV-I 0 W/m² -3,8 °C 4,8 km/h (1 Bft)
28.12.2016 04:18 -0,8 °C -0,8 °C 80 % 1044,2 hPa 0,0 mm 5,1 km/h (1 Bft) S 170 ° 0 min 0,000 mm 0,0 UV-I 0 W/m² -3,8 °C 6,4 km/h (2 Bft)
28.12.2016 04:19 -0,9 °C -0,8 °C 79 % 1044,3 hPa 0,0 mm 4,3 km/h (1 Bft) S 188 ° 0 min 0,000 mm 0,0 UV-I 0 W/m² -4,1 °C 6,4 km/h (2 Bft)
28.12.2016 04:20 -0,8 °C -0,8 °C 79 % 1044,2 hPa 0,0 mm 3,8 km/h (1 Bft) S 187 ° 0 min 0,000 mm 0,0 UV-I 0 W/m² -4,0 °C 4,8 km/h (1 Bft)
28.12.2016 04:21 -0,9 °C -0,8 °C 79 % 1044,2 hPa 0,0 mm 4,2 km/h (1 Bft) S 187 ° 0 min 0,000 mm 0,0 UV-I 0 W/m² -4,1 °C 4,8 km/h (1 Bft)
28.12.2016 04:22 -0,9 °C -0,8 °C 79 % 1044,2 hPa 0,0 mm 4,8 km/h (1 Bft) S-SW 196 ° 0 min 0,000 mm 0,0 UV-I 0 W/m² -4,1 °C 6,4 km/h (2 Bft)
28.12.2016 04:23 -0,8 °C -0,8 °C 79 % 1044,2 hPa 0,0 mm 5,0 km/h (1 Bft) S-SW 194 ° 0 min 0,000 mm 0,0 UV-I 0 W/m² -4,0 °C 8,0 km/h (2 Bft)
28.12.2016 04:24 -0,8 °C -0,8 °C 79 % 1044,2 hPa 0,0 mm 5,9 km/h (2 Bft) S-SW 193 ° 0 min 0,000 mm 0,0 UV-I 0 W/m² -4,0 °C 8,0 km/h (2 Bft)
28.12.2016 04:25 -0,8 °C -0,8 °C 79 % 1044,2 hPa 0,0 mm 5,8 km/h (2 Bft) S-SW 200 ° 0 min 0,000 mm 0,0 UV-I 0 W/m² -4,0 °C 8,0 km/h (2 Bft)
28.12.2016 04:26 -0,8 °C -0,8 °C 79 % 1044,2 hPa 0,0 mm 6,8 km/h (2 Bft) S 179 ° 0 min 0,000 mm 0,0 UV-I 0 W/m² -4,0 °C 9,7 km/h (2 Bft)
28.12.2016 04:27 -0,8 °C -0,8 °C 79 % 1044,3 hPa 0,0 mm 6,8 km/h (2 Bft) S 180 ° 0 min 0,000 mm 0,0 UV-I 0 W/m² -4,0 °C 9,7 km/h (2 Bft)
28.12.2016 04:28 -0,8 °C -0,8 °C 79 % 1044,3 hPa 0,0 mm 8,0 km/h (2 Bft) S 190 ° 0 min 0,000 mm 0,0 UV-I 0 W/m² -4,0 °C 9,7 km/h (2 Bft)
28.12.2016 04:29 -0,8 °C -0,8 °C 79 % 1044,2 hPa 0,0 mm 7,2 km/h (2 Bft) S-SW 208 ° 0 min 0,000 mm 0,0 UV-I 0 W/m² -4,0 °C 11,3 km/h (2 Bft)
28.12.2016 04:30 -0,8 °C -0,8 °C 78 % 1044,2 hPa 0,0 mm 6,5 km/h (2 Bft) S 181 ° 0 min 0,000 mm 0,0 UV-I 0 W/m² -4,1 °C 8,0 km/h (2 Bft)
28.12.2016 04:31 -0,8 °C -0,8 °C 78 % 1044,2 hPa 0,0 mm 8,6 km/h (2 Bft) S 186 ° 0 min 0,000 mm 0,0 UV-I 0 W/m² -4,1 °C 9,7 km/h (2 Bft)
28.12.2016 04:32 -0,8 °C -0,8 °C 78 % 1044,2 hPa 0,0 mm 7,1 km/h (2 Bft) S 179 ° 0 min 0,000 mm 0,0 UV-I 0 W/m² -4,1 °C 9,7 km/h (2 Bft)
28.12.2016 04:33 -0,8 °C -0,8 °C 78 % 1044,2 hPa 0,0 mm 9,1 km/h (2 Bft) S 169 ° 0 min 0,000 mm 0,0 UV-I 0 W/m² -4,1 °C 11,3 km/h (2 Bft)
28.12.2016 04:34 -0,7 °C -0,7 °C 78 % 1044,2 hPa 0,0 mm 7,9 km/h (2 Bft) S 182 ° 0 min 0,000 mm 0,0 UV-I 0 W/m² -4,0 °C 9,7 km/h (2 Bft)
28.12.2016 04:35 -0,7 °C -0,7 °C 78 % 1044,2 hPa 0,0 mm 7,6 km/h (2 Bft) S-SW 201 ° 0 min 0,000 mm 0,0 UV-I 0 W/m² -4,0 °C 9,7 km/h (2 Bft)
28.12.2016 04:36 -0,7 °C -0,7 °C 78 % 1044,2 hPa 0,0 mm 5,1 km/h (1 Bft) S 184 ° 0 min 0,000 mm 0,0 UV-I 0 W/m² -4,0 °C 8,0 km/h (2 Bft)
28.12.2016 04:37 -0,7 °C -0,7 °C 78 % 1044,2 hPa 0,0 mm 6,8 km/h (2 Bft) S 188 ° 0 min 0,000 mm 0,0 UV-I 0 W/m² -4,0 °C 8,0 km/h (2 Bft)
28.12.2016 04:38 -0,7 °C -0,7 °C 78 % 1044,2 hPa 0,0 mm 5,8 km/h (2 Bft) S 174 ° 0 min 0,000 mm 0,0 UV-I 0 W/m² -4,0 °C 8,0 km/h (2 Bft)
28.12.2016 04:39 -0,7 °C -0,7 °C 78 % 1044,2 hPa 0,0 mm 6,5 km/h (2 Bft) S-SW 199 ° 0 min 0,000 mm 0,0 UV-I 0 W/m² -4,0 °C 11,3 km/h (2 Bft)
28.12.2016 04:40 -0,7 °C -0,7 °C 78 % 1044,2 hPa 0,0 mm 7,2 km/h (2 Bft) S-SW 194 ° 0 min 0,000 mm 0,0 UV-I 0 W/m² -4,0 °C 8,0 km/h (2 Bft)
28.12.2016 04:41 -0,7 °C -0,7 °C 78 % 1044,2 hPa 0,0 mm 5,6 km/h (1 Bft) S 190 ° 0 min 0,000 mm 0,0 UV-I 0 W/m² -4,0 °C 6,4 km/h (2 Bft)
28.12.2016 04:42 -0,7 °C -0,7 °C 77 % 1044,2 hPa 0,0 mm 7,0 km/h (2 Bft) S 186 ° 0 min 0,000 mm 0,0 UV-I 0 W/m² -4,2 °C 9,7 km/h (2 Bft)
28.12.2016 04:43 -0,7 °C -0,7 °C 77 % 1044,1 hPa 0,0 mm 6,0 km/h (2 Bft) S-SW 200 ° 0 min 0,000 mm 0,0 UV-I 0 W/m² -4,2 °C 8,0 km/h (2 Bft)
28.12.2016 04:44 -0,7 °C -0,6 °C 77 % 1044,1 hPa 0,0 mm 7,1 km/h (2 Bft) S-SW 207 ° 0 min 0,000 mm 0,0 UV-I 0 W/m² -4,2 °C 9,7 km/h (2 Bft)
28.12.2016 04:45 -0,6 °C -0,6 °C 77 % 1044,1 hPa 0,0 mm 6,8 km/h (2 Bft) S-SW 200 ° 0 min 0,000 mm 0,0 UV-I 0 W/m² -4,1 °C 9,7 km/h (2 Bft)
28.12.2016 04:46 -0,6 °C -0,6 °C 77 % 1044,0 hPa 0,0 mm 6,8 km/h (2 Bft) S-SW 209 ° 0 min 0,000 mm 0,0 UV-I 0 W/m² -4,1 °C 9,7 km/h (2 Bft)
28.12.2016 04:47 -0,6 °C -0,6 °C 77 % 1044,0 hPa 0,0 mm 6,9 km/h (2 Bft) S 185 ° 0 min 0,000 mm 0,0 UV-I 0 W/m² -4,1 °C 9,7 km/h (2 Bft)
28.12.2016 04:48 -0,5 °C -0,5 °C 77 % 1044,0 hPa 0,0 mm 8,0 km/h (2 Bft) S 177 ° 0 min 0,000 mm 0,0 UV-I 0 W/m² -4,0 °C 11,3 km/h (2 Bft)
28.12.2016 04:49 -0,4 °C -0,4 °C 77 % 1044,0 hPa 0,0 mm 9,1 km/h (2 Bft) W-SW 252 ° 0 min 0,000 mm 0,0 UV-I 0 W/m² -3,9 °C 12,9 km/h (3 Bft)
28.12.2016 04:50 -0,4 °C -0,4 °C 77 % 1043,9 hPa 0,0 mm 6,9 km/h (2 Bft) S 178 ° 0 min 0,000 mm 0,0 UV-I 0 W/m² -3,9 °C 9,7 km/h (2 Bft)
28.12.2016 04:51 -0,3 °C -0,3 °C 77 % 1043,9 hPa 0,0 mm 7,1 km/h (2 Bft) S 172 ° 0 min 0,000 mm 0,0 UV-I 0 W/m² -3,8 °C 9,7 km/h (2 Bft)
28.12.2016 04:52 -0,3 °C -0,3 °C 77 % 1044,0 hPa 0,0 mm 8,4 km/h (2 Bft) S 184 ° 0 min 0,000 mm 0,0 UV-I 0 W/m² -3,8 °C 11,3 km/h (2 Bft)
28.12.2016 04:53 -0,3 °C -0,3 °C 76 % 1043,9 hPa 0,0 mm 7,9 km/h (2 Bft) S 178 ° 0 min 0,000 mm 0,0 UV-I 0 W/m² -4,0 °C 11,3 km/h (2 Bft)
28.12.2016 04:54 -0,2 °C -0,2 °C 76 % 1043,9 hPa 0,0 mm 7,2 km/h (2 Bft) S-SW 203 ° 0 min 0,000 mm 0,0 UV-I 0 W/m² -3,9 °C 11,3 km/h (2 Bft)
28.12.2016 04:55 -0,2 °C -0,2 °C 76 % 1043,9 hPa 0,0 mm 9,3 km/h (2 Bft) S-SW 202 ° 0 min 0,000 mm 0,0 UV-I 0 W/m² -3,9 °C 11,3 km/h (2 Bft)
28.12.2016 04:56 -0,2 °C -0,2 °C 76 % 1044,0 hPa 0,0 mm 7,5 km/h (2 Bft) S 183 ° 0 min 0,000 mm 0,0 UV-I 0 W/m² -3,9 °C 11,3 km/h (2 Bft)
28.12.2016 04:57 -0,2 °C -0,2 °C 76 % 1044,0 hPa 0,0 mm 7,1 km/h (2 Bft) S-SW 208 ° 0 min 0,000 mm 0,0 UV-I 0 W/m² -3,9 °C 14,5 km/h (3 Bft)
28.12.2016 04:58 -0,1 °C -0,1 °C 77 % 1044,0 hPa 0,0 mm 6,4 km/h (2 Bft) S-SW 203 ° 0 min 0,000 mm 0,0 UV-I 0 W/m² -3,6 °C 12,9 km/h (3 Bft)
28.12.2016 04:59 -0,1 °C -0,1 °C 76 % 1044,1 hPa 0,0 mm 7,1 km/h (2 Bft) S-SW 196 ° 0 min 0,000 mm 0,0 UV-I 0 W/m² -3,8 °C 11,3 km/h (2 Bft)
28.12.2016 05:00 -0,1 °C -0,1 °C 76 % 1044,0 hPa 0,0 mm 7,4 km/h (2 Bft) S 175 ° 0 min 0,000 mm 0,0 UV-I 0 W/m² -3,8 °C 12,9 km/h (3 Bft)
28.12.2016 05:01 -0,1 °C -0,1 °C 76 % 1043,9 hPa 0,0 mm 7,4 km/h (2 Bft) S 191 ° 0 min 0,026 mm 0,0 UV-I 0 W/m² -3,8 °C 12,9 km/h (3 Bft)
28.12.2016 05:02 -0,1 °C -0,1 °C 76 % 1043,9 hPa 0,0 mm 7,4 km/h (2 Bft) S-SW 194 ° 0 min 0,000 mm 0,0 UV-I 0 W/m² -3,8 °C 11,3 km/h (2 Bft)
28.12.2016 05:03 -0,1 °C -0,1 °C 76 % 1043,8 hPa 0,0 mm 8,9 km/h (2 Bft) S-SW 202 ° 0 min 0,000 mm 0,0 UV-I 0 W/m² -3,8 °C 11,3 km/h (2 Bft)
28.12.2016 05:04 -0,1 °C -0,1 °C 76 % 1043,8 hPa 0,0 mm 8,0 km/h (2 Bft) S 187 ° 0 min 0,000 mm 0,0 UV-I 0 W/m² -3,8 °C 12,9 km/h (3 Bft)
28.12.2016 05:05 0,0 °C 0,0 °C 77 % 1043,7 hPa 0,0 mm 10,5 km/h (2 Bft) S-SW 200 ° 0 min 0,000 mm 0,0 UV-I 0 W/m² -3,5 °C 17,7 km/h (3 Bft)
28.12.2016 05:06 0,0 °C 0,0 °C 76 % 1043,6 hPa 0,0 mm 11,1 km/h (2 Bft) S 184 ° 0 min 0,000 mm 0,0 UV-I 0 W/m² -3,7 °C 16,1 km/h (3 Bft)
28.12.2016 05:07 0,0 °C 0,0 °C 76 % 1043,5 hPa 0,0 mm 11,1 km/h (2 Bft) SW 219 ° 0 min 0,000 mm 0,0 UV-I 0 W/m² -3,7 °C 14,5 km/h (3 Bft)
28.12.2016 05:08 0,0 °C 0,1 °C 76 % 1043,5 hPa 0,0 mm 9,4 km/h (2 Bft) S 175 ° 0 min 0,000 mm 0,0 UV-I 0 W/m² -3,7 °C 14,5 km/h (3 Bft)
28.12.2016 05:09 0,1 °C 0,1 °C 76 % 1043,5 hPa 0,0 mm 7,2 km/h (2 Bft) S-SW 209 ° 0 min 0,000 mm 0,0 UV-I 0 W/m² -3,6 °C 9,7 km/h (2 Bft)
28.12.2016 05:10 0,1 °C 0,1 °C 76 % 1043,5 hPa 0,0 mm 4,7 km/h (1 Bft) S 190 ° 0 min 0,000 mm 0,0 UV-I 0 W/m² -3,6 °C 8,0 km/h (2 Bft)
28.12.2016 05:11 0,1 °C 0,1 °C 76 % 1043,6 hPa 0,0 mm 4,3 km/h (1 Bft) S-SW 197 ° 0 min 0,000 mm 0,0 UV-I 0 W/m² -3,6 °C 8,0 km/h (2 Bft)
28.12.2016 05:12 0,1 °C 0,1 °C 76 % 1043,6 hPa 0,0 mm 2,7 km/h (1 Bft) W-SW 246 ° 0 min 0,000 mm 0,0 UV-I 0 W/m² -3,6 °C 4,8 km/h (1 Bft)
28.12.2016 05:13 0,1 °C 0,1 °C 76 % 1043,6 hPa 0,0 mm 2,6 km/h (1 Bft) S-SW 200 ° 0 min 0,000 mm 0,0 UV-I 0 W/m² -3,6 °C 4,8 km/h (1 Bft)
28.12.2016 05:14 0,1 °C 0,2 °C 77 % 1043,7 hPa 0,0 mm 3,0 km/h (1 Bft) SW 222 ° 0 min 0,000 mm 0,0 UV-I 0 W/m² -3,4 °C 4,8 km/h (1 Bft)
28.12.2016 05:15 0,1 °C 0,2 °C 77 % 1043,7 hPa 0,0 mm 3,0 km/h (1 Bft) S-SW 196 ° 0 min 0,000 mm 0,0 UV-I 0 W/m² -3,4 °C 4,8 km/h (1 Bft)
28.12.2016 05:16 0,2 °C 0,2 °C 77 % 1043,7 hPa 0,0 mm 5,7 km/h (1 Bft) S-SW 213 ° 0 min 0,000 mm 0,0 UV-I 0 W/m² -3,3 °C 9,7 km/h (2 Bft)
28.12.2016 05:17 0,2 °C 0,2 °C 77 % 1043,6 hPa 0,0 mm 5,9 km/h (2 Bft) S-SW 194 ° 0 min 0,000 mm 0,0 UV-I 0 W/m² -3,3 °C 9,7 km/h (2 Bft)
28.12.2016 05:18 0,2 °C 0,2 °C 77 % 1043,7 hPa 0,0 mm 5,0 km/h (1 Bft) S-SW 207 ° 0 min 0,000 mm 0,0 UV-I 0 W/m² -3,3 °C 6,4 km/h (2 Bft)
28.12.2016 05:19 0,2 °C 0,2 °C 77 % 1043,7 hPa 0,0 mm 4,6 km/h (1 Bft) S-SW 207 ° 0 min 0,000 mm 0,0 UV-I 0 W/m² -3,3 °C 6,4 km/h (2 Bft)
28.12.2016 05:20 0,2 °C 0,2 °C 77 % 1043,7 hPa 0,0 mm 5,7 km/h (1 Bft) S-SW 201 ° 0 min 0,000 mm 0,0 UV-I 0 W/m² -3,3 °C 8,0 km/h (2 Bft)
28.12.2016 05:21 0,2 °C 0,2 °C 77 % 1043,7 hPa 0,0 mm 3,9 km/h (1 Bft) SW 235 ° 0 min 0,000 mm 0,0 UV-I 0 W/m² -3,3 °C 6,4 km/h (2 Bft)
28.12.2016 05:22 0,2 °C 0,2 °C 77 % 1043,7 hPa 0,0 mm 3,9 km/h (1 Bft) S-SW 202 ° 0 min 0,000 mm 0,0 UV-I 0 W/m² -3,3 °C 6,4 km/h (2 Bft)
28.12.2016 05:23 0,2 °C 0,2 °C 77 % 1043,6 hPa 0,0 mm 5,0 km/h (1 Bft) S-SW 200 ° 0 min 0,000 mm 0,0 UV-I 0 W/m² -3,3 °C 8,0 km/h (2 Bft)
28.12.2016 05:24 0,2 °C 0,2 °C 77 % 1043,7 hPa 0,0 mm 8,1 km/h (2 Bft) SW 218 ° 0 min 0,000 mm 0,0 UV-I 0 W/m² -3,3 °C 11,3 km/h (2 Bft)
28.12.2016 05:25 0,3 °C 0,3 °C 77 % 1043,7 hPa 0,0 mm 6,9 km/h (2 Bft) S-SW 198 ° 0 min 0,000 mm 0,0 UV-I 0 W/m² -3,2 °C 8,0 km/h (2 Bft)
28.12.2016 05:26 0,3 °C 0,3 °C 77 % 1043,7 hPa 0,0 mm 5,6 km/h (1 Bft) S-SW 196 ° 0 min 0,000 mm 0,0 UV-I 0 W/m² -3,2 °C 8,0 km/h (2 Bft)
28.12.2016 05:27 0,3 °C 0,3 °C 77 % 1043,7 hPa 0,0 mm 6,1 km/h (2 Bft) S-SW 197 ° 0 min 0,000 mm 0,0 UV-I 0 W/m² -3,2 °C 9,7 km/h (2 Bft)
28.12.2016 05:28 0,3 °C 0,3 °C 77 % 1043,7 hPa 0,0 mm 6,8 km/h (2 Bft) S-SW 198 ° 0 min 0,000 mm 0,0 UV-I 0 W/m² -3,2 °C 9,7 km/h (2 Bft)
28.12.2016 05:29 0,3 °C 0,3 °C 77 % 1043,7 hPa 0,0 mm 7,0 km/h (2 Bft) S-SW 194 ° 0 min 0,000 mm 0,0 UV-I 0 W/m² -3,2 °C 8,0 km/h (2 Bft)
28.12.2016 05:30 0,3 °C 0,3 °C 77 % 1043,7 hPa 0,0 mm 5,8 km/h (2 Bft) S-SW 201 ° 0 min 0,000 mm 0,0 UV-I 0 W/m² -3,2 °C 8,0 km/h (2 Bft)
28.12.2016 05:31 0,3 °C 0,3 °C 77 % 1043,8 hPa 0,0 mm 5,7 km/h (1 Bft) S-SW 194 ° 0 min 0,000 mm 0,0 UV-I 0 W/m² -3,2 °C 8,0 km/h (2 Bft)
28.12.2016 05:32 0,3 °C 0,4 °C 77 % 1043,7 hPa 0,0 mm 5,0 km/h (1 Bft) S 182 ° 0 min 0,000 mm 0,0 UV-I 0 W/m² -3,2 °C 8,0 km/h (2 Bft)
28.12.2016 05:33 0,3 °C 0,4 °C 78 % 1043,8 hPa 0,0 mm 5,1 km/h (1 Bft) SW 219 ° 0 min 0,000 mm 0,0 UV-I 0 W/m² -3,1 °C 9,7 km/h (2 Bft)
28.12.2016 05:34 0,3 °C 0,4 °C 77 % 1043,8 hPa 0,0 mm 3,4 km/h (1 Bft) SW 219 ° 0 min 0,000 mm 0,0 UV-I 0 W/m² -3,2 °C 4,8 km/h (1 Bft)
28.12.2016 05:35 0,3 °C 0,4 °C 78 % 1043,8 hPa 0,0 mm 3,4 km/h (1 Bft) S-SW 198 ° 0 min 0,000 mm 0,0 UV-I 0 W/m² -3,1 °C 4,8 km/h (1 Bft)
28.12.2016 05:36 0,3 °C 0,3 °C 78 % 1043,8 hPa 0,0 mm 3,5 km/h (1 Bft) SW 229 ° 0 min 0,000 mm 0,0 UV-I 0 W/m² -3,1 °C 4,8 km/h (1 Bft)
28.12.2016 05:37 0,3 °C 0,4 °C 78 % 1043,8 hPa 0,0 mm 1,9 km/h (1 Bft) SW 229 ° 0 min 0,000 mm 0,0 UV-I 0 W/m² -3,1 °C 3,2 km/h (1 Bft)
28.12.2016 05:38 0,3 °C 0,3 °C 78 % 1043,8 hPa 0,0 mm 1,3 km/h (1 Bft) SW 229 ° 0 min 0,000 mm 0,0 UV-I 0 W/m² -3,1 °C 3,2 km/h (1 Bft)
28.12.2016 05:39 0,3 °C 0,3 °C 78 % 1043,8 hPa 0,0 mm 1,6 km/h (1 Bft) SW 229 ° 0 min 0,000 mm 0,0 UV-I 0 W/m² -3,1 °C 3,2 km/h (1 Bft)
28.12.2016 05:40 0,3 °C 0,3 °C 78 % 1043,8 hPa 0,0 mm 1,4 km/h (1 Bft) SW 229 ° 0 min 0,000 mm 0,0 UV-I 0 W/m² -3,1 °C 1,6 km/h (1 Bft)
28.12.2016 05:41 0,3 °C 0,3 °C 79 % 1043,8 hPa 0,0 mm 1,7 km/h (1 Bft) SW 229 ° 0 min 0,000 mm 0,0 UV-I 0 W/m² -2,9 °C 3,2 km/h (1 Bft)
28.12.2016 05:42 0,3 °C 0,3 °C 79 % 1043,8 hPa 0,0 mm 1,7 km/h (1 Bft) SW 229 ° 0 min 0,000 mm 0,0 UV-I 0 W/m² -2,9 °C 3,2 km/h (1 Bft)
28.12.2016 05:43 0,3 °C 0,3 °C 79 % 1043,7 hPa 0,0 mm 0,3 km/h (0 Bft) SW 229 ° 0 min 0,000 mm 0,0 UV-I 0 W/m² -2,9 °C 1,6 km/h (1 Bft)
28.12.2016 05:44 0,3 °C 0,3 °C 79 % 1043,7 hPa 0,0 mm 1,9 km/h (1 Bft) SW 229 ° 0 min 0,000 mm 0,0 UV-I 0 W/m² -2,9 °C 3,2 km/h (1 Bft)
28.12.2016 05:45 0,2 °C 0,3 °C 78 % 1043,7 hPa 0,0 mm 1,6 km/h (1 Bft) SW 229 ° 0 min 0,000 mm 0,0 UV-I 0 W/m² -3,2 °C 3,2 km/h (1 Bft)
28.12.2016 05:46 0,2 °C 0,3 °C 78 % 1043,7 hPa 0,0 mm 4,4 km/h (1 Bft) S 180 ° 0 min 0,000 mm 0,0 UV-I 0 W/m² -3,2 °C 8,0 km/h (2 Bft)
28.12.2016 05:47 0,2 °C 0,2 °C 78 % 1043,5 hPa 0,0 mm 4,5 km/h (1 Bft) S-SW 196 ° 0 min 0,000 mm 0,0 UV-I 0 W/m² -3,2 °C 6,4 km/h (2 Bft)
28.12.2016 05:48 0,2 °C 0,2 °C 78 % 1043,7 hPa 0,0 mm 6,2 km/h (2 Bft) S-SW 211 ° 0 min 0,000 mm 0,0 UV-I 0 W/m² -3,2 °C 8,0 km/h (2 Bft)
28.12.2016 05:49 0,2 °C 0,2 °C 78 % 1043,6 hPa 0,0 mm 4,7 km/h (1 Bft) S 172 ° 0 min 0,000 mm 0,0 UV-I 0 W/m² -3,2 °C 8,0 km/h (2 Bft)
28.12.2016 05:50 0,2 °C 0,2 °C 79 % 1043,7 hPa 0,0 mm 3,8 km/h (1 Bft) S 175 ° 0 min 0,000 mm 0,0 UV-I 0 W/m² -3,0 °C 8,0 km/h (2 Bft)
28.12.2016 05:51 0,2 °C 0,2 °C 79 % 1043,7 hPa 0,0 mm 4,2 km/h (1 Bft) S-SW 194 ° 0 min 0,000 mm 0,0 UV-I 0 W/m² -3,0 °C 8,0 km/h (2 Bft)
28.12.2016 05:52 0,1 °C 0,2 °C 79 % 1043,7 hPa 0,0 mm 4,7 km/h (1 Bft) S-SW 206 ° 0 min 0,000 mm 0,0 UV-I 0 W/m² -3,1 °C 8,0 km/h (2 Bft)
28.12.2016 05:53 0,1 °C 0,1 °C 79 % 1043,7 hPa 0,0 mm 3,8 km/h (1 Bft) S-SW 211 ° 0 min 0,000 mm 0,0 UV-I 0 W/m² -3,1 °C 6,4 km/h (2 Bft)
28.12.2016 05:54 0,1 °C 0,1 °C 79 % 1043,6 hPa 0,0 mm 2,1 km/h (1 Bft) S-SW 211 ° 0 min 0,000 mm 0,0 UV-I 0 W/m² -3,1 °C 3,2 km/h (1 Bft)
28.12.2016 05:55 0,1 °C 0,1 °C 79 % 1043,6 hPa 0,0 mm 1,3 km/h (1 Bft) S-SW 211 ° 0 min 0,000 mm 0,0 UV-I 0 W/m² -3,1 °C 3,2 km/h (1 Bft)
28.12.2016 05:56 0,1 °C 0,1 °C 79 % 1043,7 hPa 0,0 mm 1,2 km/h (1 Bft) S-SW 211 ° 0 min 0,000 mm 0,0 UV-I 0 W/m² -3,1 °C 3,2 km/h (1 Bft)
28.12.2016 05:57 0,1 °C 0,1 °C 79 % 1043,7 hPa 0,0 mm 0,0 km/h (0 Bft) S-SW 211 ° 0 min 0,000 mm 0,0 UV-I 0 W/m² -3,1 °C 0,0 km/h (0 Bft)
28.12.2016 05:58 0,1 °C 0,1 °C 79 % 1043,7 hPa 0,0 mm 0,4 km/h (0 Bft) S-SW 211 ° 0 min 0,000 mm 0,0 UV-I 0 W/m² -3,1 °C 1,6 km/h (1 Bft)
28.12.2016 05:59 0,1 °C 0,1 °C 79 % 1043,7 hPa 0,0 mm 0,9 km/h (0 Bft) S-SW 211 ° 0 min 0,000 mm 0,0 UV-I 0 W/m² -3,1 °C 3,2 km/h (1 Bft)
28.12.2016 06:00 0,1 °C 0,1 °C 79 % 1043,7 hPa 0,0 mm 1,7 km/h (1 Bft) S-SW 211 ° 0 min 0,000 mm 0,0 UV-I 0 W/m² -3,1 °C 3,2 km/h (1 Bft)
28.12.2016 06:01 0,0 °C 0,1 °C 79 % 1043,6 hPa 0,0 mm 1,2 km/h (1 Bft) S-SW 211 ° 0 min 0,025 mm 0,0 UV-I 0 W/m² -3,2 °C 3,2 km/h (1 Bft)
28.12.2016 06:02 0,0 °C 0,0 °C 79 % 1043,6 hPa 0,0 mm 1,0 km/h (0 Bft) S-SW 211 ° 0 min 0,000 mm 0,0 UV-I 0 W/m² -3,2 °C 3,2 km/h (1 Bft)
28.12.2016 06:03 -0,1 °C 0,0 °C 79 % 1043,6 hPa 0,0 mm 2,8 km/h (1 Bft) S-SW 211 ° 0 min 0,000 mm 0,0 UV-I 0 W/m² -3,3 °C 3,2 km/h (1 Bft)
28.12.2016 06:04 -0,1 °C -0,1 °C 79 % 1043,6 hPa 0,0 mm 2,7 km/h (1 Bft) S-SW 211 ° 0 min 0,000 mm 0,0 UV-I 0 W/m² -3,3 °C 4,8 km/h (1 Bft)
28.12.2016 06:05 -0,2 °C -0,1 °C 79 % 1043,5 hPa 0,0 mm 2,6 km/h (1 Bft) S-SW 211 ° 0 min 0,000 mm 0,0 UV-I 0 W/m² -3,4 °C 3,2 km/h (1 Bft)
28.12.2016 06:06 -0,2 °C -0,2 °C 79 % 1043,5 hPa 0,0 mm 3,9 km/h (1 Bft) S-SW 211 ° 0 min 0,000 mm 0,0 UV-I 0 W/m² -3,4 °C 4,8 km/h (1 Bft)
28.12.2016 06:07 -0,3 °C -0,2 °C 79 % 1043,5 hPa 0,0 mm 1,3 km/h (1 Bft) S-SW 211 ° 0 min 0,000 mm 0,0 UV-I 0 W/m² -3,5 °C 3,2 km/h (1 Bft)
28.12.2016 06:08 -0,3 °C -0,3 °C 79 % 1043,4 hPa 0,0 mm 3,6 km/h (1 Bft) S-SW 211 ° 0 min 0,000 mm 0,0 UV-I 0 W/m² -3,5 °C 6,4 km/h (2 Bft)
28.12.2016 06:09 -0,4 °C -0,3 °C 79 % 1043,5 hPa 0,0 mm 5,6 km/h (1 Bft) S-SW 202 ° 0 min 0,000 mm 0,0 UV-I 0 W/m² -3,6 °C 6,4 km/h (2 Bft)
28.12.2016 06:10 -0,4 °C -0,4 °C 80 % 1043,5 hPa 0,0 mm 4,9 km/h (1 Bft) S-SW 200 ° 0 min 0,000 mm 0,0 UV-I 0 W/m² -3,4 °C 6,4 km/h (2 Bft)
28.12.2016 06:11 -0,4 °C -0,4 °C 80 % 1043,4 hPa 0,0 mm 4,4 km/h (1 Bft) S-SW 200 ° 0 min 0,000 mm 0,0 UV-I 0 W/m² -3,4 °C 6,4 km/h (2 Bft)
28.12.2016 06:12 -0,5 °C -0,4 °C 80 % 1043,5 hPa 0,0 mm 2,8 km/h (1 Bft) S-SW 212 ° 0 min 0,000 mm 0,0 UV-I 0 W/m² -3,5 °C 4,8 km/h (1 Bft)
28.12.2016 06:13 -0,6 °C -0,5 °C 80 % 1043,5 hPa 0,0 mm 4,0 km/h (1 Bft) S-SW 202 ° 0 min 0,000 mm 0,0 UV-I 0 W/m² -3,6 °C 6,4 km/h (2 Bft)
28.12.2016 06:14 -0,6 °C -0,5 °C 80 % 1043,5 hPa 0,0 mm 3,4 km/h (1 Bft) S 175 ° 0 min 0,000 mm 0,0 UV-I 0 W/m² -3,6 °C 6,4 km/h (2 Bft)
28.12.2016 06:15 -0,6 °C -0,6 °C 80 % 1043,5 hPa 0,0 mm 0,7 km/h (0 Bft) S 175 ° 0 min 0,000 mm 0,0 UV-I 0 W/m² -3,6 °C 1,6 km/h (1 Bft)
28.12.2016 06:16 -0,6 °C -0,6 °C 81 % 1043,5 hPa 0,0 mm 1,0 km/h (0 Bft) S 175 ° 0 min 0,000 mm 0,0 UV-I 0 W/m² -3,4 °C 1,6 km/h (1 Bft)
28.12.2016 06:17 -0,7 °C -0,6 °C 81 % 1043,6 hPa 0,0 mm 0,6 km/h (0 Bft) S 175 ° 0 min 0,000 mm 0,0 UV-I 0 W/m² -3,5 °C 1,6 km/h (1 Bft)
28.12.2016 06:18 -0,7 °C -0,7 °C 80 % 1043,5 hPa 0,0 mm 4,8 km/h (1 Bft) S-SW 196 ° 0 min 0,000 mm 0,0 UV-I 0 W/m² -3,7 °C 6,4 km/h (2 Bft)
28.12.2016 06:19 -0,7 °C -0,7 °C 81 % 1043,6 hPa 0,0 mm 3,6 km/h (1 Bft) S-SW 201 ° 0 min 0,000 mm 0,0 UV-I 0 W/m² -3,5 °C 4,8 km/h (1 Bft)
28.12.2016 06:20 -0,7 °C -0,7 °C 81 % 1043,6 hPa 0,0 mm 1,5 km/h (1 Bft) S-SW 201 ° 0 min 0,000 mm 0,0 UV-I 0 W/m² -3,5 °C 3,2 km/h (1 Bft)
28.12.2016 06:21 -0,7 °C -0,7 °C 81 % 1043,6 hPa 0,0 mm 1,7 km/h (1 Bft) S-SW 201 ° 0 min 0,000 mm 0,0 UV-I 0 W/m² -3,5 °C 3,2 km/h (1 Bft)
28.12.2016 06:22 -0,8 °C -0,7 °C 81 % 1043,6 hPa 0,0 mm 1,7 km/h (1 Bft) S-SW 201 ° 0 min 0,000 mm 0,0 UV-I 0 W/m² -3,6 °C 3,2 km/h (1 Bft)
28.12.2016 06:23 -0,8 °C -0,8 °C 81 % 1043,6 hPa 0,0 mm 1,4 km/h (1 Bft) S-SW 201 ° 0 min 0,000 mm 0,0 UV-I 0 W/m² -3,6 °C 1,6 km/h (1 Bft)
28.12.2016 06:24 -0,8 °C -0,8 °C 81 % 1043,6 hPa 0,0 mm 1,5 km/h (1 Bft) S-SW 201 ° 0 min 0,000 mm 0,0 UV-I 0 W/m² -3,6 °C 3,2 km/h (1 Bft)
28.12.2016 06:25 -0,8 °C -0,8 °C 81 % 1043,6 hPa 0,0 mm 1,4 km/h (1 Bft) S-SW 201 ° 0 min 0,000 mm 0,0 UV-I 0 W/m² -3,6 °C 3,2 km/h (1 Bft)
28.12.2016 06:26 -0,8 °C -0,8 °C 81 % 1043,6 hPa 0,0 mm 1,4 km/h (1 Bft) S-SW 201 ° 0 min 0,000 mm 0,0 UV-I 0 W/m² -3,6 °C 3,2 km/h (1 Bft)
28.12.2016 06:27 -0,9 °C -0,8 °C 81 % 1043,6 hPa 0,0 mm 1,4 km/h (1 Bft) S-SW 201 ° 0 min 0,000 mm 0,0 UV-I 0 W/m² -3,7 °C 3,2 km/h (1 Bft)
28.12.2016 06:28 -0,9 °C -0,8 °C 81 % 1043,5 hPa 0,0 mm 0,9 km/h (0 Bft) S-SW 201 ° 0 min 0,000 mm 0,0 UV-I 0 W/m² -3,7 °C 3,2 km/h (1 Bft)
28.12.2016 06:29 -0,9 °C -0,9 °C 81 % 1043,5 hPa 0,0 mm 1,9 km/h (1 Bft) S-SW 201 ° 0 min 0,000 mm 0,0 UV-I 0 W/m² -3,7 °C 3,2 km/h (1 Bft)
28.12.2016 06:30 -0,9 °C -0,9 °C 81 % 1043,5 hPa 0,0 mm 0,7 km/h (0 Bft) S-SW 201 ° 0 min 0,000 mm 0,0 UV-I 0 W/m² -3,7 °C 1,6 km/h (1 Bft)
28.12.2016 06:31 -0,9 °C -0,9 °C 81 % 1043,4 hPa 0,0 mm 1,3 km/h (1 Bft) S-SW 201 ° 0 min 0,000 mm 0,0 UV-I 0 W/m² -3,7 °C 3,2 km/h (1 Bft)
28.12.2016 06:32 -0,9 °C -0,9 °C 81 % 1043,4 hPa 0,0 mm 0,3 km/h (0 Bft) S-SW 201 ° 0 min 0,000 mm 0,0 UV-I 0 W/m² -3,7 °C 1,6 km/h (1 Bft)
28.12.2016 06:33 -0,9 °C -0,9 °C 81 % 1043,4 hPa 0,0 mm 0,7 km/h (0 Bft) S-SW 201 ° 0 min 0,000 mm 0,0 UV-I 0 W/m² -3,7 °C 1,6 km/h (1 Bft)
28.12.2016 06:34 -0,9 °C -0,9 °C 81 % 1043,4 hPa 0,0 mm 0,1 km/h (0 Bft) S-SW 201 ° 0 min 0,000 mm 0,0 UV-I 0 W/m² -3,7 °C 1,6 km/h (1 Bft)
28.12.2016 06:35 -0,9 °C -0,9 °C 81 % 1043,4 hPa 0,0 mm 0,0 km/h (0 Bft) S-SW 201 ° 0 min 0,000 mm 0,0 UV-I 0 W/m² -3,7 °C 0,0 km/h (0 Bft)
28.12.2016 06:36 -0,9 °C -0,9 °C 81 % 1043,4 hPa 0,0 mm 0,5 km/h (0 Bft) S-SW 201 ° 0 min 0,000 mm 0,0 UV-I 0 W/m² -3,7 °C 1,6 km/h (1 Bft)
28.12.2016 06:37 -1,0 °C -0,9 °C 81 % 1043,4 hPa 0,0 mm 0,7 km/h (0 Bft) S-SW 201 ° 0 min 0,000 mm 0,0 UV-I 0 W/m² -3,8 °C 1,6 km/h (1 Bft)
28.12.2016 06:38 -1,0 °C -0,9 °C 81 % 1043,5 hPa 0,0 mm 0,9 km/h (0 Bft) S-SW 201 ° 0 min 0,000 mm 0,0 UV-I 0 W/m² -3,8 °C 1,6 km/h (1 Bft)
28.12.2016 06:39 -1,1 °C -1,0 °C 81 % 1043,5 hPa 0,0 mm 0,3 km/h (0 Bft) S-SW 201 ° 0 min 0,000 mm 0,0 UV-I 0 W/m² -3,9 °C 1,6 km/h (1 Bft)
28.12.2016 06:40 -1,1 °C -1,1 °C 81 % 1043,4 hPa 0,0 mm 0,0 km/h (0 Bft) S-SW 201 ° 0 min 0,000 mm 0,0 UV-I 0 W/m² -3,9 °C 0,0 km/h (0 Bft)
28.12.2016 06:41 -1,1 °C -1,1 °C 81 % 1043,5 hPa 0,0 mm 0,0 km/h (0 Bft) S-SW 201 ° 0 min 0,000 mm 0,0 UV-I 0 W/m² -3,9 °C 0,0 km/h (0 Bft)
28.12.2016 06:42 -1,1 °C -1,1 °C 81 % 1043,4 hPa 0,0 mm 1,2 km/h (1 Bft) S-SW 201 ° 0 min 0,000 mm 0,0 UV-I 0 W/m² -3,9 °C 1,6 km/h (1 Bft)
28.12.2016 06:43 -1,1 °C -1,1 °C 81 % 1043,4 hPa 0,0 mm 1,9 km/h (1 Bft) S-SW 201 ° 0 min 0,000 mm 0,0 UV-I 0 W/m² -3,9 °C 3,2 km/h (1 Bft)
28.12.2016 06:44 -1,1 °C -1,1 °C 81 % 1043,4 hPa 0,0 mm 1,7 km/h (1 Bft) S-SW 201 ° 0 min 0,000 mm 0,0 UV-I 0 W/m² -3,9 °C 3,2 km/h (1 Bft)
28.12.2016 06:45 -1,2 °C -1,1 °C 82 % 1043,4 hPa 0,0 mm 1,8 km/h (1 Bft) S-SW 201 ° 0 min 0,000 mm 0,0 UV-I 0 W/m² -3,9 °C 3,2 km/h (1 Bft)
28.12.2016 06:46 -1,2 °C -1,2 °C 82 % 1043,4 hPa 0,0 mm 2,1 km/h (1 Bft) S-SW 201 ° 0 min 0,000 mm 0,0 UV-I 0 W/m² -3,9 °C 3,2 km/h (1 Bft)
28.12.2016 06:47 -1,2 °C -1,2 °C 82 % 1043,4 hPa 0,0 mm 1,2 km/h (1 Bft) S-SW 201 ° 0 min 0,000 mm 0,0 UV-I 0 W/m² -3,9 °C 3,2 km/h (1 Bft)
28.12.2016 06:48 -1,2 °C -1,2 °C 82 % 1043,4 hPa 0,0 mm 0,8 km/h (0 Bft) S-SW 201 ° 0 min 0,000 mm 0,0 UV-I 0 W/m² -3,9 °C 1,6 km/h (1 Bft)
28.12.2016 06:49 -1,2 °C -1,2 °C 82 % 1043,4 hPa 0,0 mm 1,1 km/h (1 Bft) S-SW 201 ° 0 min 0,000 mm 0,0 UV-I 0 W/m² -3,9 °C 1,6 km/h (1 Bft)
28.12.2016 06:50 -1,3 °C -1,2 °C 82 % 1043,5 hPa 0,0 mm 0,9 km/h (0 Bft) S-SW 201 ° 0 min 0,000 mm 0,0 UV-I 0 W/m² -4,0 °C 1,6 km/h (1 Bft)
28.12.2016 06:51 -1,3 °C -1,3 °C 82 % 1043,5 hPa 0,0 mm 0,2 km/h (0 Bft) S-SW 201 ° 0 min 0,000 mm 0,0 UV-I 0 W/m² -4,0 °C 1,6 km/h (1 Bft)
28.12.2016 06:52 -1,3 °C -1,3 °C 82 % 1043,6 hPa 0,0 mm 0,0 km/h (0 Bft) S-SW 201 ° 0 min 0,000 mm 0,0 UV-I 0 W/m² -4,0 °C 0,0 km/h (0 Bft)
28.12.2016 06:53 -1,3 °C -1,3 °C 82 % 1043,7 hPa 0,0 mm 0,5 km/h (0 Bft) S-SW 201 ° 0 min 0,000 mm 0,0 UV-I 0 W/m² -4,0 °C 1,6 km/h (1 Bft)
28.12.2016 06:54 -1,4 °C -1,3 °C 82 % 1043,7 hPa 0,0 mm 0,5 km/h (0 Bft) S-SW 201 ° 0 min 0,000 mm 0,0 UV-I 0 W/m² -4,1 °C 1,6 km/h (1 Bft)
28.12.2016 06:55 -1,4 °C -1,4 °C 82 % 1043,8 hPa 0,0 mm 0,9 km/h (0 Bft) S-SW 201 ° 0 min 0,000 mm 0,0 UV-I 0 W/m² -4,1 °C 1,6 km/h (1 Bft)
28.12.2016 06:56 -1,4 °C -1,4 °C 83 % 1043,7 hPa 0,0 mm 0,8 km/h (0 Bft) S-SW 201 ° 0 min 0,000 mm 0,0 UV-I 0 W/m² -3,9 °C 1,6 km/h (1 Bft)
28.12.2016 06:57 -1,4 °C -1,4 °C 83 % 1043,7 hPa 0,0 mm 0,7 km/h (0 Bft) S-SW 201 ° 0 min 0,000 mm 0,0 UV-I 0 W/m² -3,9 °C 1,6 km/h (1 Bft)
28.12.2016 06:58 -1,4 °C -1,4 °C 83 % 1043,7 hPa 0,0 mm 0,1 km/h (0 Bft) S-SW 201 ° 0 min 0,000 mm 0,0 UV-I 0 W/m² -3,9 °C 1,6 km/h (1 Bft)
28.12.2016 06:59 -1,4 °C -1,4 °C 83 % 1043,7 hPa 0,0 mm 0,0 km/h (0 Bft) S-SW 201 ° 0 min 0,000 mm 0,0 UV-I 0 W/m² -3,9 °C 0,0 km/h (0 Bft)
28.12.2016 07:00 -1,5 °C -1,4 °C 83 % 1043,8 hPa 0,0 mm 0,0 km/h (0 Bft) S-SW 201 ° 0 min 0,000 mm 0,0 UV-I 0 W/m² -4,0 °C 0,0 km/h (0 Bft)
28.12.2016 07:01 -1,5 °C -1,5 °C 84 % 1043,8 hPa 0,0 mm 0,0 km/h (0 Bft) S-SW 201 ° 0 min 0,000 mm 0,0 UV-I 0 W/m² -3,8 °C 0,0 km/h (0 Bft)
28.12.2016 07:02 -1,6 °C -1,5 °C 84 % 1043,8 hPa 0,0 mm 0,1 km/h (0 Bft) S-SW 201 ° 0 min 0,000 mm 0,0 UV-I 0 W/m² -3,9 °C 1,6 km/h (1 Bft)
28.12.2016 07:03 -1,6 °C -1,6 °C 83 % 1043,8 hPa 0,0 mm 0,0 km/h (0 Bft) S-SW 201 ° 0 min 0,000 mm 0,0 UV-I 0 W/m² -4,1 °C 0,0 km/h (0 Bft)
28.12.2016 07:04 -1,6 °C -1,6 °C 83 % 1043,8 hPa 0,0 mm 0,0 km/h (0 Bft) S-SW 201 ° 0 min 0,000 mm 0,0 UV-I 0 W/m² -4,1 °C 0,0 km/h (0 Bft)
28.12.2016 07:05 -1,7 °C -1,6 °C 83 % 1043,8 hPa 0,0 mm 0,0 km/h (0 Bft) S-SW 201 ° 0 min 0,000 mm 0,0 UV-I 0 W/m² -4,2 °C 0,0 km/h (0 Bft)
28.12.2016 07:06 -1,7 °C -1,6 °C 83 % 1043,8 hPa 0,0 mm 0,0 km/h (0 Bft) S-SW 201 ° 0 min 0,000 mm 0,0 UV-I 0 W/m² -4,2 °C 0,0 km/h (0 Bft)
28.12.2016 07:07 -1,7 °C -1,7 °C 83 % 1043,9 hPa 0,0 mm 1,1 km/h (1 Bft) S-SW 201 ° 0 min 0,000 mm 0,0 UV-I 0 W/m² -4,2 °C 1,6 km/h (1 Bft)
28.12.2016 07:08 -1,7 °C -1,7 °C 84 % 1043,9 hPa 0,0 mm 0,9 km/h (0 Bft) S-SW 201 ° 0 min 0,000 mm 0,0 UV-I 0 W/m² -4,0 °C 1,6 km/h (1 Bft)
28.12.2016 07:09 -1,7 °C -1,7 °C 84 % 1043,9 hPa 0,0 mm 2,1 km/h (1 Bft) S-SW 201 ° 0 min 0,000 mm 0,0 UV-I 0 W/m² -4,0 °C 4,8 km/h (1 Bft)
28.12.2016 07:10 -1,7 °C -1,7 °C 84 % 1043,9 hPa 0,0 mm 2,0 km/h (1 Bft) S-SW 201 ° 0 min 0,000 mm 0,0 UV-I 0 W/m² -4,0 °C 3,2 km/h (1 Bft)
28.12.2016 07:11 -1,8 °C -1,7 °C 84 % 1043,9 hPa 0,0 mm 2,0 km/h (1 Bft) S-SW 201 ° 0 min 0,000 mm 0,0 UV-I 0 W/m² -4,1 °C 3,2 km/h (1 Bft)
28.12.2016 07:12 -1,8 °C -1,8 °C 84 % 1043,9 hPa 0,0 mm 2,2 km/h (1 Bft) S-SW 201 ° 0 min 0,000 mm 0,0 UV-I 0 W/m² -4,1 °C 3,2 km/h (1 Bft)
28.12.2016 07:13 -1,8 °C -1,8 °C 84 % 1043,9 hPa 0,0 mm 3,9 km/h (1 Bft) S-SW 201 ° 0 min 0,000 mm 0,0 UV-I 0 W/m² -4,1 °C 4,8 km/h (1 Bft)
28.12.2016 07:14 -1,8 °C -1,8 °C 84 % 1043,9 hPa 0,0 mm 2,4 km/h (1 Bft) S-SW 201 ° 0 min 0,000 mm 0,0 UV-I 0 W/m² -4,1 °C 3,2 km/h (1 Bft)
28.12.2016 07:15 -1,9 °C -1,8 °C 84 % 1043,9 hPa 0,0 mm 1,2 km/h (1 Bft) S-SW 201 ° 0 min 0,000 mm 0,0 UV-I 0 W/m² -4,2 °C 3,2 km/h (1 Bft)
28.12.2016 07:16 -1,9 °C -1,8 °C 85 % 1043,9 hPa 0,0 mm 1,6 km/h (1 Bft) S-SW 201 ° 0 min 0,000 mm 0,0 UV-I 0 W/m² -4,1 °C 3,2 km/h (1 Bft)
28.12.2016 07:17 -1,9 °C -1,9 °C 85 % 1043,9 hPa 0,0 mm 0,8 km/h (0 Bft) S-SW 201 ° 0 min 0,000 mm 0,0 UV-I 0 W/m² -4,1 °C 1,6 km/h (1 Bft)
28.12.2016 07:18 -1,9 °C -1,9 °C 85 % 1044,0 hPa 0,0 mm 0,6 km/h (0 Bft) S-SW 201 ° 0 min 0,000 mm 0,0 UV-I 0 W/m² -4,1 °C 1,6 km/h (1 Bft)
28.12.2016 07:19 -1,9 °C -1,9 °C 85 % 1043,9 hPa 0,0 mm 0,7 km/h (0 Bft) S-SW 201 ° 0 min 0,000 mm 0,0 UV-I 0 W/m² -4,1 °C 1,6 km/h (1 Bft)
28.12.2016 07:20 -1,9 °C -1,9 °C 84 % 1044,0 hPa 0,0 mm 0,6 km/h (0 Bft) S-SW 201 ° 0 min 0,000 mm 0,0 UV-I 0 W/m² -4,2 °C 1,6 km/h (1 Bft)
28.12.2016 07:21 -2,0 °C -1,9 °C 84 % 1044,0 hPa 0,0 mm 1,1 km/h (1 Bft) S-SW 201 ° 0 min 0,000 mm 0,0 UV-I 0 W/m² -4,3 °C 1,6 km/h (1 Bft)
28.12.2016 07:22 -2,0 °C -1,9 °C 84 % 1044,0 hPa 0,0 mm 1,1 km/h (1 Bft) S-SW 201 ° 0 min 0,000 mm 0,0 UV-I 0 W/m² -4,3 °C 3,2 km/h (1 Bft)
28.12.2016 07:23 -2,1 °C -2,0 °C 84 % 1044,0 hPa 0,0 mm 0,3 km/h (0 Bft) S-SW 201 ° 0 min 0,000 mm 0,0 UV-I 0 W/m² -4,4 °C 1,6 km/h (1 Bft)
28.12.2016 07:24 -2,1 °C -2,1 °C 84 % 1044,0 hPa 0,0 mm 2,1 km/h (1 Bft) S-SW 201 ° 0 min 0,000 mm 0,0 UV-I 0 W/m² -4,4 °C 3,2 km/h (1 Bft)
28.12.2016 07:25 -2,1 °C -2,1 °C 84 % 1044,0 hPa 0,0 mm 2,5 km/h (1 Bft) S-SW 196 ° 0 min 0,000 mm 0,0 UV-I 0 W/m² -4,4 °C 4,8 km/h (1 Bft)
28.12.2016 07:26 -2,1 °C -2,1 °C 85 % 1044,0 hPa 0,0 mm 2,8 km/h (1 Bft) S-SW 194 ° 0 min 0,000 mm 0,0 UV-I 0 W/m² -4,3 °C 3,2 km/h (1 Bft)
28.12.2016 07:27 -2,1 °C -2,1 °C 85 % 1044,1 hPa 0,0 mm 2,8 km/h (1 Bft) S-SW 194 ° 0 min 0,000 mm 0,0 UV-I 0 W/m² -4,3 °C 3,2 km/h (1 Bft)
28.12.2016 07:28 -2,1 °C -2,1 °C 86 % 1044,0 hPa 0,0 mm 4,2 km/h (1 Bft) S-SW 204 ° 0 min 0,000 mm 0,0 UV-I 0 W/m² -4,1 °C 8,0 km/h (2 Bft)
28.12.2016 07:29 -2,2 °C -2,1 °C 86 % 1044,0 hPa 0,0 mm 7,6 km/h (2 Bft) S-SW 206 ° 0 min 0,000 mm 0,0 UV-I 0 W/m² -4,2 °C 9,7 km/h (2 Bft)
28.12.2016 07:30 -2,1 °C -2,1 °C 86 % 1044,0 hPa 0,0 mm 7,8 km/h (2 Bft) S-SW 201 ° 0 min 0,000 mm 0,0 UV-I 0 W/m² -4,1 °C 9,7 km/h (2 Bft)
28.12.2016 07:31 -2,1 °C -2,1 °C 86 % 1044,0 hPa 0,0 mm 4,9 km/h (1 Bft) S-SW 208 ° 0 min 0,000 mm 0,0 UV-I 0 W/m² -4,1 °C 8,0 km/h (2 Bft)
28.12.2016 07:32 -2,1 °C -2,1 °C 86 % 1044,0 hPa 0,0 mm 4,4 km/h (1 Bft) S-SW 213 ° 0 min 0,000 mm 0,0 UV-I 0 W/m² -4,1 °C 6,4 km/h (2 Bft)
28.12.2016 07:33 -2,1 °C -2,1 °C 86 % 1044,0 hPa 0,0 mm 7,8 km/h (2 Bft) S-SW 205 ° 0 min 0,000 mm 0,0 UV-I 0 W/m² -4,1 °C 9,7 km/h (2 Bft)
28.12.2016 07:34 -2,1 °C -2,1 °C 87 % 1044,0 hPa 0,0 mm 7,3 km/h (2 Bft) SW 217 ° 0 min 0,000 mm 0,0 UV-I 0 W/m² -4,0 °C 11,3 km/h (2 Bft)
28.12.2016 07:35 -2,0 °C -2,0 °C 87 % 1043,9 hPa 0,0 mm 6,8 km/h (2 Bft) S-SW 213 ° 0 min 0,000 mm 0,0 UV-I 0 W/m² -3,9 °C 9,7 km/h (2 Bft)
28.12.2016 07:36 -1,9 °C -1,9 °C 87 % 1043,9 hPa 0,0 mm 9,0 km/h (2 Bft) SW 217 ° 0 min 0,000 mm 0,0 UV-I 0 W/m² -3,8 °C 14,5 km/h (3 Bft)
28.12.2016 07:37 -1,8 °C -1,8 °C 86 % 1043,8 hPa 0,0 mm 7,8 km/h (2 Bft) SW 220 ° 0 min 0,000 mm 0,0 UV-I 0 W/m² -3,8 °C 11,3 km/h (2 Bft)
28.12.2016 07:38 -1,8 °C -1,8 °C 86 % 1043,9 hPa 0,0 mm 8,2 km/h (2 Bft) S 186 ° 0 min 0,000 mm 0,0 UV-I 0 W/m² -3,8 °C 9,7 km/h (2 Bft)
28.12.2016 07:39 -1,7 °C -1,7 °C 86 % 1043,9 hPa 0,0 mm 7,2 km/h (2 Bft) S-SW 204 ° 0 min 0,000 mm 0,0 UV-I 0 W/m² -3,7 °C 9,7 km/h (2 Bft)
28.12.2016 07:40 -1,7 °C -1,6 °C 86 % 1043,9 hPa 0,0 mm 6,5 km/h (2 Bft) S-SW 192 ° 0 min 0,000 mm 0,0 UV-I 0 W/m² -3,7 °C 11,3 km/h (2 Bft)
28.12.2016 07:41 -1,6 °C -1,6 °C 86 % 1043,9 hPa 0,0 mm 5,6 km/h (1 Bft) S-SW 208 ° 0 min 0,000 mm 0,0 UV-I 0 W/m² -3,6 °C 9,7 km/h (2 Bft)
28.12.2016 07:42 -1,6 °C -1,6 °C 85 % 1043,9 hPa 0,0 mm 5,5 km/h (1 Bft) S-SW 200 ° 0 min 0,000 mm 0,0 UV-I 0 W/m² -3,8 °C 8,0 km/h (2 Bft)
28.12.2016 07:43 -1,6 °C -1,6 °C 85 % 1043,9 hPa 0,0 mm 4,8 km/h (1 Bft) S-SO 168 ° 0 min 0,000 mm 0,0 UV-I 0 W/m² -3,8 °C 9,7 km/h (2 Bft)
28.12.2016 07:44 -1,5 °C -1,5 °C 85 % 1043,9 hPa 0,0 mm 5,5 km/h (1 Bft) S-SW 195 ° 0 min 0,000 mm 0,0 UV-I 0 W/m² -3,7 °C 9,7 km/h (2 Bft)
28.12.2016 07:45 -1,5 °C -1,5 °C 85 % 1043,9 hPa 0,0 mm 6,2 km/h (2 Bft) S-SW 196 ° 0 min 0,000 mm 0,0 UV-I 0 W/m² -3,7 °C 8,0 km/h (2 Bft)
28.12.2016 07:46 -1,5 °C -1,5 °C 85 % 1043,9 hPa 0,0 mm 4,7 km/h (1 Bft) S-SW 205 ° 0 min 0,000 mm 0,0 UV-I 0 W/m² -3,7 °C 8,0 km/h (2 Bft)
28.12.2016 07:47 -1,5 °C -1,4 °C 85 % 1043,9 hPa 0,0 mm 6,1 km/h (2 Bft) S-SW 202 ° 0 min 0,000 mm 0,0 UV-I 0 W/m² -3,7 °C 8,0 km/h (2 Bft)
28.12.2016 07:48 -1,4 °C -1,4 °C 84 % 1043,9 hPa 0,0 mm 4,0 km/h (1 Bft) S 169 ° 0 min 0,000 mm 0,0 UV-I 0 W/m² -3,7 °C 8,0 km/h (2 Bft)
28.12.2016 07:49 -1,4 °C -1,4 °C 84 % 1043,9 hPa 0,0 mm 2,5 km/h (1 Bft) S 169 ° 0 min 0,000 mm 0,0 UV-I 0 W/m² -3,7 °C 6,4 km/h (2 Bft)
28.12.2016 07:50 -1,4 °C -1,4 °C 84 % 1044,0 hPa 0,0 mm 3,8 km/h (1 Bft) SW 216 ° 0 min 0,000 mm 0,0 UV-I 0 W/m² -3,7 °C 6,4 km/h (2 Bft)
28.12.2016 07:51 -1,4 °C -1,4 °C 84 % 1043,9 hPa 0,0 mm 7,6 km/h (2 Bft) S-SW 211 ° 0 min 0,000 mm 0,0 UV-I 0 W/m² -3,7 °C 12,9 km/h (3 Bft)
28.12.2016 07:52 -1,4 °C -1,4 °C 84 % 1044,0 hPa 0,0 mm 8,8 km/h (2 Bft) S 181 ° 0 min 0,000 mm 0,0 UV-I 0 W/m² -3,7 °C 11,3 km/h (2 Bft)
28.12.2016 07:53 -1,4 °C -1,4 °C 84 % 1043,9 hPa 0,0 mm 9,0 km/h (2 Bft) S-SW 207 ° 0 min 0,000 mm 0,0 UV-I 0 W/m² -3,7 °C 11,3 km/h (2 Bft)
28.12.2016 07:54 -1,4 °C -1,4 °C 84 % 1043,9 hPa 0,0 mm 9,6 km/h (2 Bft) SW 215 ° 0 min 0,000 mm 0,0 UV-I 0 W/m² -3,7 °C 12,9 km/h (3 Bft)
28.12.2016 07:55 -1,4 °C -1,4 °C 84 % 1043,9 hPa 0,0 mm 7,9 km/h (2 Bft) S-SW 200 ° 0 min 0,000 mm 0,0 UV-I 0 W/m² -3,7 °C 9,7 km/h (2 Bft)
28.12.2016 07:56 -1,4 °C -1,4 °C 84 % 1043,9 hPa 0,0 mm 6,7 km/h (2 Bft) S-SW 193 ° 0 min 0,000 mm 0,0 UV-I 0 W/m² -3,7 °C 9,7 km/h (2 Bft)
28.12.2016 07:57 -1,4 °C -1,4 °C 84 % 1043,8 hPa 0,0 mm 8,2 km/h (2 Bft) S-SW 209 ° 0 min 0,000 mm 0,0 UV-I 0 W/m² -3,7 °C 11,3 km/h (2 Bft)
28.12.2016 07:58 -1,4 °C -1,4 °C 84 % 1043,9 hPa 0,0 mm 5,4 km/h (1 Bft) S 169 ° 0 min 0,000 mm 0,0 UV-I 0 W/m² -3,7 °C 8,0 km/h (2 Bft)
28.12.2016 07:59 -1,4 °C -1,4 °C 84 % 1044,0 hPa 0,0 mm 4,7 km/h (1 Bft) S-SO 165 ° 0 min 0,000 mm 0,0 UV-I 0 W/m² -3,7 °C 6,4 km/h (2 Bft)
28.12.2016 08:00 -1,4 °C -1,4 °C 84 % 1044,0 hPa 0,0 mm 3,0 km/h (1 Bft) S-SO 165 ° 0 min 0,000 mm 0,0 UV-I 0 W/m² -3,7 °C 6,4 km/h (2 Bft)
28.12.2016 08:01 -1,4 °C -1,4 °C 84 % 1044,0 hPa 0,0 mm 4,3 km/h (1 Bft) S-SW 194 ° 0 min 0,000 mm 0,0 UV-I 0 W/m² -3,7 °C 6,4 km/h (2 Bft)
28.12.2016 08:02 -1,4 °C -1,4 °C 84 % 1044,1 hPa 0,0 mm 3,7 km/h (1 Bft) S-SW 194 ° 0 min 0,000 mm 0,0 UV-I 0 W/m² -3,7 °C 6,4 km/h (2 Bft)
28.12.2016 08:03 -1,4 °C -1,4 °C 84 % 1044,1 hPa 0,0 mm 3,6 km/h (1 Bft) SW 217 ° 0 min 0,000 mm 0,0 UV-I 0 W/m² -3,7 °C 4,8 km/h (1 Bft)
28.12.2016 08:04 -1,4 °C -1,4 °C 85 % 1044,0 hPa 0,0 mm 3,9 km/h (1 Bft) S-SW 196 ° 0 min 0,000 mm 0,0 UV-I 0 W/m² -3,6 °C 6,4 km/h (2 Bft)
28.12.2016 08:05 -1,4 °C -1,4 °C 85 % 1044,0 hPa 0,0 mm 4,7 km/h (1 Bft) S-SW 200 ° 0 min 0,000 mm 0,0 UV-I 0 W/m² -3,6 °C 8,0 km/h (2 Bft)
28.12.2016 08:06 -1,4 °C -1,4 °C 85 % 1044,1 hPa 0,0 mm 2,9 km/h (1 Bft) S-SW 200 ° 0 min 0,000 mm 0,0 UV-I 0 W/m² -3,6 °C 3,2 km/h (1 Bft)
28.12.2016 08:07 -1,4 °C -1,4 °C 84 % 1044,1 hPa 0,0 mm 3,7 km/h (1 Bft) S-SW 195 ° 0 min 0,000 mm 0,0 UV-I 0 W/m² -3,7 °C 4,8 km/h (1 Bft)
28.12.2016 08:08 -1,4 °C -1,4 °C 84 % 1044,1 hPa 0,0 mm 3,6 km/h (1 Bft) S 186 ° 0 min 0,000 mm 0,0 UV-I 0 W/m² -3,7 °C 4,8 km/h (1 Bft)
28.12.2016 08:09 -1,4 °C -1,4 °C 85 % 1044,1 hPa 0,0 mm 5,4 km/h (1 Bft) S 171 ° 0 min 0,000 mm 0,0 UV-I 5 W/m² -3,6 °C 9,7 km/h (2 Bft)
28.12.2016 08:10 -1,4 °C -1,4 °C 84 % 1044,1 hPa 0,0 mm 5,6 km/h (1 Bft) S 188 ° 0 min 0,000 mm 0,0 UV-I 5 W/m² -3,7 °C 8,0 km/h (2 Bft)
28.12.2016 08:11 -1,4 °C -1,4 °C 84 % 1044,1 hPa 0,0 mm 5,5 km/h (1 Bft) S 186 ° 0 min 0,000 mm 0,0 UV-I 5 W/m² -3,7 °C 6,4 km/h (2 Bft)
28.12.2016 08:12 -1,4 °C -1,4 °C 84 % 1044,1 hPa 0,0 mm 6,7 km/h (2 Bft) S-SW 202 ° 0 min 0,000 mm 0,0 UV-I 7 W/m² -3,7 °C 9,7 km/h (2 Bft)
28.12.2016 08:13 -1,4 °C -1,4 °C 84 % 1044,1 hPa 0,0 mm 5,9 km/h (2 Bft) S 190 ° 0 min 0,000 mm 0,0 UV-I 7 W/m² -3,7 °C 8,0 km/h (2 Bft)
28.12.2016 08:14 -1,4 °C -1,4 °C 85 % 1044,1 hPa 0,0 mm 4,8 km/h (1 Bft) S-SW 198 ° 0 min 0,000 mm 0,0 UV-I 7 W/m² -3,6 °C 6,4 km/h (2 Bft)
28.12.2016 08:15 -1,4 °C -1,4 °C 85 % 1044,1 hPa 0,0 mm 7,4 km/h (2 Bft) S-SW 192 ° 0 min 0,000 mm 0,0 UV-I 9 W/m² -3,6 °C 11,3 km/h (2 Bft)
28.12.2016 08:16 -1,4 °C -1,4 °C 85 % 1044,1 hPa 0,0 mm 5,4 km/h (1 Bft) S-SW 212 ° 0 min 0,000 mm 0,0 UV-I 9 W/m² -3,6 °C 8,0 km/h (2 Bft)
28.12.2016 08:17 -1,4 °C -1,4 °C 85 % 1044,1 hPa 0,0 mm 8,3 km/h (2 Bft) S-SW 198 ° 0 min 0,000 mm 0,0 UV-I 9 W/m² -3,6 °C 11,3 km/h (2 Bft)
28.12.2016 08:18 -1,4 °C -1,4 °C 85 % 1044,1 hPa 0,0 mm 9,0 km/h (2 Bft) S-SW 194 ° 0 min 0,000 mm 0,0 UV-I 11 W/m² -3,6 °C 11,3 km/h (2 Bft)
28.12.2016 08:19 -1,4 °C -1,4 °C 85 % 1044,2 hPa 0,0 mm 8,0 km/h (2 Bft) S-SW 196 ° 0 min 0,000 mm 0,0 UV-I 11 W/m² -3,6 °C 11,3 km/h (2 Bft)
28.12.2016 08:20 -1,4 °C -1,4 °C 85 % 1044,2 hPa 0,0 mm 6,8 km/h (2 Bft) S-SW 204 ° 0 min 0,000 mm 0,0 UV-I 11 W/m² -3,6 °C 11,3 km/h (2 Bft)
28.12.2016 08:21 -1,4 °C -1,4 °C 85 % 1044,2 hPa 0,0 mm 8,0 km/h (2 Bft) SW 217 ° 0 min 0,000 mm 0,0 UV-I 12 W/m² -3,6 °C 11,3 km/h (2 Bft)
28.12.2016 08:22 -1,4 °C -1,4 °C 85 % 1044,2 hPa 0,0 mm 7,7 km/h (2 Bft) S-SW 202 ° 0 min 0,000 mm 0,0 UV-I 12 W/m² -3,6 °C 9,7 km/h (2 Bft)
28.12.2016 08:23 -1,4 °C -1,4 °C 85 % 1044,2 hPa 0,0 mm 9,2 km/h (2 Bft) S-SW 196 ° 0 min 0,000 mm 0,0 UV-I 12 W/m² -3,6 °C 12,9 km/h (3 Bft)
28.12.2016 08:24 -1,4 °C -1,4 °C 85 % 1044,2 hPa 0,0 mm 8,1 km/h (2 Bft) S-SW 207 ° 0 min 0,000 mm 0,0 UV-I 14 W/m² -3,6 °C 11,3 km/h (2 Bft)
28.12.2016 08:25 -1,4 °C -1,4 °C 85 % 1044,1 hPa 0,0 mm 8,4 km/h (2 Bft) S 190 ° 0 min 0,000 mm 0,0 UV-I 14 W/m² -3,6 °C 11,3 km/h (2 Bft)
28.12.2016 08:26 -1,3 °C -1,3 °C 85 % 1044,2 hPa 0,0 mm 11,9 km/h (2 Bft) S-SW 196 ° 0 min 0,000 mm 0,0 UV-I 16 W/m² -3,5 °C 14,5 km/h (3 Bft)
28.12.2016 08:27 -1,3 °C -1,3 °C 85 % 1044,2 hPa 0,0 mm 9,3 km/h (2 Bft) S-SW 192 ° 0 min 0,000 mm 0,0 UV-I 18 W/m² -3,5 °C 12,9 km/h (3 Bft)
28.12.2016 08:28 -1,3 °C -1,3 °C 85 % 1044,1 hPa 0,0 mm 9,4 km/h (2 Bft) S-SW 205 ° 0 min 0,000 mm 0,0 UV-I 18 W/m² -3,5 °C 11,3 km/h (2 Bft)
28.12.2016 08:29 -1,3 °C -1,3 °C 85 % 1044,1 hPa 0,0 mm 7,9 km/h (2 Bft) S 175 ° 0 min 0,000 mm 0,0 UV-I 18 W/m² -3,5 °C 11,3 km/h (2 Bft)
28.12.2016 08:30 -1,3 °C -1,3 °C 85 % 1044,1 hPa 0,0 mm 8,9 km/h (2 Bft) S 190 ° 0 min 0,000 mm 0,0 UV-I 18 W/m² -3,5 °C 12,9 km/h (3 Bft)
28.12.2016 08:31 -1,2 °C -1,2 °C 85 % 1044,2 hPa 0,0 mm 8,7 km/h (2 Bft) S-SW 196 ° 0 min 0,000 mm 0,0 UV-I 18 W/m² -3,4 °C 11,3 km/h (2 Bft)
28.12.2016 08:32 -1,2 °C -1,2 °C 85 % 1044,1 hPa 0,0 mm 7,7 km/h (2 Bft) S-SW 193 ° 0 min 0,000 mm 0,0 UV-I 19 W/m² -3,4 °C 9,7 km/h (2 Bft)
28.12.2016 08:33 -1,2 °C -1,2 °C 85 % 1044,1 hPa 0,0 mm 8,0 km/h (2 Bft) S-SW 198 ° 0 min 0,000 mm 0,0 UV-I 19 W/m² -3,4 °C 11,3 km/h (2 Bft)
28.12.2016 08:34 -1,2 °C -1,2 °C 85 % 1044,1 hPa 0,0 mm 7,0 km/h (2 Bft) S-SW 198 ° 0 min 0,000 mm 0,0 UV-I 21 W/m² -3,4 °C 9,7 km/h (2 Bft)
28.12.2016 08:35 -1,2 °C -1,2 °C 85 % 1044,1 hPa 0,0 mm 7,5 km/h (2 Bft) S-SW 197 ° 0 min 0,000 mm 0,0 UV-I 21 W/m² -3,4 °C 11,3 km/h (2 Bft)
28.12.2016 08:36 -1,2 °C -1,2 °C 85 % 1044,0 hPa 0,0 mm 6,1 km/h (2 Bft) S-SW 201 ° 0 min 0,000 mm 0,0 UV-I 23 W/m² -3,4 °C 9,7 km/h (2 Bft)
28.12.2016 08:37 -1,2 °C -1,1 °C 85 % 1044,1 hPa 0,0 mm 7,1 km/h (2 Bft) S 186 ° 0 min 0,000 mm 0,0 UV-I 23 W/m² -3,4 °C 9,7 km/h (2 Bft)
28.12.2016 08:38 -1,1 °C -1,1 °C 85 % 1044,1 hPa 0,0 mm 4,8 km/h (1 Bft) S 190 ° 0 min 0,000 mm 0,0 UV-I 25 W/m² -3,3 °C 8,0 km/h (2 Bft)
28.12.2016 08:39 -1,1 °C -1,1 °C 85 % 1044,0 hPa 0,0 mm 6,6 km/h (2 Bft) S-SW 212 ° 0 min 0,000 mm 0,0 UV-I 25 W/m² -3,3 °C 11,3 km/h (2 Bft)
28.12.2016 08:40 -1,1 °C -1,1 °C 85 % 1044,0 hPa 0,0 mm 7,5 km/h (2 Bft) S-SO 167 ° 0 min 0,000 mm 0,0 UV-I 25 W/m² -3,3 °C 9,7 km/h (2 Bft)
28.12.2016 08:41 -1,1 °C -1,1 °C 85 % 1044,0 hPa 0,0 mm 9,1 km/h (2 Bft) S 184 ° 0 min 0,000 mm 0,0 UV-I 26 W/m² -3,3 °C 11,3 km/h (2 Bft)
28.12.2016 08:42 -1,1 °C -1,1 °C 85 % 1044,1 hPa 0,0 mm 6,2 km/h (2 Bft) S 181 ° 0 min 0,000 mm 0,0 UV-I 26 W/m² -3,3 °C 8,0 km/h (2 Bft)
28.12.2016 08:43 -1,1 °C -1,1 °C 85 % 1044,1 hPa 0,0 mm 8,3 km/h (2 Bft) S-SW 201 ° 0 min 0,000 mm 0,0 UV-I 26 W/m² -3,3 °C 9,7 km/h (2 Bft)
28.12.2016 08:44 -1,2 °C -1,1 °C 85 % 1044,1 hPa 0,0 mm 4,9 km/h (1 Bft) S 169 ° 0 min 0,000 mm 0,0 UV-I 28 W/m² -3,4 °C 8,0 km/h (2 Bft)
28.12.2016 08:45 -1,1 °C -1,1 °C 85 % 1044,2 hPa 0,0 mm 4,4 km/h (1 Bft) S 184 ° 0 min 0,000 mm 0,0 UV-I 30 W/m² -3,3 °C 9,7 km/h (2 Bft)
28.12.2016 08:46 -1,1 °C -1,1 °C 85 % 1044,1 hPa 0,0 mm 7,3 km/h (2 Bft) S-SW 194 ° 0 min 0,000 mm 0,0 UV-I 30 W/m² -3,3 °C 9,7 km/h (2 Bft)
28.12.2016 08:47 -1,1 °C -1,1 °C 85 % 1044,2 hPa 0,0 mm 8,9 km/h (2 Bft) SW 216 ° 0 min 0,000 mm 0,0 UV-I 30 W/m² -3,3 °C 11,3 km/h (2 Bft)
28.12.2016 08:48 -1,1 °C -1,1 °C 85 % 1044,2 hPa 0,0 mm 8,4 km/h (2 Bft) S 186 ° 0 min 0,000 mm 0,0 UV-I 32 W/m² -3,3 °C 11,3 km/h (2 Bft)
28.12.2016 08:49 -1,1 °C -1,1 °C 85 % 1044,2 hPa 0,0 mm 7,1 km/h (2 Bft) S 189 ° 0 min 0,000 mm 0,0 UV-I 32 W/m² -3,3 °C 9,7 km/h (2 Bft)
28.12.2016 08:50 -1,1 °C -1,1 °C 85 % 1044,2 hPa 0,0 mm 8,0 km/h (2 Bft) S-SW 202 ° 0 min 0,000 mm 0,0 UV-I 33 W/m² -3,3 °C 12,9 km/h (3 Bft)
28.12.2016 08:51 -1,1 °C -1,1 °C 85 % 1044,2 hPa 0,0 mm 9,9 km/h (2 Bft) S-SW 199 ° 0 min 0,000 mm 0,0 UV-I 33 W/m² -3,3 °C 11,3 km/h (2 Bft)
28.12.2016 08:52 -1,1 °C -1,1 °C 85 % 1044,1 hPa 0,0 mm 9,2 km/h (2 Bft) S 182 ° 0 min 0,000 mm 0,0 UV-I 35 W/m² -3,3 °C 11,3 km/h (2 Bft)
28.12.2016 08:53 -1,1 °C -1,1 °C 85 % 1044,2 hPa 0,0 mm 8,4 km/h (2 Bft) S-SW 194 ° 0 min 0,000 mm 0,0 UV-I 35 W/m² -3,3 °C 11,3 km/h (2 Bft)
28.12.2016 08:54 -1,0 °C -1,0 °C 85 % 1044,2 hPa 0,0 mm 8,1 km/h (2 Bft) S-SW 203 ° 0 min 0,000 mm 0,0 UV-I 35 W/m² -3,2 °C 11,3 km/h (2 Bft)
28.12.2016 08:55 -1,0 °C -1,0 °C 85 % 1044,2 hPa 0,0 mm 7,3 km/h (2 Bft) S-SW 197 ° 0 min 0,000 mm 0,0 UV-I 37 W/m² -3,2 °C 9,7 km/h (2 Bft)
28.12.2016 08:56 -1,0 °C -0,9 °C 85 % 1044,2 hPa 0,0 mm 6,2 km/h (2 Bft) S-SW 202 ° 0 min 0,000 mm 0,0 UV-I 39 W/m² -3,2 °C 9,7 km/h (2 Bft)
28.12.2016 08:57 -0,9 °C -0,9 °C 85 % 1044,1 hPa 0,0 mm 4,0 km/h (1 Bft) S 182 ° 0 min 0,000 mm 0,0 UV-I 39 W/m² -3,1 °C 6,4 km/h (2 Bft)
28.12.2016 08:58 -0,9 °C -0,9 °C 85 % 1044,2 hPa 0,0 mm 6,0 km/h (2 Bft) S 188 ° 0 min 0,000 mm 0,0 UV-I 40 W/m² -3,1 °C 8,0 km/h (2 Bft)
28.12.2016 08:59 -0,9 °C -0,9 °C 85 % 1044,1 hPa 0,0 mm 4,4 km/h (1 Bft) S-SW 202 ° 0 min 0,000 mm 0,0 UV-I 42 W/m² -3,1 °C 6,4 km/h (2 Bft)
28.12.2016 09:00 -0,9 °C -0,9 °C 85 % 1044,1 hPa 0,0 mm 4,6 km/h (1 Bft) S-SW 201 ° 0 min 0,000 mm 0,0 UV-I 42 W/m² -3,1 °C 6,4 km/h (2 Bft)
28.12.2016 09:01 -0,9 °C -0,9 °C 85 % 1044,1 hPa 0,0 mm 6,6 km/h (2 Bft) SW 218 ° 0 min 0,026 mm 0,0 UV-I 44 W/m² -3,1 °C 9,7 km/h (2 Bft)
28.12.2016 09:02 -0,9 °C -0,9 °C 85 % 1044,1 hPa 0,0 mm 6,8 km/h (2 Bft) S-SW 204 ° 0 min 0,000 mm 0,0 UV-I 46 W/m² -3,1 °C 11,3 km/h (2 Bft)
28.12.2016 09:03 -0,9 °C -0,9 °C 85 % 1044,0 hPa 0,0 mm 8,2 km/h (2 Bft) S 185 ° 0 min 0,000 mm 0,0 UV-I 46 W/m² -3,1 °C 11,3 km/h (2 Bft)
28.12.2016 09:04 -0,9 °C -0,9 °C 85 % 1044,0 hPa 0,0 mm 10,7 km/h (2 Bft) S-SW 195 ° 0 min 0,000 mm 0,0 UV-I 47 W/m² -3,1 °C 12,9 km/h (3 Bft)
28.12.2016 09:05 -0,9 °C -0,9 °C 85 % 1044,0 hPa 0,0 mm 8,3 km/h (2 Bft) S-SW 205 ° 0 min 0,000 mm 0,0 UV-I 47 W/m² -3,1 °C 9,7 km/h (2 Bft)
28.12.2016 09:06 -0,9 °C -0,9 °C 85 % 1044,0 hPa 0,0 mm 7,7 km/h (2 Bft) S-SW 203 ° 0 min 0,000 mm 0,0 UV-I 49 W/m² -3,1 °C 11,3 km/h (2 Bft)
28.12.2016 09:07 -0,9 °C -0,9 °C 85 % 1044,0 hPa 0,0 mm 10,9 km/h (2 Bft) S-SW 198 ° 0 min 0,000 mm 0,0 UV-I 49 W/m² -3,1 °C 12,9 km/h (3 Bft)
28.12.2016 09:08 -0,9 °C -0,9 °C 85 % 1044,1 hPa 0,0 mm 10,0 km/h (2 Bft) S 186 ° 0 min 0,000 mm 0,0 UV-I 51 W/m² -3,1 °C 12,9 km/h (3 Bft)
28.12.2016 09:09 -0,9 °C -0,8 °C 85 % 1044,1 hPa 0,0 mm 6,6 km/h (2 Bft) S 173 ° 0 min 0,000 mm 0,0 UV-I 53 W/m² -3,1 °C 8,0 km/h (2 Bft)
28.12.2016 09:10 -0,9 °C -0,8 °C 85 % 1044,1 hPa 0,0 mm 6,3 km/h (2 Bft) S-SW 209 ° 0 min 0,000 mm 0,0 UV-I 53 W/m² -3,1 °C 9,7 km/h (2 Bft)
28.12.2016 09:11 -0,8 °C -0,8 °C 85 % 1044,1 hPa 0,0 mm 6,4 km/h (2 Bft) S-SW 200 ° 0 min 0,000 mm 0,0 UV-I 54 W/m² -3,0 °C 9,7 km/h (2 Bft)
28.12.2016 09:12 -0,8 °C -0,8 °C 85 % 1044,1 hPa 0,0 mm 5,3 km/h (1 Bft) S 187 ° 0 min 0,000 mm 0,0 UV-I 54 W/m² -3,0 °C 8,0 km/h (2 Bft)
28.12.2016 09:13 -0,8 °C -0,8 °C 85 % 1044,1 hPa 0,0 mm 2,7 km/h (1 Bft) S 187 ° 0 min 0,000 mm 0,0 UV-I 58 W/m² -3,0 °C 3,2 km/h (1 Bft)
28.12.2016 09:14 -0,8 °C -0,8 °C 85 % 1044,1 hPa 0,0 mm 1,5 km/h (1 Bft) S 187 ° 0 min 0,000 mm 0,0 UV-I 58 W/m² -3,0 °C 3,2 km/h (1 Bft)
28.12.2016 09:15 -0,7 °C -0,7 °C 85 % 1044,1 hPa 0,0 mm 2,3 km/h (1 Bft) S 186 ° 0 min 0,000 mm 0,0 UV-I 60 W/m² -2,9 °C 4,8 km/h (1 Bft)
28.12.2016 09:16 -0,7 °C -0,7 °C 85 % 1044,1 hPa 0,0 mm 1,5 km/h (1 Bft) S 186 ° 0 min 0,000 mm 0,0 UV-I 60 W/m² -2,9 °C 3,2 km/h (1 Bft)
28.12.2016 09:17 -0,7 °C -0,7 °C 84 % 1044,1 hPa 0,0 mm 5,9 km/h (2 Bft) S-SW 205 ° 0 min 0,000 mm 0,0 UV-I 62 W/m² -3,1 °C 8,0 km/h (2 Bft)
28.12.2016 09:18 -0,6 °C -0,6 °C 85 % 1044,1 hPa 0,0 mm 4,8 km/h (1 Bft) S-SW 203 ° 0 min 0,000 mm 0,0 UV-I 63 W/m² -2,8 °C 6,4 km/h (2 Bft)
28.12.2016 09:19 -0,7 °C -0,6 °C 84 % 1044,1 hPa 0,0 mm 3,1 km/h (1 Bft) S-SW 203 ° 0 min 0,000 mm 0,0 UV-I 65 W/m² -3,1 °C 4,8 km/h (1 Bft)
28.12.2016 09:20 -0,6 °C -0,6 °C 84 % 1044,1 hPa 0,0 mm 3,2 km/h (1 Bft) S-SO 158 ° 0 min 0,000 mm 0,0 UV-I 65 W/m² -3,0 °C 4,8 km/h (1 Bft)
28.12.2016 09:21 -0,6 °C -0,6 °C 84 % 1044,0 hPa 0,0 mm 5,4 km/h (1 Bft) S-SW 196 ° 0 min 0,000 mm 0,0 UV-I 67 W/m² -3,0 °C 9,7 km/h (2 Bft)
28.12.2016 09:22 -0,6 °C -0,6 °C 84 % 1044,0 hPa 0,0 mm 4,9 km/h (1 Bft) SW 217 ° 0 min 0,000 mm 0,0 UV-I 67 W/m² -3,0 °C 6,4 km/h (2 Bft)
28.12.2016 09:23 -0,6 °C -0,6 °C 84 % 1044,0 hPa 0,0 mm 3,8 km/h (1 Bft) S-SW 196 ° 0 min 0,000 mm 0,0 UV-I 67 W/m² -3,0 °C 6,4 km/h (2 Bft)
28.12.2016 09:24 -0,6 °C -0,6 °C 84 % 1044,0 hPa 0,0 mm 1,7 km/h (1 Bft) S 180 ° 0 min 0,000 mm 0,0 UV-I 69 W/m² -3,0 °C 4,8 km/h (1 Bft)
28.12.2016 09:25 -0,6 °C -0,6 °C 84 % 1044,0 hPa 0,0 mm 2,6 km/h (1 Bft) S-SO 166 ° 0 min 0,000 mm 0,0 UV-I 69 W/m² -3,0 °C 6,4 km/h (2 Bft)
28.12.2016 09:26 -0,6 °C -0,6 °C 85 % 1043,9 hPa 0,0 mm 1,5 km/h (1 Bft) S-SO 166 ° 0 min 0,000 mm 0,0 UV-I 69 W/m² -2,8 °C 4,8 km/h (1 Bft)
28.12.2016 09:27 -0,6 °C -0,6 °C 85 % 1043,9 hPa 0,0 mm 3,0 km/h (1 Bft) S-SO 166 ° 0 min 0,000 mm 0,0 UV-I 69 W/m² -2,8 °C 6,4 km/h (2 Bft)
28.12.2016 09:28 -0,6 °C -0,6 °C 85 % 1043,9 hPa 0,0 mm 3,8 km/h (1 Bft) S-SW 202 ° 0 min 0,000 mm 0,0 UV-I 69 W/m² -2,8 °C 6,4 km/h (2 Bft)
28.12.2016 09:29 -0,6 °C -0,6 °C 84 % 1043,9 hPa 0,0 mm 3,8 km/h (1 Bft) S-SW 198 ° 0 min 0,000 mm 0,0 UV-I 69 W/m² -3,0 °C 4,8 km/h (1 Bft)
28.12.2016 09:30 -0,6 °C -0,6 °C 84 % 1043,9 hPa 0,0 mm 2,9 km/h (1 Bft) SO 134 ° 0 min 0,000 mm 0,0 UV-I 69 W/m² -3,0 °C 4,8 km/h (1 Bft)
28.12.2016 09:31 -0,6 °C -0,6 °C 84 % 1043,9 hPa 0,0 mm 1,3 km/h (1 Bft) SO 134 ° 0 min 0,000 mm 0,0 UV-I 69 W/m² -3,0 °C 3,2 km/h (1 Bft)
28.12.2016 09:32 -0,5 °C -0,5 °C 84 % 1043,9 hPa 0,0 mm 1,0 km/h (0 Bft) W 279 ° 0 min 0,000 mm 0,0 UV-I 69 W/m² -2,9 °C 1,6 km/h (1 Bft)
28.12.2016 09:33 -0,5 °C -0,5 °C 84 % 1043,9 hPa 0,0 mm 0,8 km/h (0 Bft) W 279 ° 0 min 0,000 mm 0,0 UV-I 69 W/m² -2,9 °C 1,6 km/h (1 Bft)
28.12.2016 09:34 -0,5 °C -0,4 °C 84 % 1043,9 hPa 0,0 mm 0,6 km/h (0 Bft) W 279 ° 0 min 0,000 mm 0,0 UV-I 69 W/m² -2,9 °C 1,6 km/h (1 Bft)
28.12.2016 09:35 -0,5 °C -0,5 °C 84 % 1043,9 hPa 0,0 mm 2,1 km/h (1 Bft) W-SW 258 ° 0 min 0,000 mm 0,0 UV-I 69 W/m² -2,9 °C 4,8 km/h (1 Bft)
28.12.2016 09:36 -0,5 °C -0,5 °C 84 % 1043,9 hPa 0,0 mm 2,7 km/h (1 Bft) W-SW 258 ° 0 min 0,000 mm 0,0 UV-I 67 W/m² -2,9 °C 4,8 km/h (1 Bft)
28.12.2016 09:37 -0,5 °C -0,5 °C 84 % 1043,9 hPa 0,0 mm 1,7 km/h (1 Bft) W-SW 258 ° 0 min 0,000 mm 0,0 UV-I 67 W/m² -2,9 °C 3,2 km/h (1 Bft)
28.12.2016 09:38 -0,5 °C -0,5 °C 83 % 1043,9 hPa 0,0 mm 1,4 km/h (1 Bft) W-SW 244 ° 0 min 0,000 mm 0,0 UV-I 67 W/m² -3,0 °C 3,2 km/h (1 Bft)
28.12.2016 09:39 -0,5 °C -0,5 °C 83 % 1043,8 hPa 0,0 mm 1,3 km/h (1 Bft) W-SW 244 ° 0 min 0,000 mm 0,0 UV-I 67 W/m² -3,0 °C 3,2 km/h (1 Bft)
28.12.2016 09:40 -0,5 °C -0,4 °C 83 % 1043,8 hPa 0,0 mm 0,7 km/h (0 Bft) W-SW 244 ° 0 min 0,000 mm 0,0 UV-I 69 W/m² -3,0 °C 1,6 km/h (1 Bft)
28.12.2016 09:41 -0,4 °C -0,4 °C 83 % 1043,9 hPa 0,0 mm 0,8 km/h (0 Bft) W-SW 244 ° 0 min 0,000 mm 0,0 UV-I 69 W/m² -2,9 °C 1,6 km/h (1 Bft)
28.12.2016 09:42 -0,4 °C -0,4 °C 83 % 1043,9 hPa 0,0 mm 0,5 km/h (0 Bft) W-SW 244 ° 0 min 0,000 mm 0,0 UV-I 69 W/m² -2,9 °C 1,6 km/h (1 Bft)
28.12.2016 09:43 -0,4 °C -0,4 °C 83 % 1043,8 hPa 0,0 mm 0,6 km/h (0 Bft) W-SW 244 ° 0 min 0,000 mm 0,0 UV-I 70 W/m² -2,9 °C 1,6 km/h (1 Bft)
28.12.2016 09:44 -0,4 °C -0,4 °C 83 % 1043,8 hPa 0,0 mm 1,0 km/h (0 Bft) W-SW 244 ° 0 min 0,000 mm 0,5 UV-I 72 W/m² -2,9 °C 1,6 km/h (1 Bft)
28.12.2016 09:45 -0,4 °C -0,4 °C 83 % 1043,8 hPa 0,0 mm 0,1 km/h (0 Bft) W-SW 244 ° 0 min 0,000 mm 0,5 UV-I 72 W/m² -2,9 °C 1,6 km/h (1 Bft)
28.12.2016 09:46 -0,4 °C -0,4 °C 83 % 1043,8 hPa 0,0 mm 0,1 km/h (0 Bft) W-SW 244 ° 0 min 0,000 mm 0,5 UV-I 74 W/m² -2,9 °C 1,6 km/h (1 Bft)
28.12.2016 09:47 -0,4 °C -0,4 °C 83 % 1043,9 hPa 0,0 mm 0,1 km/h (0 Bft) W-SW 244 ° 0 min 0,000 mm 0,5 UV-I 74 W/m² -2,9 °C 1,6 km/h (1 Bft)
28.12.2016 09:48 -0,4 °C -0,4 °C 83 % 1044,0 hPa 0,0 mm 0,7 km/h (0 Bft) W-SW 244 ° 0 min 0,000 mm 0,5 UV-I 76 W/m² -2,9 °C 1,6 km/h (1 Bft)
28.12.2016 09:49 -0,4 °C -0,4 °C 83 % 1044,0 hPa 0,0 mm 0,5 km/h (0 Bft) W-SW 244 ° 0 min 0,000 mm 0,5 UV-I 76 W/m² -2,9 °C 1,6 km/h (1 Bft)
28.12.2016 09:50 -0,4 °C -0,3 °C 83 % 1044,0 hPa 0,0 mm 0,0 km/h (0 Bft) W-SW 244 ° 0 min 0,000 mm 0,5 UV-I 76 W/m² -2,9 °C 0,0 km/h (0 Bft)
28.12.2016 09:51 -0,4 °C -0,3 °C 82 % 1044,0 hPa 0,0 mm 0,4 km/h (0 Bft) W-SW 244 ° 0 min 0,000 mm 0,5 UV-I 77 W/m² -3,1 °C 1,6 km/h (1 Bft)
28.12.2016 09:52 -0,3 °C -0,3 °C 82 % 1044,0 hPa 0,0 mm 1,0 km/h (0 Bft) W-SW 244 ° 0 min 0,000 mm 0,5 UV-I 77 W/m² -3,0 °C 1,6 km/h (1 Bft)
28.12.2016 09:53 -0,3 °C -0,3 °C 82 % 1044,0 hPa 0,0 mm 0,9 km/h (0 Bft) W-SW 244 ° 0 min 0,000 mm 0,5 UV-I 79 W/m² -3,0 °C 1,6 km/h (1 Bft)
28.12.2016 09:54 -0,3 °C -0,3 °C 82 % 1044,0 hPa 0,0 mm 0,7 km/h (0 Bft) W-SW 244 ° 0 min 0,000 mm 0,5 UV-I 79 W/m² -3,0 °C 1,6 km/h (1 Bft)
28.12.2016 09:55 -0,3 °C -0,3 °C 82 % 1044,1 hPa 0,0 mm 0,7 km/h (0 Bft) W-SW 244 ° 0 min 0,000 mm 0,5 UV-I 81 W/m² -3,0 °C 1,6 km/h (1 Bft)
28.12.2016 09:56 -0,3 °C -0,3 °C 82 % 1044,1 hPa 0,0 mm 0,4 km/h (0 Bft) W-SW 244 ° 0 min 0,000 mm 0,5 UV-I 81 W/m² -3,0 °C 1,6 km/h (1 Bft)
28.12.2016 09:57 -0,3 °C -0,3 °C 82 % 1044,1 hPa 0,0 mm 1,0 km/h (0 Bft) W-SW 244 ° 0 min 0,000 mm 0,5 UV-I 81 W/m² -3,0 °C 3,2 km/h (1 Bft)
28.12.2016 09:58 -0,3 °C -0,3 °C 82 % 1044,1 hPa 0,0 mm 0,7 km/h (0 Bft) W-SW 244 ° 0 min 0,000 mm 0,5 UV-I 81 W/m² -3,0 °C 1,6 km/h (1 Bft)
28.12.2016 09:59 -0,2 °C -0,2 °C 82 % 1044,1 hPa 0,0 mm 0,2 km/h (0 Bft) W-SW 244 ° 0 min 0,000 mm 0,5 UV-I 81 W/m² -2,9 °C 1,6 km/h (1 Bft)
28.12.2016 10:00 -0,2 °C -0,2 °C 82 % 1044,1 hPa 0,0 mm 1,0 km/h (0 Bft) W-SW 244 ° 0 min 0,025 mm 0,5 UV-I 83 W/m² -2,9 °C 1,6 km/h (1 Bft)
28.12.2016 10:01 -0,2 °C -0,2 °C 82 % 1044,1 hPa 0,0 mm 1,1 km/h (1 Bft) W-SW 244 ° 0 min 0,000 mm 0,5 UV-I 83 W/m² -2,9 °C 1,6 km/h (1 Bft)
28.12.2016 10:02 -0,1 °C -0,1 °C 82 % 1044,1 hPa 0,0 mm 1,0 km/h (0 Bft) W-SW 244 ° 0 min 0,000 mm 0,5 UV-I 83 W/m² -2,8 °C 3,2 km/h (1 Bft)
28.12.2016 10:03 -0,1 °C -0,1 °C 82 % 1044,2 hPa 0,0 mm 1,8 km/h (1 Bft) W-SW 244 ° 0 min 0,000 mm 0,6 UV-I 83 W/m² -2,8 °C 3,2 km/h (1 Bft)
28.12.2016 10:04 -0,1 °C -0,1 °C 82 % 1044,2 hPa 0,0 mm 1,4 km/h (1 Bft) W-SW 244 ° 0 min 0,000 mm 0,6 UV-I 84 W/m² -2,8 °C 3,2 km/h (1 Bft)
28.12.2016 10:05 -0,1 °C -0,1 °C 83 % 1044,2 hPa 0,0 mm 0,1 km/h (0 Bft) W-SW 244 ° 0 min 0,000 mm 0,6 UV-I 84 W/m² -2,6 °C 1,6 km/h (1 Bft)
28.12.2016 10:06 0,0 °C 0,0 °C 83 % 1044,2 hPa 0,0 mm 0,4 km/h (0 Bft) W-SW 244 ° 0 min 0,000 mm 0,6 UV-I 84 W/m² -2,5 °C 1,6 km/h (1 Bft)
28.12.2016 10:07 -0,1 °C 0,0 °C 83 % 1044,2 hPa 0,0 mm 1,3 km/h (1 Bft) W-SW 244 ° 0 min 0,000 mm 0,6 UV-I 84 W/m² -2,6 °C 3,2 km/h (1 Bft)
28.12.2016 10:08 0,0 °C 0,0 °C 83 % 1044,2 hPa 0,0 mm 4,6 km/h (1 Bft) SW 215 ° 0 min 0,000 mm 0,6 UV-I 84 W/m² -2,5 °C 6,4 km/h (2 Bft)
28.12.2016 10:09 0,1 °C 0,1 °C 82 % 1044,2 hPa 0,0 mm 6,4 km/h (2 Bft) S-SW 200 ° 0 min 0,000 mm 0,6 UV-I 86 W/m² -2,6 °C 8,0 km/h (2 Bft)
28.12.2016 10:10 0,1 °C 0,1 °C 82 % 1044,2 hPa 0,0 mm 7,8 km/h (2 Bft) SW 217 ° 0 min 0,000 mm 0,6 UV-I 88 W/m² -2,6 °C 9,7 km/h (2 Bft)
28.12.2016 10:11 0,1 °C 0,1 °C 82 % 1044,2 hPa 0,0 mm 4,4 km/h (1 Bft) SW 214 ° 0 min 0,000 mm 0,6 UV-I 90 W/m² -2,6 °C 8,0 km/h (2 Bft)
28.12.2016 10:12 0,2 °C 0,2 °C 81 % 1044,2 hPa 0,0 mm 7,4 km/h (2 Bft) S-SW 211 ° 0 min 0,000 mm 0,6 UV-I 97 W/m² -2,7 °C 11,3 km/h (2 Bft)
28.12.2016 10:13 0,2 °C 0,2 °C 81 % 1044,2 hPa 0,0 mm 5,0 km/h (1 Bft) S-SW 194 ° 0 min 0,000 mm 0,7 UV-I 100 W/m² -2,7 °C 8,0 km/h (2 Bft)
28.12.2016 10:14 0,3 °C 0,3 °C 81 % 1044,2 hPa 0,0 mm 5,0 km/h (1 Bft) SW 225 ° 0 min 0,000 mm 0,7 UV-I 104 W/m² -2,6 °C 6,4 km/h (2 Bft)
28.12.2016 10:15 0,3 °C 0,3 °C 81 % 1044,3 hPa 0,0 mm 7,8 km/h (2 Bft) S-SW 208 ° 0 min 0,000 mm 0,7 UV-I 105 W/m² -2,6 °C 9,7 km/h (2 Bft)
28.12.2016 10:16 0,3 °C 0,3 °C 81 % 1044,4 hPa 0,0 mm 5,7 km/h (1 Bft) S-SW 206 ° 0 min 0,000 mm 0,7 UV-I 109 W/m² -2,6 °C 8,0 km/h (2 Bft)
28.12.2016 10:17 0,4 °C 0,4 °C 80 % 1044,4 hPa 0,0 mm 5,0 km/h (1 Bft) S 184 ° 0 min 0,000 mm 0,7 UV-I 109 W/m² -2,6 °C 8,0 km/h (2 Bft)
28.12.2016 10:18 0,4 °C 0,4 °C 81 % 1044,4 hPa 0,0 mm 5,9 km/h (2 Bft) S-SW 204 ° 0 min 0,000 mm 0,7 UV-I 107 W/m² -2,5 °C 8,0 km/h (2 Bft)
28.12.2016 10:19 0,4 °C 0,4 °C 80 % 1044,4 hPa 0,0 mm 5,4 km/h (1 Bft) S 171 ° 0 min 0,000 mm 0,7 UV-I 105 W/m² -2,6 °C 8,0 km/h (2 Bft)
28.12.2016 10:20 0,4 °C 0,4 °C 81 % 1044,4 hPa 0,0 mm 3,8 km/h (1 Bft) S-SW 193 ° 0 min 0,000 mm 0,7 UV-I 105 W/m² -2,5 °C 6,4 km/h (2 Bft)
28.12.2016 10:21 0,5 °C 0,5 °C 80 % 1044,4 hPa 0,0 mm 4,4 km/h (1 Bft) S-SW 202 ° 0 min 0,000 mm 0,7 UV-I 104 W/m² -2,5 °C 6,4 km/h (2 Bft)
28.12.2016 10:22 0,6 °C 0,6 °C 80 % 1044,5 hPa 0,0 mm 8,7 km/h (2 Bft) S-SW 200 ° 0 min 0,000 mm 0,7 UV-I 104 W/m² -2,4 °C 9,7 km/h (2 Bft)
28.12.2016 10:23 0,6 °C 0,6 °C 80 % 1044,5 hPa 0,0 mm 6,8 km/h (2 Bft) S-SW 194 ° 0 min 0,000 mm 0,7 UV-I 104 W/m² -2,4 °C 9,7 km/h (2 Bft)
28.12.2016 10:24 0,6 °C 0,7 °C 80 % 1044,5 hPa 0,0 mm 4,6 km/h (1 Bft) S-SO 161 ° 0 min 0,000 mm 0,7 UV-I 104 W/m² -2,4 °C 6,4 km/h (2 Bft)
28.12.2016 10:25 0,7 °C 0,7 °C 80 % 1044,5 hPa 0,0 mm 2,7 km/h (1 Bft) S 169 ° 0 min 0,000 mm 0,7 UV-I 104 W/m² -2,3 °C 6,4 km/h (2 Bft)
28.12.2016 10:26 0,7 °C 0,7 °C 81 % 1044,6 hPa 0,0 mm 1,3 km/h (1 Bft) S 169 ° 0 min 0,000 mm 0,7 UV-I 102 W/m² -2,2 °C 3,2 km/h (1 Bft)
28.12.2016 10:27 0,7 °C 0,7 °C 82 % 1044,6 hPa 0,0 mm 1,3 km/h (1 Bft) S 169 ° 0 min 0,000 mm 0,7 UV-I 100 W/m² -2,0 °C 1,6 km/h (1 Bft)
28.12.2016 10:28 0,6 °C 0,7 °C 82 % 1044,7 hPa 0,0 mm 1,7 km/h (1 Bft) S 169 ° 0 min 0,000 mm 0,7 UV-I 98 W/m² -2,1 °C 3,2 km/h (1 Bft)
28.12.2016 10:29 0,6 °C 0,7 °C 81 % 1044,8 hPa 0,0 mm 2,2 km/h (1 Bft) O 100 ° 0 min 0,000 mm 0,7 UV-I 97 W/m² -2,3 °C 3,2 km/h (1 Bft)
28.12.2016 10:30 0,6 °C 0,7 °C 82 % 1044,8 hPa 0,0 mm 2,7 km/h (1 Bft) O 94 ° 0 min 0,000 mm 0,7 UV-I 90 W/m² -2,1 °C 3,2 km/h (1 Bft)
28.12.2016 10:31 0,6 °C 0,6 °C 82 % 1044,8 hPa 0,0 mm 3,6 km/h (1 Bft) O-NO 71 ° 0 min 0,000 mm 0,7 UV-I 88 W/m² -2,1 °C 4,8 km/h (1 Bft)
28.12.2016 10:32 0,6 °C 0,6 °C 82 % 1044,9 hPa 0,0 mm 4,8 km/h (1 Bft) O-NO 57 ° 0 min 0,000 mm 0,7 UV-I 84 W/m² -2,1 °C 8,0 km/h (2 Bft)
28.12.2016 10:33 0,7 °C 0,7 °C 82 % 1044,8 hPa 0,0 mm 5,2 km/h (1 Bft) O-NO 64 ° 0 min 0,000 mm 0,7 UV-I 83 W/m² -2,0 °C 6,4 km/h (2 Bft)
28.12.2016 10:34 0,7 °C 0,7 °C 81 % 1044,8 hPa 0,0 mm 4,6 km/h (1 Bft) O-NO 63 ° 0 min 0,000 mm 0,7 UV-I 81 W/m² -2,2 °C 6,4 km/h (2 Bft)
28.12.2016 10:35 0,7 °C 0,7 °C 81 % 1044,8 hPa 0,0 mm 4,5 km/h (1 Bft) O-NO 61 ° 0 min 0,000 mm 0,7 UV-I 77 W/m² -2,2 °C 8,0 km/h (2 Bft)
28.12.2016 10:36 0,7 °C 0,7 °C 81 % 1044,7 hPa 0,0 mm 3,3 km/h (1 Bft) O-NO 64 ° 0 min 0,000 mm 0,7 UV-I 77 W/m² -2,2 °C 4,8 km/h (1 Bft)
28.12.2016 10:37 0,6 °C 0,7 °C 81 % 1044,8 hPa 0,0 mm 3,3 km/h (1 Bft) O-NO 64 ° 0 min 0,000 mm 0,7 UV-I 76 W/m² -2,3 °C 4,8 km/h (1 Bft)
28.12.2016 10:38 0,6 °C 0,6 °C 81 % 1044,8 hPa 0,0 mm 4,6 km/h (1 Bft) O-NO 64 ° 0 min 0,000 mm 0,8 UV-I 76 W/m² -2,3 °C 6,4 km/h (2 Bft)
28.12.2016 10:39 0,5 °C 0,6 °C 81 % 1044,8 hPa 0,0 mm 3,6 km/h (1 Bft) NO 46 ° 0 min 0,000 mm 0,8 UV-I 74 W/m² -2,4 °C 4,8 km/h (1 Bft)
28.12.2016 10:40 0,4 °C 0,5 °C 82 % 1044,9 hPa 0,0 mm 2,8 km/h (1 Bft) NO 46 ° 0 min 0,000 mm 0,8 UV-I 74 W/m² -2,3 °C 4,8 km/h (1 Bft)
28.12.2016 10:41 0,4 °C 0,4 °C 82 % 1044,9 hPa 0,0 mm 2,3 km/h (1 Bft) NO 46 ° 0 min 0,000 mm 0,8 UV-I 70 W/m² -2,3 °C 3,2 km/h (1 Bft)
28.12.2016 10:42 0,4 °C 0,4 °C 82 % 1044,9 hPa 0,0 mm 3,2 km/h (1 Bft) NO 46 ° 0 min 0,000 mm 0,8 UV-I 69 W/m² -2,3 °C 3,2 km/h (1 Bft)
28.12.2016 10:43 0,4 °C 0,4 °C 82 % 1044,9 hPa 0,0 mm 1,7 km/h (1 Bft) NO 46 ° 0 min 0,000 mm 0,8 UV-I 69 W/m² -2,3 °C 3,2 km/h (1 Bft)
28.12.2016 10:44 0,3 °C 0,4 °C 82 % 1044,9 hPa 0,0 mm 2,5 km/h (1 Bft) NO 46 ° 0 min 0,000 mm 0,8 UV-I 67 W/m² -2,4 °C 3,2 km/h (1 Bft)
28.12.2016 10:45 0,3 °C 0,3 °C 83 % 1045,0 hPa 0,0 mm 1,9 km/h (1 Bft) NO 46 ° 0 min 0,000 mm 0,8 UV-I 65 W/m² -2,2 °C 3,2 km/h (1 Bft)
28.12.2016 10:46 0,3 °C 0,3 °C 83 % 1044,9 hPa 0,0 mm 1,6 km/h (1 Bft) NO 46 ° 0 min 0,000 mm 0,8 UV-I 63 W/m² -2,2 °C 1,6 km/h (1 Bft)
28.12.2016 10:47 0,3 °C 0,3 °C 82 % 1044,9 hPa 0,0 mm 2,5 km/h (1 Bft) NO 46 ° 0 min 0,000 mm 0,8 UV-I 62 W/m² -2,4 °C 3,2 km/h (1 Bft)
28.12.2016 10:48 0,3 °C 0,3 °C 83 % 1044,9 hPa 0,0 mm 1,7 km/h (1 Bft) NO 46 ° 0 min 0,000 mm 0,8 UV-I 60 W/m² -2,2 °C 3,2 km/h (1 Bft)
28.12.2016 10:49 0,3 °C 0,3 °C 83 % 1044,9 hPa 0,0 mm 1,3 km/h (1 Bft) NO 46 ° 0 min 0,000 mm 0,8 UV-I 58 W/m² -2,2 °C 1,6 km/h (1 Bft)
28.12.2016 10:50 0,3 °C 0,4 °C 82 % 1045,0 hPa 0,0 mm 1,1 km/h (1 Bft) NO 46 ° 0 min 0,000 mm 0,8 UV-I 56 W/m² -2,4 °C 1,6 km/h (1 Bft)
28.12.2016 10:51 0,3 °C 0,3 °C 82 % 1044,9 hPa 0,0 mm 1,0 km/h (0 Bft) NO 46 ° 0 min 0,000 mm 0,8 UV-I 56 W/m² -2,4 °C 1,6 km/h (1 Bft)
28.12.2016 10:52 0,4 °C 0,4 °C 82 % 1044,9 hPa 0,0 mm 0,5 km/h (0 Bft) NO 46 ° 0 min 0,000 mm 0,0 UV-I 54 W/m² -2,3 °C 1,6 km/h (1 Bft)
28.12.2016 10:53 0,4 °C 0,4 °C 82 % 1044,9 hPa 0,0 mm 0,3 km/h (0 Bft) NO 46 ° 0 min 0,000 mm 0,0 UV-I 53 W/m² -2,3 °C 1,6 km/h (1 Bft)
28.12.2016 10:54 0,4 °C 0,4 °C 82 % 1044,9 hPa 0,0 mm 0,6 km/h (0 Bft) NO 46 ° 0 min 0,000 mm 0,0 UV-I 53 W/m² -2,3 °C 1,6 km/h (1 Bft)
28.12.2016 10:55 0,4 °C 0,4 °C 81 % 1044,9 hPa 0,0 mm 1,1 km/h (1 Bft) NO 46 ° 0 min 0,000 mm 0,0 UV-I 51 W/m² -2,5 °C 3,2 km/h (1 Bft)
28.12.2016 10:56 0,5 °C 0,5 °C 81 % 1045,0 hPa 0,0 mm 1,9 km/h (1 Bft) NO 46 ° 0 min 0,000 mm 0,0 UV-I 51 W/m² -2,4 °C 3,2 km/h (1 Bft)
28.12.2016 10:57 0,5 °C 0,5 °C 81 % 1045,0 hPa 0,0 mm 0,8 km/h (0 Bft) NO 46 ° 0 min 0,000 mm 0,0 UV-I 49 W/m² -2,4 °C 1,6 km/h (1 Bft)
28.12.2016 10:58 0,5 °C 0,5 °C 81 % 1044,9 hPa 0,0 mm 0,9 km/h (0 Bft) NO 46 ° 0 min 0,000 mm 0,0 UV-I 49 W/m² -2,4 °C 1,6 km/h (1 Bft)
28.12.2016 10:59 0,5 °C 0,6 °C 81 % 1045,0 hPa 0,0 mm 0,9 km/h (0 Bft) NO 46 ° 0 min 0,000 mm 0,0 UV-I 47 W/m² -2,4 °C 1,6 km/h (1 Bft)
28.12.2016 11:00 0,6 °C 0,6 °C 81 % 1044,9 hPa 0,0 mm 1,4 km/h (1 Bft) NO 46 ° 0 min 0,000 mm 0,0 UV-I 49 W/m² -2,3 °C 1,6 km/h (1 Bft)
28.12.2016 11:01 0,6 °C 0,6 °C 80 % 1045,0 hPa 0,0 mm 1,4 km/h (1 Bft) NO 46 ° 0 min 0,025 mm 0,0 UV-I 47 W/m² -2,4 °C 1,6 km/h (1 Bft)
28.12.2016 11:02 0,6 °C 0,6 °C 80 % 1045,0 hPa 0,0 mm 0,1 km/h (0 Bft) NO 46 ° 0 min 0,000 mm 0,0 UV-I 44 W/m² -2,4 °C 1,6 km/h (1 Bft)
28.12.2016 11:03 0,6 °C 0,6 °C 80 % 1045,0 hPa 0,0 mm 0,0 km/h (0 Bft) NO 46 ° 0 min 0,000 mm 0,0 UV-I 42 W/m² -2,4 °C 0,0 km/h (0 Bft)
28.12.2016 11:04 0,6 °C 0,6 °C 80 % 1045,0 hPa 0,0 mm 0,0 km/h (0 Bft) NO 46 ° 0 min 0,000 mm 0,0 UV-I 40 W/m² -2,4 °C 0,0 km/h (0 Bft)
28.12.2016 11:05 0,6 °C 0,6 °C 80 % 1045,0 hPa 0,0 mm 0,5 km/h (0 Bft) NO 46 ° 0 min 0,000 mm 0,0 UV-I 39 W/m² -2,4 °C 1,6 km/h (1 Bft)
28.12.2016 11:06 0,6 °C 0,6 °C 80 % 1045,0 hPa 0,0 mm 1,3 km/h (1 Bft) NO 46 ° 0 min 0,000 mm 0,0 UV-I 37 W/m² -2,4 °C 1,6 km/h (1 Bft)
28.12.2016 11:07 0,7 °C 0,7 °C 80 % 1044,9 hPa 0,0 mm 0,3 km/h (0 Bft) NO 46 ° 0 min 0,000 mm 0,0 UV-I 37 W/m² -2,3 °C 1,6 km/h (1 Bft)
28.12.2016 11:08 0,7 °C 0,7 °C 80 % 1044,9 hPa 0,0 mm 0,8 km/h (0 Bft) NO 46 ° 0 min 0,000 mm 0,0 UV-I 35 W/m² -2,3 °C 1,6 km/h (1 Bft)
28.12.2016 11:09 0,7 °C 0,7 °C 80 % 1044,9 hPa 0,0 mm 1,4 km/h (1 Bft) NO 46 ° 0 min 0,000 mm 0,0 UV-I 35 W/m² -2,3 °C 1,6 km/h (1 Bft)
28.12.2016 11:10 0,7 °C 0,7 °C 80 % 1044,9 hPa 0,0 mm 1,6 km/h (1 Bft) NO 46 ° 0 min 0,000 mm 0,0 UV-I 33 W/m² -2,3 °C 3,2 km/h (1 Bft)
28.12.2016 11:11 0,7 °C 0,7 °C 80 % 1044,8 hPa 0,0 mm 1,3 km/h (1 Bft) NO 46 ° 0 min 0,000 mm 0,0 UV-I 33 W/m² -2,3 °C 1,6 km/h (1 Bft)
28.12.2016 11:12 0,7 °C 0,7 °C 79 % 1044,8 hPa 0,0 mm 1,0 km/h (0 Bft) NO 46 ° 0 min 0,000 mm 0,0 UV-I 32 W/m² -2,5 °C 1,6 km/h (1 Bft)
28.12.2016 11:13 0,7 °C 0,7 °C 79 % 1044,8 hPa 0,0 mm 1,3 km/h (1 Bft) NO 46 ° 0 min 0,000 mm 0,0 UV-I 32 W/m² -2,5 °C 1,6 km/h (1 Bft)
28.12.2016 11:14 0,7 °C 0,8 °C 79 % 1044,7 hPa 0,0 mm 0,2 km/h (0 Bft) NO 46 ° 0 min 0,000 mm 0,0 UV-I 32 W/m² -2,5 °C 1,6 km/h (1 Bft)
28.12.2016 11:15 0,8 °C 0,8 °C 79 % 1044,7 hPa 0,0 mm 0,1 km/h (0 Bft) NO 46 ° 0 min 0,000 mm 0,0 UV-I 32 W/m² -2,4 °C 1,6 km/h (1 Bft)
28.12.2016 11:16 0,8 °C 0,8 °C 79 % 1044,7 hPa 0,0 mm 0,2 km/h (0 Bft) NO 46 ° 0 min 0,000 mm 0,0 UV-I 30 W/m² -2,4 °C 1,6 km/h (1 Bft)
28.12.2016 11:17 0,8 °C 0,8 °C 79 % 1044,7 hPa 0,0 mm 0,5 km/h (0 Bft) NO 46 ° 0 min 0,000 mm 0,0 UV-I 30 W/m² -2,4 °C 1,6 km/h (1 Bft)
28.12.2016 11:18 0,7 °C 0,8 °C 80 % 1044,8 hPa 0,0 mm 0,9 km/h (0 Bft) NO 46 ° 0 min 0,000 mm 0,0 UV-I 30 W/m² -2,3 °C 1,6 km/h (1 Bft)
28.12.2016 11:19 0,7 °C 0,7 °C 80 % 1044,8 hPa 0,0 mm 1,6 km/h (1 Bft) NO 46 ° 0 min 0,000 mm 0,0 UV-I 30 W/m² -2,3 °C 3,2 km/h (1 Bft)
28.12.2016 11:20 0,6 °C 0,7 °C 80 % 1044,7 hPa 0,0 mm 2,7 km/h (1 Bft) NO 46 ° 0 min 0,000 mm 0,0 UV-I 30 W/m² -2,4 °C 3,2 km/h (1 Bft)
28.12.2016 11:21 0,6 °C 0,6 °C 80 % 1044,8 hPa 0,0 mm 2,8 km/h (1 Bft) NO 46 ° 0 min 0,000 mm 0,0 UV-I 30 W/m² -2,4 °C 3,2 km/h (1 Bft)
28.12.2016 11:22 0,6 °C 0,6 °C 80 % 1044,8 hPa 0,0 mm 1,6 km/h (1 Bft) NO 46 ° 0 min 0,000 mm 0,0 UV-I 30 W/m² -2,4 °C 1,6 km/h (1 Bft)
28.12.2016 11:23 0,6 °C 0,6 °C 80 % 1044,8 hPa 0,0 mm 1,5 km/h (1 Bft) NO 46 ° 0 min 0,000 mm 0,0 UV-I 30 W/m² -2,4 °C 3,2 km/h (1 Bft)
28.12.2016 11:24 0,6 °C 0,6 °C 80 % 1044,9 hPa 0,0 mm 0,8 km/h (0 Bft) NO 46 ° 0 min 0,000 mm 0,0 UV-I 30 W/m² -2,4 °C 1,6 km/h (1 Bft)
28.12.2016 11:25 0,6 °C 0,6 °C 80 % 1044,9 hPa 0,0 mm 1,3 km/h (1 Bft) NO 46 ° 0 min 0,000 mm 0,0 UV-I 30 W/m² -2,4 °C 1,6 km/h (1 Bft)
28.12.2016 11:26 0,6 °C 0,6 °C 80 % 1045,0 hPa 0,0 mm 0,2 km/h (0 Bft) NO 46 ° 0 min 0,000 mm 0,0 UV-I 30 W/m² -2,4 °C 1,6 km/h (1 Bft)
28.12.2016 11:27 0,6 °C 0,6 °C 79 % 1044,9 hPa 0,0 mm 0,0 km/h (0 Bft) NO 46 ° 0 min 0,000 mm 0,0 UV-I 30 W/m² -2,6 °C 0,0 km/h (0 Bft)
28.12.2016 11:28 0,7 °C 0,7 °C 79 % 1044,9 hPa 0,0 mm 0,0 km/h (0 Bft) NO 46 ° 0 min 0,000 mm 0,0 UV-I 30 W/m² -2,5 °C 0,0 km/h (0 Bft)
28.12.2016 11:29 0,7 °C 0,7 °C 79 % 1044,8 hPa 0,0 mm 0,1 km/h (0 Bft) NO 46 ° 0 min 0,000 mm 0,0 UV-I 30 W/m² -2,5 °C 1,6 km/h (1 Bft)
28.12.2016 11:30 0,7 °C 0,7 °C 79 % 1044,8 hPa 0,0 mm 0,5 km/h (0 Bft) NO 46 ° 0 min 0,000 mm 0,0 UV-I 30 W/m² -2,5 °C 1,6 km/h (1 Bft)
28.12.2016 11:31 0,7 °C 0,7 °C 79 % 1044,9 hPa 0,0 mm 0,0 km/h (0 Bft) NO 46 ° 0 min 0,000 mm 0,0 UV-I 30 W/m² -2,5 °C 0,0 km/h (0 Bft)
28.12.2016 11:32 0,7 °C 0,7 °C 79 % 1044,8 hPa 0,0 mm 0,5 km/h (0 Bft) NO 46 ° 0 min 0,000 mm 0,0 UV-I 30 W/m² -2,5 °C 1,6 km/h (1 Bft)
28.12.2016 11:33 0,7 °C 0,7 °C 79 % 1044,9 hPa 0,0 mm 0,6 km/h (0 Bft) NO 46 ° 0 min 0,000 mm 0,0 UV-I 30 W/m² -2,5 °C 1,6 km/h (1 Bft)
28.12.2016 11:34 0,7 °C 0,7 °C 79 % 1044,9 hPa 0,0 mm 0,9 km/h (0 Bft) NO 46 ° 0 min 0,000 mm 0,0 UV-I 30 W/m² -2,5 °C 1,6 km/h (1 Bft)
28.12.2016 11:35 0,7 °C 0,7 °C 79 % 1044,8 hPa 0,0 mm 0,4 km/h (0 Bft) NO 46 ° 0 min 0,000 mm 0,0 UV-I 30 W/m² -2,5 °C 1,6 km/h (1 Bft)
28.12.2016 11:36 0,8 °C 0,8 °C 79 % 1044,8 hPa 0,0 mm 0,3 km/h (0 Bft) NO 46 ° 0 min 0,000 mm 0,0 UV-I 30 W/m² -2,4 °C 1,6 km/h (1 Bft)
28.12.2016 11:37 0,7 °C 0,8 °C 79 % 1044,9 hPa 0,0 mm 0,9 km/h (0 Bft) NO 46 ° 0 min 0,000 mm 0,0 UV-I 30 W/m² -2,5 °C 1,6 km/h (1 Bft)
28.12.2016 11:38 0,7 °C 0,8 °C 79 % 1044,8 hPa 0,0 mm 0,5 km/h (0 Bft) NO 46 ° 0 min 0,000 mm 0,0 UV-I 30 W/m² -2,5 °C 1,6 km/h (1 Bft)
28.12.2016 11:39 0,8 °C 0,8 °C 79 % 1044,8 hPa 0,0 mm 2,0 km/h (1 Bft) NO 46 ° 0 min 0,000 mm 0,0 UV-I 30 W/m² -2,4 °C 3,2 km/h (1 Bft)
28.12.2016 11:40 0,8 °C 0,8 °C 79 % 1044,8 hPa 0,0 mm 0,7 km/h (0 Bft) NO 46 ° 0 min 0,000 mm 0,0 UV-I 28 W/m² -2,4 °C 3,2 km/h (1 Bft)
28.12.2016 11:41 0,8 °C 0,8 °C 79 % 1044,7 hPa 0,0 mm 0,0 km/h (0 Bft) NO 46 ° 0 min 0,000 mm 0,0 UV-I 28 W/m² -2,4 °C 0,0 km/h (0 Bft)
28.12.2016 11:42 0,8 °C 0,8 °C 79 % 1044,7 hPa 0,0 mm 0,0 km/h (0 Bft) NO 46 ° 0 min 0,000 mm 0,0 UV-I 28 W/m² -2,4 °C 0,0 km/h (0 Bft)
28.12.2016 11:43 0,8 °C 0,8 °C 78 % 1044,7 hPa 0,0 mm 0,5 km/h (0 Bft) NO 46 ° 0 min 0,000 mm 0,0 UV-I 28 W/m² -2,6 °C 1,6 km/h (1 Bft)
28.12.2016 11:44 0,9 °C 0,9 °C 78 % 1044,7 hPa 0,0 mm 0,1 km/h (0 Bft) NO 46 ° 0 min 0,000 mm 0,0 UV-I 28 W/m² -2,5 °C 1,6 km/h (1 Bft)
28.12.2016 11:45 0,9 °C 0,9 °C 78 % 1044,7 hPa 0,0 mm 0,4 km/h (0 Bft) NO 46 ° 0 min 0,000 mm 0,0 UV-I 28 W/m² -2,5 °C 1,6 km/h (1 Bft)
28.12.2016 11:46 0,9 °C 0,9 °C 78 % 1044,7 hPa 0,0 mm 1,1 km/h (1 Bft) NO 46 ° 0 min 0,000 mm 0,0 UV-I 28 W/m² -2,5 °C 3,2 km/h (1 Bft)
28.12.2016 11:47 0,9 °C 0,9 °C 78 % 1044,6 hPa 0,0 mm 2,6 km/h (1 Bft) O 90 ° 0 min 0,000 mm 0,0 UV-I 28 W/m² -2,5 °C 3,2 km/h (1 Bft)
28.12.2016 11:48 0,9 °C 0,9 °C 78 % 1044,5 hPa 0,0 mm 3,1 km/h (1 Bft) O 90 ° 0 min 0,000 mm 0,0 UV-I 28 W/m² -2,5 °C 3,2 km/h (1 Bft)
28.12.2016 11:49 0,9 °C 0,9 °C 78 % 1044,5 hPa 0,0 mm 2,3 km/h (1 Bft) O 90 ° 0 min 0,000 mm 0,0 UV-I 28 W/m² -2,5 °C 3,2 km/h (1 Bft)
28.12.2016 11:50 0,9 °C 0,9 °C 78 % 1044,4 hPa 0,0 mm 1,5 km/h (1 Bft) O 90 ° 0 min 0,000 mm 0,0 UV-I 30 W/m² -2,5 °C 3,2 km/h (1 Bft)
28.12.2016 11:51 0,9 °C 0,9 °C 78 % 1044,4 hPa 0,0 mm 0,8 km/h (0 Bft) O 90 ° 0 min 0,000 mm 0,0 UV-I 30 W/m² -2,5 °C 1,6 km/h (1 Bft)
28.12.2016 11:52 0,9 °C 0,9 °C 78 % 1044,4 hPa 0,0 mm 1,5 km/h (1 Bft) O 90 ° 0 min 0,000 mm 0,0 UV-I 30 W/m² -2,5 °C 3,2 km/h (1 Bft)
28.12.2016 11:53 1,0 °C 1,0 °C 78 % 1044,3 hPa 0,0 mm 1,9 km/h (1 Bft) O 90 ° 0 min 0,000 mm 0,0 UV-I 30 W/m² -2,4 °C 3,2 km/h (1 Bft)
28.12.2016 11:54 1,1 °C 1,1 °C 78 % 1044,4 hPa 0,0 mm 0,7 km/h (0 Bft) O 90 ° 0 min 0,000 mm 0,0 UV-I 32 W/m² -2,3 °C 1,6 km/h (1 Bft)
28.12.2016 11:55 1,1 °C 1,1 °C 78 % 1044,4 hPa 0,0 mm 2,5 km/h (1 Bft) O 90 ° 0 min 0,000 mm 0,0 UV-I 33 W/m² -2,3 °C 3,2 km/h (1 Bft)
28.12.2016 11:56 1,1 °C 1,1 °C 78 % 1044,4 hPa 0,0 mm 2,7 km/h (1 Bft) O 90 ° 0 min 0,000 mm 0,0 UV-I 35 W/m² -2,3 °C 4,8 km/h (1 Bft)
28.12.2016 11:57 1,1 °C 1,1 °C 78 % 1044,4 hPa 0,0 mm 1,2 km/h (1 Bft) O 90 ° 0 min 0,000 mm 0,0 UV-I 39 W/m² -2,3 °C 1,6 km/h (1 Bft)
28.12.2016 11:58 1,2 °C 1,2 °C 78 % 1044,4 hPa 0,0 mm 0,9 km/h (0 Bft) O 84 ° 0 min 0,000 mm 0,0 UV-I 47 W/m² -2,2 °C 1,6 km/h (1 Bft)
28.12.2016 11:59 1,2 °C 1,2 °C 78 % 1044,4 hPa 0,0 mm 2,7 km/h (1 Bft) NW 317 ° 0 min 0,000 mm 0,9 UV-I 62 W/m² -2,2 °C 4,8 km/h (1 Bft)
28.12.2016 12:00 1,3 °C 1,3 °C 78 % 1044,3 hPa 0,0 mm 0,4 km/h (0 Bft) NW 317 ° 0 min 0,000 mm 0,9 UV-I 74 W/m² -2,1 °C 1,6 km/h (1 Bft)
28.12.2016 12:01 1,2 °C 1,3 °C 78 % 1044,3 hPa 0,0 mm 0,7 km/h (0 Bft) NW 317 ° 0 min 0,026 mm 0,9 UV-I 58 W/m² -2,2 °C 1,6 km/h (1 Bft)
28.12.2016 12:02 1,2 °C 1,2 °C 78 % 1044,3 hPa 0,0 mm 3,4 km/h (1 Bft) N 351 ° 0 min 0,000 mm 0,0 UV-I 42 W/m² -2,2 °C 4,8 km/h (1 Bft)
28.12.2016 12:03 1,2 °C 1,2 °C 78 % 1044,4 hPa 0,0 mm 4,2 km/h (1 Bft) N-NW 336 ° 0 min 0,000 mm 0,0 UV-I 39 W/m² -2,2 °C 4,8 km/h (1 Bft)
28.12.2016 12:04 1,2 °C 1,2 °C 78 % 1044,3 hPa 0,0 mm 2,5 km/h (1 Bft) N-NW 336 ° 0 min 0,000 mm 0,0 UV-I 37 W/m² -2,2 °C 3,2 km/h (1 Bft)
28.12.2016 12:05 1,3 °C 1,3 °C 77 % 1044,3 hPa 0,0 mm 2,6 km/h (1 Bft) N-NW 336 ° 0 min 0,000 mm 0,0 UV-I 40 W/m² -2,3 °C 3,2 km/h (1 Bft)
28.12.2016 12:06 1,3 °C 1,3 °C 77 % 1044,3 hPa 0,0 mm 0,3 km/h (0 Bft) N-NW 336 ° 0 min 0,000 mm 0,0 UV-I 42 W/m² -2,3 °C 1,6 km/h (1 Bft)
28.12.2016 12:07 1,4 °C 1,4 °C 77 % 1044,2 hPa 0,0 mm 0,0 km/h (0 Bft) N-NW 336 ° 0 min 0,000 mm 0,0 UV-I 44 W/m² -2,2 °C 0,0 km/h (0 Bft)
28.12.2016 12:08 1,4 °C 1,4 °C 77 % 1044,2 hPa 0,0 mm 0,1 km/h (0 Bft) N-NW 336 ° 0 min 0,000 mm 0,0 UV-I 46 W/m² -2,2 °C 1,6 km/h (1 Bft)
28.12.2016 12:09 1,5 °C 1,5 °C 77 % 1044,1 hPa 0,0 mm 0,0 km/h (0 Bft) N-NW 336 ° 0 min 0,000 mm 0,0 UV-I 47 W/m² -2,1 °C 0,0 km/h (0 Bft)
28.12.2016 12:10 1,6 °C 1,6 °C 77 % 1044,1 hPa 0,0 mm 1,0 km/h (0 Bft) N-NW 336 ° 0 min 0,000 mm 0,0 UV-I 46 W/m² -2,0 °C 3,2 km/h (1 Bft)
28.12.2016 12:11 1,6 °C 1,6 °C 77 % 1044,1 hPa 0,0 mm 2,0 km/h (1 Bft) N-NW 336 ° 0 min 0,000 mm 0,0 UV-I 47 W/m² -2,0 °C 3,2 km/h (1 Bft)
28.12.2016 12:12 1,6 °C 1,6 °C 77 % 1044,1 hPa 0,0 mm 1,5 km/h (1 Bft) N-NW 336 ° 0 min 0,000 mm 0,0 UV-I 49 W/m² -2,0 °C 3,2 km/h (1 Bft)
28.12.2016 12:13 1,6 °C 1,6 °C 76 % 1044,2 hPa 0,0 mm 0,9 km/h (0 Bft) N-NW 336 ° 0 min 0,000 mm 0,0 UV-I 53 W/m² -2,2 °C 1,6 km/h (1 Bft)
28.12.2016 12:14 1,6 °C 1,6 °C 76 % 1044,1 hPa 0,0 mm 1,0 km/h (0 Bft) N-NW 336 ° 0 min 0,000 mm 0,0 UV-I 53 W/m² -2,2 °C 1,6 km/h (1 Bft)
28.12.2016 12:15 1,5 °C 1,6 °C 77 % 1044,1 hPa 0,0 mm 1,5 km/h (1 Bft) N-NW 337 ° 0 min 0,000 mm 0,0 UV-I 56 W/m² -2,1 °C 3,2 km/h (1 Bft)
28.12.2016 12:16 1,4 °C 1,6 °C 77 % 1044,1 hPa 0,0 mm 0,8 km/h (0 Bft) N-NW 337 ° 0 min 0,000 mm 0,9 UV-I 58 W/m² -2,2 °C 1,6 km/h (1 Bft)
28.12.2016 12:17 1,3 °C 1,4 °C 78 % 1044,1 hPa 0,0 mm 0,7 km/h (0 Bft) N-NW 337 ° 0 min 0,000 mm 0,9 UV-I 58 W/m² -2,1 °C 1,6 km/h (1 Bft)
28.12.2016 12:18 1,3 °C 1,3 °C 78 % 1044,1 hPa 0,0 mm 0,2 km/h (0 Bft) N-NW 337 ° 0 min 0,000 mm 0,9 UV-I 60 W/m² -2,1 °C 1,6 km/h (1 Bft)
28.12.2016 12:19 1,3 °C 1,3 °C 77 % 1044,1 hPa 0,0 mm 0,3 km/h (0 Bft) N-NW 337 ° 0 min 0,000 mm 0,9 UV-I 62 W/m² -2,3 °C 1,6 km/h (1 Bft)
28.12.2016 12:20 1,3 °C 1,3 °C 77 % 1044,1 hPa 0,0 mm 0,1 km/h (0 Bft) N-NW 337 ° 0 min 0,000 mm 0,9 UV-I 63 W/m² -2,3 °C 1,6 km/h (1 Bft)
28.12.2016 12:21 1,4 °C 1,4 °C 77 % 1044,1 hPa 0,0 mm 0,1 km/h (0 Bft) N-NW 337 ° 0 min 0,000 mm 1,0 UV-I 67 W/m² -2,2 °C 1,6 km/h (1 Bft)
28.12.2016 12:22 1,6 °C 1,6 °C 77 % 1044,1 hPa 0,0 mm 0,0 km/h (0 Bft) N-NW 337 ° 0 min 0,000 mm 1,0 UV-I 67 W/m² -2,0 °C 0,0 km/h (0 Bft)
28.12.2016 12:23 1,6 °C 1,6 °C 76 % 1044,0 hPa 0,0 mm 2,1 km/h (1 Bft) NW 310 ° 0 min 0,000 mm 0,9 UV-I 67 W/m² -2,2 °C 6,4 km/h (2 Bft)
28.12.2016 12:24 1,6 °C 1,6 °C 76 % 1044,0 hPa 0,0 mm 4,6 km/h (1 Bft) NW 320 ° 0 min 0,000 mm 0,9 UV-I 67 W/m² -2,2 °C 6,4 km/h (2 Bft)
28.12.2016 12:25 1,7 °C 1,7 °C 76 % 1044,0 hPa 0,0 mm 5,0 km/h (1 Bft) N-NW 338 ° 0 min 0,000 mm 0,9 UV-I 65 W/m² -2,1 °C 8,0 km/h (2 Bft)
28.12.2016 12:26 1,7 °C 1,7 °C 76 % 1044,0 hPa 0,0 mm 4,3 km/h (1 Bft) N-NW 338 ° 0 min 0,000 mm 0,9 UV-I 67 W/m² -2,1 °C 6,4 km/h (2 Bft)
28.12.2016 12:27 1,7 °C 1,7 °C 76 % 1043,9 hPa 0,0 mm 3,2 km/h (1 Bft) N-NW 338 ° 0 min 0,000 mm 0,9 UV-I 69 W/m² -2,1 °C 4,8 km/h (1 Bft)
28.12.2016 12:28 1,8 °C 1,8 °C 76 % 1044,0 hPa 0,0 mm 3,1 km/h (1 Bft) W-NW 300 ° 0 min 0,000 mm 0,9 UV-I 70 W/m² -2,0 °C 4,8 km/h (1 Bft)
28.12.2016 12:29 1,8 °C 1,8 °C 76 % 1044,0 hPa 0,0 mm 1,9 km/h (1 Bft) W-NW 300 ° 0 min 0,000 mm 0,9 UV-I 70 W/m² -2,0 °C 3,2 km/h (1 Bft)
28.12.2016 12:30 1,8 °C 1,8 °C 75 % 1044,0 hPa 0,0 mm 0,7 km/h (0 Bft) W-NW 300 ° 0 min 0,000 mm 0,9 UV-I 70 W/m² -2,1 °C 1,6 km/h (1 Bft)
28.12.2016 12:31 1,8 °C 1,9 °C 75 % 1044,0 hPa 0,0 mm 0,0 km/h (0 Bft) W-NW 300 ° 0 min 0,000 mm 0,9 UV-I 70 W/m² -2,1 °C 0,0 km/h (0 Bft)
28.12.2016 12:32 1,9 °C 1,9 °C 75 % 1043,9 hPa 0,0 mm 0,5 km/h (0 Bft) W-NW 300 ° 0 min 0,000 mm 0,9 UV-I 69 W/m² -2,1 °C 1,6 km/h (1 Bft)
28.12.2016 12:33 1,9 °C 1,9 °C 75 % 1044,0 hPa 0,0 mm 0,9 km/h (0 Bft) W-NW 300 ° 0 min 0,000 mm 0,9 UV-I 67 W/m² -2,1 °C 3,2 km/h (1 Bft)
28.12.2016 12:34 1,9 °C 1,9 °C 75 % 1043,9 hPa 0,0 mm 3,6 km/h (1 Bft) NW 320 ° 0 min 0,000 mm 0,9 UV-I 67 W/m² -2,1 °C 6,4 km/h (2 Bft)
28.12.2016 12:35 1,9 °C 1,9 °C 75 % 1043,9 hPa 0,0 mm 3,6 km/h (1 Bft) N-NO 13 ° 0 min 0,000 mm 0,9 UV-I 67 W/m² -2,1 °C 6,4 km/h (2 Bft)
28.12.2016 12:36 1,9 °C 1,9 °C 75 % 1043,8 hPa 0,0 mm 5,6 km/h (1 Bft) N-NO 12 ° 0 min 0,000 mm 0,9 UV-I 65 W/m² -2,1 °C 6,4 km/h (2 Bft)
28.12.2016 12:37 1,9 °C 1,9 °C 76 % 1043,8 hPa 0,0 mm 2,5 km/h (1 Bft) N-NO 12 ° 0 min 0,000 mm 0,9 UV-I 63 W/m² -1,9 °C 3,2 km/h (1 Bft)
28.12.2016 12:38 1,9 °C 1,9 °C 76 % 1043,8 hPa 0,0 mm 0,2 km/h (0 Bft) N-NO 12 ° 0 min 0,000 mm 0,9 UV-I 63 W/m² -1,9 °C 1,6 km/h (1 Bft)
28.12.2016 12:39 1,9 °C 1,9 °C 76 % 1043,8 hPa 0,0 mm 0,1 km/h (0 Bft) N-NO 12 ° 0 min 0,000 mm 0,9 UV-I 63 W/m² -1,9 °C 1,6 km/h (1 Bft)
28.12.2016 12:40 1,8 °C 1,9 °C 76 % 1043,8 hPa 0,0 mm 0,5 km/h (0 Bft) N-NO 12 ° 0 min 0,000 mm 0,9 UV-I 63 W/m² -2,0 °C 3,2 km/h (1 Bft)
28.12.2016 12:41 1,8 °C 1,9 °C 76 % 1043,7 hPa 0,0 mm 3,4 km/h (1 Bft) NW 323 ° 0 min 0,000 mm 0,9 UV-I 63 W/m² -2,0 °C 4,8 km/h (1 Bft)
28.12.2016 12:42 1,8 °C 1,8 °C 76 % 1043,7 hPa 0,0 mm 2,1 km/h (1 Bft) NW 322 ° 0 min 0,000 mm 0,9 UV-I 63 W/m² -2,0 °C 3,2 km/h (1 Bft)
28.12.2016 12:43 1,8 °C 1,8 °C 76 % 1043,7 hPa 0,0 mm 3,0 km/h (1 Bft) N-NO 15 ° 0 min 0,000 mm 0,9 UV-I 63 W/m² -2,0 °C 6,4 km/h (2 Bft)
28.12.2016 12:44 1,7 °C 1,8 °C 76 % 1043,6 hPa 0,0 mm 4,3 km/h (1 Bft) N-NO 15 ° 0 min 0,000 mm 0,9 UV-I 65 W/m² -2,1 °C 4,8 km/h (1 Bft)
28.12.2016 12:45 1,7 °C 1,7 °C 76 % 1043,6 hPa 0,0 mm 2,9 km/h (1 Bft) N-NO 15 ° 0 min 0,000 mm 0,9 UV-I 65 W/m² -2,1 °C 4,8 km/h (1 Bft)
28.12.2016 12:46 1,7 °C 1,7 °C 76 % 1043,6 hPa 0,0 mm 0,1 km/h (0 Bft) N-NO 15 ° 0 min 0,000 mm 0,9 UV-I 67 W/m² -2,1 °C 1,6 km/h (1 Bft)
28.12.2016 12:47 1,8 °C 1,8 °C 76 % 1043,5 hPa 0,0 mm 0,4 km/h (0 Bft) N-NO 15 ° 0 min 0,000 mm 0,9 UV-I 67 W/m² -2,0 °C 1,6 km/h (1 Bft)
28.12.2016 12:48 1,8 °C 1,8 °C 75 % 1043,5 hPa 0,0 mm 0,4 km/h (0 Bft) N-NO 15 ° 0 min 0,000 mm 0,9 UV-I 65 W/m² -2,1 °C 1,6 km/h (1 Bft)
28.12.2016 12:49 1,8 °C 1,8 °C 76 % 1043,5 hPa 0,0 mm 0,9 km/h (0 Bft) N-NO 15 ° 0 min 0,000 mm 0,9 UV-I 65 W/m² -2,0 °C 1,6 km/h (1 Bft)
28.12.2016 12:50 1,8 °C 1,8 °C 76 % 1043,4 hPa 0,0 mm 0,8 km/h (0 Bft) N-NO 15 ° 0 min 0,000 mm 0,9 UV-I 63 W/m² -2,0 °C 1,6 km/h (1 Bft)
28.12.2016 12:51 1,8 °C 1,8 °C 76 % 1043,4 hPa 0,0 mm 1,1 km/h (1 Bft) N-NO 15 ° 0 min 0,000 mm 0,9 UV-I 63 W/m² -2,0 °C 1,6 km/h (1 Bft)
28.12.2016 12:52 1,8 °C 1,8 °C 76 % 1043,4 hPa 0,0 mm 1,3 km/h (1 Bft) N-NO 15 ° 0 min 0,000 mm 0,9 UV-I 63 W/m² -2,0 °C 3,2 km/h (1 Bft)
28.12.2016 12:53 1,8 °C 1,8 °C 76 % 1043,4 hPa 0,0 mm 1,8 km/h (1 Bft) N-NO 14 ° 0 min 0,000 mm 0,9 UV-I 62 W/m² -2,0 °C 3,2 km/h (1 Bft)
28.12.2016 12:54 1,8 °C 1,8 °C 76 % 1043,4 hPa 0,0 mm 1,3 km/h (1 Bft) N-NO 15 ° 0 min 0,000 mm 0,9 UV-I 62 W/m² -2,0 °C 3,2 km/h (1 Bft)
28.12.2016 12:55 1,8 °C 1,8 °C 76 % 1043,4 hPa 0,0 mm 0,9 km/h (0 Bft) N-NO 15 ° 0 min 0,000 mm 0,9 UV-I 60 W/m² -2,0 °C 3,2 km/h (1 Bft)
28.12.2016 12:56 1,8 °C 1,8 °C 76 % 1043,4 hPa 0,0 mm 2,2 km/h (1 Bft) N-NO 15 ° 0 min 0,000 mm 0,9 UV-I 62 W/m² -2,0 °C 3,2 km/h (1 Bft)
28.12.2016 12:57 1,8 °C 1,8 °C 76 % 1043,4 hPa 0,0 mm 0,4 km/h (0 Bft) N-NO 14 ° 0 min 0,000 mm 0,9 UV-I 62 W/m² -2,0 °C 1,6 km/h (1 Bft)
28.12.2016 12:58 1,8 °C 1,8 °C 75 % 1043,4 hPa 0,0 mm 1,2 km/h (1 Bft) N-NO 15 ° 0 min 0,000 mm 0,9 UV-I 63 W/m² -2,1 °C 1,6 km/h (1 Bft)
28.12.2016 12:59 1,9 °C 1,9 °C 75 % 1043,3 hPa 0,0 mm 1,3 km/h (1 Bft) N-NO 15 ° 0 min 0,000 mm 0,9 UV-I 63 W/m² -2,1 °C 3,2 km/h (1 Bft)
28.12.2016 13:00 1,9 °C 1,9 °C 74 % 1043,3 hPa 0,0 mm 0,9 km/h (0 Bft) N-NO 15 ° 0 min 0,000 mm 0,9 UV-I 65 W/m² -2,2 °C 1,6 km/h (1 Bft)
28.12.2016 13:01 2,0 °C 2,0 °C 74 % 1043,3 hPa 0,0 mm 0,6 km/h (0 Bft) N-NO 15 ° 0 min 0,025 mm 0,9 UV-I 67 W/m² -2,1 °C 1,6 km/h (1 Bft)
28.12.2016 13:02 2,0 °C 2,0 °C 74 % 1043,2 hPa 0,0 mm 0,5 km/h (0 Bft) N-NO 15 ° 0 min 0,000 mm 0,9 UV-I 69 W/m² -2,1 °C 1,6 km/h (1 Bft)
28.12.2016 13:03 2,1 °C 2,1 °C 74 % 1043,2 hPa 0,0 mm 0,2 km/h (0 Bft) N-NO 15 ° 0 min 0,000 mm 0,9 UV-I 69 W/m² -2,0 °C 1,6 km/h (1 Bft)
28.12.2016 13:04 2,1 °C 2,1 °C 74 % 1043,2 hPa 0,0 mm 2,1 km/h (1 Bft) W-SW 254 ° 0 min 0,000 mm 0,9 UV-I 69 W/m² -2,0 °C 6,4 km/h (2 Bft)
28.12.2016 13:05 2,1 °C 2,1 °C 74 % 1043,2 hPa 0,0 mm 3,2 km/h (1 Bft) N-NW 329 ° 0 min 0,000 mm 0,9 UV-I 69 W/m² -2,0 °C 4,8 km/h (1 Bft)
28.12.2016 13:06 2,1 °C 2,1 °C 75 % 1043,2 hPa 0,0 mm 4,0 km/h (1 Bft) N-NW 328 ° 0 min 0,000 mm 0,9 UV-I 67 W/m² -1,9 °C 4,8 km/h (1 Bft)
28.12.2016 13:07 2,1 °C 2,1 °C 75 % 1043,1 hPa 0,0 mm 2,6 km/h (1 Bft) N-NW 328 ° 0 min 0,000 mm 0,9 UV-I 67 W/m² -1,9 °C 4,8 km/h (1 Bft)
28.12.2016 13:08 2,1 °C 2,1 °C 75 % 1043,1 hPa 0,0 mm 1,6 km/h (1 Bft) N-NW 328 ° 0 min 0,000 mm 0,9 UV-I 69 W/m² -1,9 °C 3,2 km/h (1 Bft)
28.12.2016 13:09 2,0 °C 2,1 °C 75 % 1043,1 hPa 0,0 mm 3,0 km/h (1 Bft) W-NW 298 ° 0 min 0,000 mm 0,9 UV-I 69 W/m² -2,0 °C 4,8 km/h (1 Bft)
28.12.2016 13:10 2,0 °C 2,0 °C 75 % 1043,0 hPa 0,0 mm 3,0 km/h (1 Bft) W-NW 293 ° 0 min 0,000 mm 0,9 UV-I 70 W/m² -2,0 °C 4,8 km/h (1 Bft)
28.12.2016 13:11 2,0 °C 2,0 °C 75 % 1043,1 hPa 0,0 mm 1,9 km/h (1 Bft) W-NW 293 ° 0 min 0,000 mm 0,9 UV-I 72 W/m² -2,0 °C 3,2 km/h (1 Bft)
28.12.2016 13:12 2,1 °C 2,1 °C 75 % 1043,1 hPa 0,0 mm 1,6 km/h (1 Bft) W-NW 293 ° 0 min 0,000 mm 0,9 UV-I 70 W/m² -1,9 °C 3,2 km/h (1 Bft)
28.12.2016 13:13 2,1 °C 2,1 °C 75 % 1043,1 hPa 0,0 mm 0,8 km/h (0 Bft) W-NW 293 ° 0 min 0,000 mm 0,9 UV-I 69 W/m² -1,9 °C 1,6 km/h (1 Bft)
28.12.2016 13:14 2,0 °C 2,1 °C 75 % 1043,1 hPa 0,0 mm 0,8 km/h (0 Bft) W-NW 293 ° 0 min 0,000 mm 0,9 UV-I 65 W/m² -2,0 °C 1,6 km/h (1 Bft)
28.12.2016 13:15 2,0 °C 2,0 °C 75 % 1043,1 hPa 0,0 mm 0,6 km/h (0 Bft) W-NW 293 ° 0 min 0,000 mm 0,9 UV-I 65 W/m² -2,0 °C 1,6 km/h (1 Bft)
28.12.2016 13:16 2,0 °C 2,1 °C 75 % 1043,1 hPa 0,0 mm 1,1 km/h (1 Bft) W-NW 293 ° 0 min 0,000 mm 0,8 UV-I 63 W/m² -2,0 °C 1,6 km/h (1 Bft)
28.12.2016 13:17 2,0 °C 2,1 °C 75 % 1043,0 hPa 0,0 mm 1,0 km/h (0 Bft) W-NW 293 ° 0 min 0,000 mm 0,8 UV-I 62 W/m² -2,0 °C 1,6 km/h (1 Bft)
28.12.2016 13:18 2,0 °C 2,0 °C 75 % 1043,0 hPa 0,0 mm 0,3 km/h (0 Bft) W-NW 293 ° 0 min 0,000 mm 0,8 UV-I 62 W/m² -2,0 °C 1,6 km/h (1 Bft)
28.12.2016 13:19 1,9 °C 2,0 °C 76 % 1043,0 hPa 0,0 mm 0,3 km/h (0 Bft) W-NW 293 ° 0 min 0,000 mm 0,8 UV-I 62 W/m² -1,9 °C 1,6 km/h (1 Bft)
28.12.2016 13:20 1,8 °C 1,9 °C 77 % 1043,0 hPa 0,0 mm 0,9 km/h (0 Bft) N-NW 338 ° 0 min 0,000 mm 0,8 UV-I 60 W/m² -1,8 °C 3,2 km/h (1 Bft)
28.12.2016 13:21 1,7 °C 1,8 °C 77 % 1043,0 hPa 0,0 mm 2,2 km/h (1 Bft) N-NW 338 ° 0 min 0,000 mm 0,8 UV-I 58 W/m² -1,9 °C 3,2 km/h (1 Bft)
28.12.2016 13:22 1,7 °C 1,7 °C 76 % 1043,0 hPa 0,0 mm 1,7 km/h (1 Bft) N-NW 338 ° 0 min 0,000 mm 0,8 UV-I 58 W/m² -2,1 °C 3,2 km/h (1 Bft)
28.12.2016 13:23 1,7 °C 1,7 °C 76 % 1043,0 hPa 0,0 mm 2,6 km/h (1 Bft) N-NW 338 ° 0 min 0,000 mm 0,8 UV-I 58 W/m² -2,1 °C 4,8 km/h (1 Bft)
28.12.2016 13:24 1,7 °C 1,7 °C 76 % 1043,0 hPa 0,0 mm 0,0 km/h (0 Bft) N-NW 338 ° 0 min 0,000 mm 0,8 UV-I 56 W/m² -2,1 °C 0,0 km/h (0 Bft)
28.12.2016 13:25 1,7 °C 1,8 °C 76 % 1043,0 hPa 0,0 mm 0,4 km/h (0 Bft) N-NW 338 ° 0 min 0,000 mm 0,0 UV-I 54 W/m² -2,1 °C 1,6 km/h (1 Bft)
28.12.2016 13:26 1,7 °C 1,7 °C 76 % 1042,9 hPa 0,0 mm 0,9 km/h (0 Bft) N-NW 338 ° 0 min 0,000 mm 0,0 UV-I 54 W/m² -2,1 °C 3,2 km/h (1 Bft)
28.12.2016 13:27 1,7 °C 1,7 °C 76 % 1042,9 hPa 0,0 mm 0,0 km/h (0 Bft) N-NW 338 ° 0 min 0,000 mm 0,0 UV-I 54 W/m² -2,1 °C 0,0 km/h (0 Bft)
28.12.2016 13:28 1,8 °C 1,8 °C 76 % 1042,8 hPa 0,0 mm 0,3 km/h (0 Bft) N-NW 338 ° 0 min 0,000 mm 0,0 UV-I 53 W/m² -2,0 °C 1,6 km/h (1 Bft)
28.12.2016 13:29 1,8 °C 1,8 °C 76 % 1042,9 hPa 0,0 mm 0,1 km/h (0 Bft) N-NW 338 ° 0 min 0,000 mm 0,0 UV-I 53 W/m² -2,0 °C 1,6 km/h (1 Bft)
28.12.2016 13:30 1,8 °C 1,8 °C 76 % 1042,8 hPa 0,0 mm 0,0 km/h (0 Bft) N-NW 338 ° 0 min 0,000 mm 0,0 UV-I 53 W/m² -2,0 °C 0,0 km/h (0 Bft)
28.12.2016 13:31 1,8 °C 1,8 °C 76 % 1042,8 hPa 0,0 mm 0,0 km/h (0 Bft) N-NW 338 ° 0 min 0,000 mm 0,0 UV-I 53 W/m² -2,0 °C 0,0 km/h (0 Bft)
28.12.2016 13:32 1,8 °C 1,8 °C 75 % 1042,8 hPa 0,0 mm 0,0 km/h (0 Bft) N-NW 338 ° 0 min 0,000 mm 0,0 UV-I 53 W/m² -2,1 °C 0,0 km/h (0 Bft)
28.12.2016 13:33 1,8 °C 1,8 °C 76 % 1042,8 hPa 0,0 mm 0,0 km/h (0 Bft) N-NW 338 ° 0 min 0,000 mm 0,0 UV-I 51 W/m² -2,0 °C 0,0 km/h (0 Bft)
28.12.2016 13:34 1,8 °C 1,8 °C 75 % 1042,7 hPa 0,0 mm 0,0 km/h (0 Bft) N-NW 338 ° 0 min 0,000 mm 0,0 UV-I 51 W/m² -2,1 °C 0,0 km/h (0 Bft)
28.12.2016 13:35 1,9 °C 1,9 °C 75 % 1042,7 hPa 0,0 mm 0,0 km/h (0 Bft) N-NW 338 ° 0 min 0,000 mm 0,0 UV-I 49 W/m² -2,1 °C 0,0 km/h (0 Bft)
28.12.2016 13:36 1,9 °C 1,9 °C 75 % 1042,6 hPa 0,0 mm 0,0 km/h (0 Bft) N-NW 338 ° 0 min 0,000 mm 0,0 UV-I 49 W/m² -2,1 °C 0,0 km/h (0 Bft)
28.12.2016 13:37 1,9 °C 1,9 °C 75 % 1042,7 hPa 0,0 mm 0,0 km/h (0 Bft) N-NW 338 ° 0 min 0,000 mm 0,0 UV-I 51 W/m² -2,1 °C 0,0 km/h (0 Bft)
28.12.2016 13:38 1,9 °C 1,9 °C 75 % 1042,7 hPa 0,0 mm 0,0 km/h (0 Bft) N-NW 338 ° 0 min 0,000 mm 0,0 UV-I 49 W/m² -2,1 °C 0,0 km/h (0 Bft)
28.12.2016 13:39 1,8 °C 1,9 °C 75 % 1042,6 hPa 0,0 mm 0,2 km/h (0 Bft) N-NW 338 ° 0 min 0,000 mm 0,0 UV-I 49 W/m² -2,1 °C 1,6 km/h (1 Bft)
28.12.2016 13:40 1,8 °C 1,8 °C 75 % 1042,7 hPa 0,0 mm 1,7 km/h (1 Bft) N-NW 338 ° 0 min 0,000 mm 0,0 UV-I 51 W/m² -2,1 °C 3,2 km/h (1 Bft)
28.12.2016 13:41 1,8 °C 1,8 °C 75 % 1042,6 hPa 0,0 mm 1,7 km/h (1 Bft) N-NW 338 ° 0 min 0,000 mm 0,0 UV-I 51 W/m² -2,1 °C 3,2 km/h (1 Bft)
28.12.2016 13:42 1,8 °C 1,8 °C 75 % 1042,6 hPa 0,0 mm 1,9 km/h (1 Bft) N-NW 338 ° 0 min 0,000 mm 0,0 UV-I 53 W/m² -2,1 °C 3,2 km/h (1 Bft)
28.12.2016 13:43 1,7 °C 1,8 °C 76 % 1042,6 hPa 0,0 mm 1,2 km/h (1 Bft) N-NW 338 ° 0 min 0,000 mm 0,8 UV-I 60 W/m² -2,1 °C 1,6 km/h (1 Bft)
28.12.2016 13:44 1,8 °C 1,8 °C 76 % 1042,5 hPa 0,0 mm 1,2 km/h (1 Bft) N-NW 344 ° 0 min 0,000 mm 0,8 UV-I 63 W/m² -2,0 °C 3,2 km/h (1 Bft)
28.12.2016 13:45 1,8 °C 1,8 °C 76 % 1042,5 hPa 0,0 mm 1,7 km/h (1 Bft) N-NW 344 ° 0 min 0,000 mm 0,8 UV-I 69 W/m² -2,0 °C 3,2 km/h (1 Bft)
28.12.2016 13:46 1,8 °C 1,8 °C 76 % 1042,5 hPa 0,0 mm 0,6 km/h (0 Bft) N-NW 344 ° 0 min 0,000 mm 0,8 UV-I 70 W/m² -2,0 °C 1,6 km/h (1 Bft)
28.12.2016 13:47 1,8 °C 1,8 °C 76 % 1042,4 hPa 0,0 mm 0,1 km/h (0 Bft) N-NW 344 ° 0 min 0,000 mm 0,8 UV-I 69 W/m² -2,0 °C 1,6 km/h (1 Bft)
28.12.2016 13:48 1,8 °C 1,8 °C 76 % 1042,4 hPa 0,0 mm 0,7 km/h (0 Bft) N-NW 344 ° 0 min 0,000 mm 0,8 UV-I 72 W/m² -2,0 °C 1,6 km/h (1 Bft)
28.12.2016 13:49 1,8 °C 1,8 °C 76 % 1042,5 hPa 0,0 mm 0,1 km/h (0 Bft) N-NW 344 ° 0 min 0,000 mm 0,8 UV-I 113 W/m² -2,0 °C 1,6 km/h (1 Bft)
28.12.2016 13:50 1,9 °C 1,9 °C 75 % 1042,5 hPa 0,0 mm 0,0 km/h (0 Bft) N-NW 344 ° 0 min 0,000 mm 0,9 UV-I 169 W/m² -2,1 °C 0,0 km/h (0 Bft)
28.12.2016 13:51 1,9 °C 1,9 °C 75 % 1042,5 hPa 0,0 mm 0,0 km/h (0 Bft) N-NW 344 ° 1 min 0,000 mm 0,9 UV-I 204 W/m² -2,1 °C 0,0 km/h (0 Bft)
28.12.2016 13:52 2,1 °C 2,1 °C 74 % 1042,5 hPa 0,0 mm 0,0 km/h (0 Bft) N-NW 344 ° 0 min 0,000 mm 0,9 UV-I 190 W/m² -2,0 °C 0,0 km/h (0 Bft)
28.12.2016 13:53 2,2 °C 2,2 °C 74 % 1042,5 hPa 0,0 mm 0,1 km/h (0 Bft) N-NW 344 ° 1 min 0,000 mm 0,9 UV-I 220 W/m² -1,9 °C 1,6 km/h (1 Bft)
28.12.2016 13:54 2,3 °C 2,3 °C 74 % 1042,4 hPa 0,0 mm 0,1 km/h (0 Bft) N-NW 344 ° 1 min 0,000 mm 0,9 UV-I 239 W/m² -1,8 °C 1,6 km/h (1 Bft)
28.12.2016 13:55 2,3 °C 2,3 °C 74 % 1042,4 hPa 0,0 mm 0,4 km/h (0 Bft) N-NW 344 ° 1 min 0,000 mm 0,9 UV-I 248 W/m² -1,8 °C 3,2 km/h (1 Bft)
28.12.2016 13:56 2,2 °C 2,3 °C 74 % 1042,4 hPa 0,0 mm 1,8 km/h (1 Bft) N-NW 344 ° 1 min 0,000 mm 0,9 UV-I 246 W/m² -1,9 °C 3,2 km/h (1 Bft)
28.12.2016 13:57 2,2 °C 2,2 °C 74 % 1042,4 hPa 0,0 mm 0,9 km/h (0 Bft) N-NW 344 ° 1 min 0,000 mm 0,9 UV-I 248 W/m² -1,9 °C 1,6 km/h (1 Bft)
28.12.2016 13:58 2,2 °C 2,2 °C 74 % 1042,3 hPa 0,0 mm 0,0 km/h (0 Bft) N-NW 344 ° 1 min 0,000 mm 0,9 UV-I 237 W/m² -1,9 °C 0,0 km/h (0 Bft)
28.12.2016 13:59 2,2 °C 2,2 °C 74 % 1042,2 hPa 0,0 mm 0,1 km/h (0 Bft) N-NW 344 ° 1 min 0,000 mm 0,9 UV-I 248 W/m² -1,9 °C 1,6 km/h (1 Bft)
28.12.2016 14:00 2,3 °C 2,3 °C 74 % 1042,3 hPa 0,0 mm 0,0 km/h (0 Bft) N-NW 344 ° 1 min 0,000 mm 0,9 UV-I 253 W/m² -1,8 °C 0,0 km/h (0 Bft)
28.12.2016 14:01 2,4 °C 2,4 °C 73 % 1042,2 hPa 0,0 mm 0,4 km/h (0 Bft) N-NW 344 ° 1 min 0,026 mm 0,9 UV-I 251 W/m² -1,9 °C 1,6 km/h (1 Bft)
28.12.2016 14:02 2,4 °C 2,4 °C 73 % 1042,2 hPa 0,0 mm 0,8 km/h (0 Bft) N-NW 344 ° 1 min 0,000 mm 0,8 UV-I 206 W/m² -1,9 °C 1,6 km/h (1 Bft)
28.12.2016 14:03 2,4 °C 2,4 °C 73 % 1042,2 hPa 0,0 mm 3,9 km/h (1 Bft) O-SO 105 ° 0 min 0,000 mm 0,8 UV-I 142 W/m² -1,9 °C 4,8 km/h (1 Bft)
28.12.2016 14:04 2,4 °C 2,4 °C 73 % 1042,2 hPa 0,0 mm 3,0 km/h (1 Bft) O-SO 105 ° 0 min 0,000 mm 0,8 UV-I 105 W/m² -1,9 °C 4,8 km/h (1 Bft)
28.12.2016 14:05 2,4 °C 2,4 °C 73 % 1042,2 hPa 0,0 mm 2,5 km/h (1 Bft) O-SO 105 ° 0 min 0,000 mm 0,7 UV-I 95 W/m² -1,9 °C 3,2 km/h (1 Bft)
28.12.2016 14:06 2,5 °C 2,5 °C 73 % 1042,2 hPa 0,0 mm 0,9 km/h (0 Bft) O-SO 105 ° 0 min 0,000 mm 0,7 UV-I 81 W/m² -1,8 °C 1,6 km/h (1 Bft)
28.12.2016 14:07 2,5 °C 2,5 °C 73 % 1042,3 hPa 0,0 mm 0,2 km/h (0 Bft) O-SO 105 ° 0 min 0,000 mm 0,7 UV-I 79 W/m² -1,8 °C 1,6 km/h (1 Bft)
28.12.2016 14:08 2,5 °C 2,5 °C 73 % 1042,2 hPa 0,0 mm 0,5 km/h (0 Bft) O-SO 105 ° 0 min 0,000 mm 0,7 UV-I 79 W/m² -1,8 °C 1,6 km/h (1 Bft)
28.12.2016 14:09 2,4 °C 2,5 °C 73 % 1042,3 hPa 0,0 mm 0,9 km/h (0 Bft) O-SO 105 ° 0 min 0,000 mm 0,7 UV-I 79 W/m² -1,9 °C 1,6 km/h (1 Bft)
28.12.2016 14:10 2,4 °C 2,4 °C 73 % 1042,2 hPa 0,0 mm 0,3 km/h (0 Bft) O-SO 105 ° 0 min 0,000 mm 0,7 UV-I 79 W/m² -1,9 °C 1,6 km/h (1 Bft)
28.12.2016 14:11 2,4 °C 2,4 °C 73 % 1042,2 hPa 0,0 mm 0,0 km/h (0 Bft) O-SO 105 ° 0 min 0,000 mm 0,7 UV-I 74 W/m² -1,9 °C 0,0 km/h (0 Bft)
28.12.2016 14:12 2,4 °C 2,4 °C 73 % 1042,2 hPa 0,0 mm 0,0 km/h (0 Bft) O-SO 105 ° 0 min 0,000 mm 0,7 UV-I 70 W/m² -1,9 °C 0,0 km/h (0 Bft)
28.12.2016 14:13 2,4 °C 2,4 °C 73 % 1042,2 hPa 0,0 mm 0,0 km/h (0 Bft) O-SO 105 ° 0 min 0,000 mm 0,7 UV-I 70 W/m² -1,9 °C 0,0 km/h (0 Bft)
28.12.2016 14:14 2,3 °C 2,4 °C 74 % 1042,2 hPa 0,0 mm 0,0 km/h (0 Bft) O-SO 105 ° 0 min 0,000 mm 0,7 UV-I 70 W/m² -1,8 °C 0,0 km/h (0 Bft)
28.12.2016 14:15 2,1 °C 2,3 °C 75 % 1042,2 hPa 0,0 mm 0,0 km/h (0 Bft) O-SO 105 ° 0 min 0,000 mm 0,7 UV-I 69 W/m² -1,9 °C 0,0 km/h (0 Bft)
28.12.2016 14:16 2,1 °C 2,1 °C 75 % 1042,2 hPa 0,0 mm 0,0 km/h (0 Bft) O-SO 105 ° 0 min 0,000 mm 0,7 UV-I 67 W/m² -1,9 °C 0,0 km/h (0 Bft)
28.12.2016 14:17 2,1 °C 2,1 °C 74 % 1042,1 hPa 0,0 mm 0,0 km/h (0 Bft) O-SO 105 ° 0 min 0,000 mm 0,7 UV-I 69 W/m² -2,0 °C 0,0 km/h (0 Bft)
28.12.2016 14:18 2,2 °C 2,2 °C 74 % 1042,1 hPa 0,0 mm 0,8 km/h (0 Bft) O-SO 105 ° 0 min 0,000 mm 0,7 UV-I 67 W/m² -1,9 °C 1,6 km/h (1 Bft)
28.12.2016 14:19 2,2 °C 2,2 °C 74 % 1042,1 hPa 0,0 mm 0,6 km/h (0 Bft) O-SO 105 ° 0 min 0,000 mm 0,6 UV-I 67 W/m² -1,9 °C 1,6 km/h (1 Bft)
28.12.2016 14:20 2,2 °C 2,2 °C 75 % 1042,1 hPa 0,0 mm 0,1 km/h (0 Bft) O-SO 105 ° 0 min 0,000 mm 0,6 UV-I 65 W/m² -1,8 °C 1,6 km/h (1 Bft)
28.12.2016 14:21 2,2 °C 2,2 °C 75 % 1042,1 hPa 0,0 mm 0,0 km/h (0 Bft) O-SO 105 ° 0 min 0,000 mm 0,6 UV-I 65 W/m² -1,8 °C 0,0 km/h (0 Bft)
28.12.2016 14:22 2,1 °C 2,2 °C 75 % 1042,1 hPa 0,0 mm 0,0 km/h (0 Bft) O-SO 105 ° 0 min 0,000 mm 0,6 UV-I 63 W/m² -1,9 °C 0,0 km/h (0 Bft)
28.12.2016 14:23 2,1 °C 2,1 °C 75 % 1042,1 hPa 0,0 mm 0,0 km/h (0 Bft) O-SO 105 ° 0 min 0,000 mm 0,6 UV-I 62 W/m² -1,9 °C 0,0 km/h (0 Bft)
28.12.2016 14:24 2,1 °C 2,2 °C 75 % 1042,0 hPa 0,0 mm 1,7 km/h (1 Bft) O-SO 105 ° 0 min 0,000 mm 0,6 UV-I 60 W/m² -1,9 °C 3,2 km/h (1 Bft)
28.12.2016 14:25 2,2 °C 2,2 °C 75 % 1042,0 hPa 0,0 mm 1,0 km/h (0 Bft) O-SO 105 ° 0 min 0,000 mm 0,6 UV-I 58 W/m² -1,8 °C 1,6 km/h (1 Bft)
28.12.2016 14:26 2,2 °C 2,2 °C 75 % 1042,0 hPa 0,0 mm 1,8 km/h (1 Bft) O-SO 105 ° 0 min 0,000 mm 0,6 UV-I 56 W/m² -1,8 °C 3,2 km/h (1 Bft)
28.12.2016 14:27 2,2 °C 2,2 °C 75 % 1042,0 hPa 0,0 mm 2,5 km/h (1 Bft) O-SO 105 ° 0 min 0,000 mm 0,6 UV-I 56 W/m² -1,8 °C 3,2 km/h (1 Bft)
28.12.2016 14:28 2,2 °C 2,2 °C 75 % 1042,1 hPa 0,0 mm 2,3 km/h (1 Bft) O-SO 110 ° 0 min 0,000 mm 0,0 UV-I 54 W/m² -1,8 °C 3,2 km/h (1 Bft)
28.12.2016 14:29 2,2 °C 2,2 °C 75 % 1042,0 hPa 0,0 mm 1,0 km/h (0 Bft) N-NO 29 ° 0 min 0,000 mm 0,0 UV-I 53 W/m² -1,8 °C 3,2 km/h (1 Bft)
28.12.2016 14:30 2,2 °C 2,2 °C 75 % 1042,1 hPa 0,0 mm 1,6 km/h (1 Bft) N-NO 29 ° 0 min 0,000 mm 0,0 UV-I 51 W/m² -1,8 °C 3,2 km/h (1 Bft)
28.12.2016 14:31 2,1 °C 2,2 °C 75 % 1042,1 hPa 0,0 mm 3,0 km/h (1 Bft) N 5 ° 0 min 0,000 mm 0,0 UV-I 49 W/m² -1,9 °C 4,8 km/h (1 Bft)
28.12.2016 14:32 2,0 °C 2,1 °C 76 % 1042,1 hPa 0,0 mm 3,0 km/h (1 Bft) W 279 ° 0 min 0,000 mm 0,0 UV-I 49 W/m² -1,8 °C 4,8 km/h (1 Bft)
28.12.2016 14:33 2,0 °C 2,0 °C 76 % 1042,0 hPa 0,0 mm 2,9 km/h (1 Bft) W 279 ° 0 min 0,000 mm 0,0 UV-I 49 W/m² -1,8 °C 4,8 km/h (1 Bft)
28.12.2016 14:34 2,0 °C 2,0 °C 76 % 1042,0 hPa 0,0 mm 2,5 km/h (1 Bft) W 279 ° 0 min 0,000 mm 0,0 UV-I 49 W/m² -1,8 °C 3,2 km/h (1 Bft)
28.12.2016 14:35 2,0 °C 2,0 °C 75 % 1041,9 hPa 0,0 mm 2,0 km/h (1 Bft) W 279 ° 0 min 0,000 mm 0,0 UV-I 49 W/m² -2,0 °C 3,2 km/h (1 Bft)
28.12.2016 14:36 2,0 °C 2,0 °C 75 % 1042,0 hPa 0,0 mm 1,7 km/h (1 Bft) W 278 ° 0 min 0,000 mm 0,0 UV-I 49 W/m² -2,0 °C 3,2 km/h (1 Bft)
28.12.2016 14:37 2,0 °C 2,0 °C 75 % 1041,9 hPa 0,0 mm 1,4 km/h (1 Bft) W 279 ° 0 min 0,000 mm 0,0 UV-I 49 W/m² -2,0 °C 1,6 km/h (1 Bft)
28.12.2016 14:38 2,0 °C 2,0 °C 75 % 1041,9 hPa 0,0 mm 1,4 km/h (1 Bft) W 278 ° 0 min 0,000 mm 0,0 UV-I 49 W/m² -2,0 °C 1,6 km/h (1 Bft)
28.12.2016 14:39 2,0 °C 2,0 °C 75 % 1041,9 hPa 0,0 mm 1,3 km/h (1 Bft) W 279 ° 0 min 0,000 mm 0,0 UV-I 49 W/m² -2,0 °C 3,2 km/h (1 Bft)
28.12.2016 14:40 2,0 °C 2,0 °C 75 % 1042,0 hPa 0,0 mm 1,1 km/h (1 Bft) W 279 ° 0 min 0,000 mm 0,0 UV-I 51 W/m² -2,0 °C 1,6 km/h (1 Bft)
28.12.2016 14:41 2,1 °C 2,1 °C 75 % 1042,0 hPa 0,0 mm 0,1 km/h (0 Bft) W 278 ° 0 min 0,000 mm 0,0 UV-I 51 W/m² -1,9 °C 1,6 km/h (1 Bft)
28.12.2016 14:42 2,1 °C 2,1 °C 75 % 1042,0 hPa 0,0 mm 0,3 km/h (0 Bft) W 278 ° 0 min 0,000 mm 0,0 UV-I 51 W/m² -1,9 °C 1,6 km/h (1 Bft)
28.12.2016 14:43 1,9 °C 2,1 °C 75 % 1042,1 hPa 0,0 mm 0,7 km/h (0 Bft) W 279 ° 0 min 0,000 mm 0,0 UV-I 51 W/m² -2,1 °C 1,6 km/h (1 Bft)
28.12.2016 14:44 1,8 °C 1,9 °C 76 % 1042,1 hPa 0,0 mm 0,8 km/h (0 Bft) W 279 ° 0 min 0,000 mm 0,0 UV-I 49 W/m² -2,0 °C 1,6 km/h (1 Bft)
28.12.2016 14:45 1,7 °C 1,8 °C 76 % 1042,1 hPa 0,0 mm 0,7 km/h (0 Bft) W 279 ° 0 min 0,000 mm 0,0 UV-I 49 W/m² -2,1 °C 1,6 km/h (1 Bft)
28.12.2016 14:46 1,6 °C 1,7 °C 77 % 1042,2 hPa 0,0 mm 0,0 km/h (0 Bft) W 279 ° 0 min 0,000 mm 0,0 UV-I 51 W/m² -2,0 °C 0,0 km/h (0 Bft)
28.12.2016 14:47 1,6 °C 1,7 °C 77 % 1042,1 hPa 0,0 mm 0,0 km/h (0 Bft) W 279 ° 0 min 0,000 mm 0,0 UV-I 53 W/m² -2,0 °C 0,0 km/h (0 Bft)
28.12.2016 14:48 1,6 °C 1,6 °C 77 % 1042,1 hPa 0,0 mm 1,5 km/h (1 Bft) W 279 ° 0 min 0,000 mm 0,0 UV-I 53 W/m² -2,0 °C 3,2 km/h (1 Bft)
28.12.2016 14:49 1,6 °C 1,6 °C 77 % 1042,1 hPa 0,0 mm 1,3 km/h (1 Bft) W 279 ° 0 min 0,000 mm 0,0 UV-I 53 W/m² -2,0 °C 3,2 km/h (1 Bft)
28.12.2016 14:50 1,7 °C 1,7 °C 77 % 1042,1 hPa 0,0 mm 0,1 km/h (0 Bft) W 279 ° 0 min 0,000 mm 0,0 UV-I 53 W/m² -1,9 °C 1,6 km/h (1 Bft)
28.12.2016 14:51 1,7 °C 1,7 °C 77 % 1042,1 hPa 0,0 mm 0,4 km/h (0 Bft) W 279 ° 0 min 0,000 mm 0,0 UV-I 51 W/m² -1,9 °C 1,6 km/h (1 Bft)
28.12.2016 14:52 1,7 °C 1,7 °C 77 % 1042,1 hPa 0,0 mm 0,1 km/h (0 Bft) W 279 ° 0 min 0,000 mm 0,0 UV-I 51 W/m² -1,9 °C 1,6 km/h (1 Bft)
28.12.2016 14:53 1,7 °C 1,7 °C 77 % 1042,1 hPa 0,0 mm 2,1 km/h (1 Bft) W-NW 301 ° 0 min 0,000 mm 0,0 UV-I 53 W/m² -1,9 °C 8,0 km/h (2 Bft)
28.12.2016 14:54 1,7 °C 1,7 °C 78 % 1042,1 hPa 0,0 mm 3,7 km/h (1 Bft) NW 323 ° 0 min 0,000 mm 0,0 UV-I 53 W/m² -1,7 °C 6,4 km/h (2 Bft)
28.12.2016 14:55 1,7 °C 1,7 °C 77 % 1042,1 hPa 0,0 mm 3,6 km/h (1 Bft) NW 310 ° 0 min 0,000 mm 0,0 UV-I 54 W/m² -1,9 °C 6,4 km/h (2 Bft)
28.12.2016 14:56 1,8 °C 1,8 °C 77 % 1042,1 hPa 0,0 mm 4,7 km/h (1 Bft) NW 314 ° 0 min 0,000 mm 0,0 UV-I 54 W/m² -1,8 °C 6,4 km/h (2 Bft)
28.12.2016 14:57 1,8 °C 1,8 °C 77 % 1042,1 hPa 0,0 mm 2,8 km/h (1 Bft) NW 310 ° 0 min 0,000 mm 0,0 UV-I 54 W/m² -1,8 °C 4,8 km/h (1 Bft)
28.12.2016 14:58 1,8 °C 1,8 °C 77 % 1042,1 hPa 0,0 mm 2,2 km/h (1 Bft) NW 307 ° 0 min 0,000 mm 0,0 UV-I 54 W/m² -1,8 °C 3,2 km/h (1 Bft)
28.12.2016 14:59 1,8 °C 1,8 °C 77 % 1042,1 hPa 0,0 mm 2,3 km/h (1 Bft) NW 307 ° 0 min 0,000 mm 0,0 UV-I 54 W/m² -1,8 °C 3,2 km/h (1 Bft)
28.12.2016 15:00 1,8 °C 1,8 °C 77 % 1042,1 hPa 0,0 mm 2,5 km/h (1 Bft) NW 307 ° 0 min 0,000 mm 0,0 UV-I 54 W/m² -1,8 °C 3,2 km/h (1 Bft)
28.12.2016 15:01 1,8 °C 1,8 °C 77 % 1042,2 hPa 0,0 mm 1,7 km/h (1 Bft) NW 307 ° 0 min 0,025 mm 0,0 UV-I 54 W/m² -1,8 °C 3,2 km/h (1 Bft)
28.12.2016 15:02 1,8 °C 1,9 °C 77 % 1042,2 hPa 0,0 mm 1,7 km/h (1 Bft) NW 307 ° 0 min 0,000 mm 0,0 UV-I 53 W/m² -1,8 °C 3,2 km/h (1 Bft)
28.12.2016 15:03 1,9 °C 1,9 °C 76 % 1042,1 hPa 0,0 mm 2,3 km/h (1 Bft) NW 306 ° 0 min 0,000 mm 0,0 UV-I 53 W/m² -1,9 °C 4,8 km/h (1 Bft)
28.12.2016 15:04 1,9 °C 1,9 °C 76 % 1042,2 hPa 0,0 mm 1,3 km/h (1 Bft) NW 306 ° 0 min 0,000 mm 0,0 UV-I 53 W/m² -1,9 °C 3,2 km/h (1 Bft)
28.12.2016 15:05 1,9 °C 1,9 °C 76 % 1042,1 hPa 0,0 mm 0,6 km/h (0 Bft) NW 306 ° 0 min 0,000 mm 0,0 UV-I 47 W/m² -1,9 °C 1,6 km/h (1 Bft)
28.12.2016 15:06 1,9 °C 1,9 °C 76 % 1042,1 hPa 0,0 mm 1,2 km/h (1 Bft) NW 306 ° 0 min 0,000 mm 0,0 UV-I 46 W/m² -1,9 °C 1,6 km/h (1 Bft)
28.12.2016 15:07 1,9 °C 1,9 °C 77 % 1042,1 hPa 0,0 mm 0,5 km/h (0 Bft) NW 306 ° 0 min 0,000 mm 0,0 UV-I 44 W/m² -1,7 °C 1,6 km/h (1 Bft)
28.12.2016 15:08 1,9 °C 1,9 °C 76 % 1042,1 hPa 0,0 mm 1,3 km/h (1 Bft) NW 306 ° 0 min 0,000 mm 0,0 UV-I 42 W/m² -1,9 °C 3,2 km/h (1 Bft)
28.12.2016 15:09 1,8 °C 1,9 °C 76 % 1042,1 hPa 0,0 mm 2,0 km/h (1 Bft) NW 306 ° 0 min 0,000 mm 0,0 UV-I 40 W/m² -2,0 °C 3,2 km/h (1 Bft)
28.12.2016 15:10 1,8 °C 1,9 °C 77 % 1042,1 hPa 0,0 mm 0,7 km/h (0 Bft) NW 306 ° 0 min 0,000 mm 0,0 UV-I 39 W/m² -1,8 °C 1,6 km/h (1 Bft)
28.12.2016 15:11 1,8 °C 1,8 °C 77 % 1042,1 hPa 0,0 mm 1,4 km/h (1 Bft) NW 306 ° 0 min 0,000 mm 0,0 UV-I 35 W/m² -1,8 °C 3,2 km/h (1 Bft)
28.12.2016 15:12 1,7 °C 1,8 °C 76 % 1042,2 hPa 0,0 mm 2,3 km/h (1 Bft) NW 306 ° 0 min 0,000 mm 0,0 UV-I 33 W/m² -2,1 °C 3,2 km/h (1 Bft)
28.12.2016 15:13 1,7 °C 1,7 °C 76 % 1042,1 hPa 0,0 mm 0,8 km/h (0 Bft) NW 306 ° 0 min 0,000 mm 0,0 UV-I 32 W/m² -2,1 °C 1,6 km/h (1 Bft)
28.12.2016 15:14 1,7 °C 1,7 °C 76 % 1042,1 hPa 0,0 mm 0,0 km/h (0 Bft) NW 306 ° 0 min 0,000 mm 0,0 UV-I 30 W/m² -2,1 °C 0,0 km/h (0 Bft)
28.12.2016 15:15 1,7 °C 1,7 °C 76 % 1042,1 hPa 0,0 mm 0,3 km/h (0 Bft) NW 306 ° 0 min 0,000 mm 0,0 UV-I 30 W/m² -2,1 °C 1,6 km/h (1 Bft)
28.12.2016 15:16 1,7 °C 1,7 °C 76 % 1042,1 hPa 0,0 mm 0,8 km/h (0 Bft) NW 306 ° 0 min 0,000 mm 0,0 UV-I 28 W/m² -2,1 °C 1,6 km/h (1 Bft)
28.12.2016 15:17 1,6 °C 1,7 °C 77 % 1042,0 hPa 0,0 mm 1,5 km/h (1 Bft) NW 306 ° 0 min 0,000 mm 0,0 UV-I 26 W/m² -2,0 °C 3,2 km/h (1 Bft)
28.12.2016 15:18 1,6 °C 1,7 °C 77 % 1042,0 hPa 0,0 mm 0,1 km/h (0 Bft) NW 306 ° 0 min 0,000 mm 0,0 UV-I 25 W/m² -2,0 °C 1,6 km/h (1 Bft)
28.12.2016 15:19 1,7 °C 1,7 °C 77 % 1042,1 hPa 0,0 mm 0,5 km/h (0 Bft) NW 306 ° 0 min 0,000 mm 0,0 UV-I 25 W/m² -1,9 °C 1,6 km/h (1 Bft)
28.12.2016 15:20 1,7 °C 1,7 °C 77 % 1042,1 hPa 0,0 mm 0,8 km/h (0 Bft) NW 306 ° 0 min 0,000 mm 0,0 UV-I 25 W/m² -1,9 °C 1,6 km/h (1 Bft)
28.12.2016 15:21 1,7 °C 1,7 °C 76 % 1042,1 hPa 0,0 mm 0,0 km/h (0 Bft) NW 306 ° 0 min 0,000 mm 0,0 UV-I 25 W/m² -2,1 °C 0,0 km/h (0 Bft)
28.12.2016 15:22 1,7 °C 1,7 °C 76 % 1042,0 hPa 0,0 mm 0,9 km/h (0 Bft) NW 306 ° 0 min 0,000 mm 0,0 UV-I 25 W/m² -2,1 °C 1,6 km/h (1 Bft)
28.12.2016 15:23 1,7 °C 1,7 °C 76 % 1042,0 hPa 0,0 mm 0,7 km/h (0 Bft) NW 306 ° 0 min 0,000 mm 0,0 UV-I 25 W/m² -2,1 °C 1,6 km/h (1 Bft)
28.12.2016 15:24 1,7 °C 1,7 °C 76 % 1042,0 hPa 0,0 mm 0,3 km/h (0 Bft) NW 306 ° 0 min 0,000 mm 0,0 UV-I 25 W/m² -2,1 °C 1,6 km/h (1 Bft)
28.12.2016 15:25 1,7 °C 1,7 °C 76 % 1041,9 hPa 0,0 mm 0,1 km/h (0 Bft) NW 306 ° 0 min 0,000 mm 0,0 UV-I 25 W/m² -2,1 °C 1,6 km/h (1 Bft)
28.12.2016 15:26 1,7 °C 1,7 °C 76 % 1042,0 hPa 0,0 mm 0,4 km/h (0 Bft) NW 306 ° 0 min 0,000 mm 0,0 UV-I 25 W/m² -2,1 °C 1,6 km/h (1 Bft)
28.12.2016 15:27 1,7 °C 1,7 °C 76 % 1041,9 hPa 0,0 mm 0,1 km/h (0 Bft) NW 306 ° 0 min 0,000 mm 0,0 UV-I 23 W/m² -2,1 °C 1,6 km/h (1 Bft)
28.12.2016 15:28 1,7 °C 1,7 °C 76 % 1041,9 hPa 0,0 mm 0,0 km/h (0 Bft) NW 306 ° 0 min 0,000 mm 0,0 UV-I 23 W/m² -2,1 °C 0,0 km/h (0 Bft)
28.12.2016 15:29 1,7 °C 1,7 °C 76 % 1041,9 hPa 0,0 mm 1,0 km/h (0 Bft) NW 306 ° 0 min 0,000 mm 0,0 UV-I 23 W/m² -2,1 °C 3,2 km/h (1 Bft)
28.12.2016 15:30 1,7 °C 1,7 °C 76 % 1041,9 hPa 0,0 mm 1,4 km/h (1 Bft) NW 306 ° 0 min 0,000 mm 0,0 UV-I 23 W/m² -2,1 °C 1,6 km/h (1 Bft)
28.12.2016 15:31 1,7 °C 1,7 °C 76 % 1041,9 hPa 0,0 mm 3,0 km/h (1 Bft) NW 306 ° 0 min 0,000 mm 0,0 UV-I 21 W/m² -2,1 °C 4,8 km/h (1 Bft)
28.12.2016 15:32 1,7 °C 1,7 °C 76 % 1041,9 hPa 0,0 mm 1,8 km/h (1 Bft) NW 306 ° 0 min 0,000 mm 0,0 UV-I 21 W/m² -2,1 °C 3,2 km/h (1 Bft)
28.12.2016 15:33 1,7 °C 1,7 °C 76 % 1041,9 hPa 0,0 mm 0,2 km/h (0 Bft) NW 306 ° 0 min 0,000 mm 0,0 UV-I 21 W/m² -2,1 °C 1,6 km/h (1 Bft)
28.12.2016 15:34 1,7 °C 1,7 °C 76 % 1041,9 hPa 0,0 mm 0,0 km/h (0 Bft) NW 306 ° 0 min 0,000 mm 0,0 UV-I 21 W/m² -2,1 °C 0,0 km/h (0 Bft)
28.12.2016 15:35 1,7 °C 1,7 °C 76 % 1041,9 hPa 0,0 mm 0,0 km/h (0 Bft) NW 306 ° 0 min 0,000 mm 0,0 UV-I 21 W/m² -2,1 °C 0,0 km/h (0 Bft)
28.12.2016 15:36 1,7 °C 1,7 °C 76 % 1041,8 hPa 0,0 mm 0,0 km/h (0 Bft) NW 306 ° 0 min 0,000 mm 0,0 UV-I 21 W/m² -2,1 °C 0,0 km/h (0 Bft)
28.12.2016 15:37 1,7 °C 1,7 °C 76 % 1041,8 hPa 0,0 mm 0,9 km/h (0 Bft) NW 306 ° 0 min 0,000 mm 0,0 UV-I 21 W/m² -2,1 °C 1,6 km/h (1 Bft)
28.12.2016 15:38 1,6 °C 1,7 °C 76 % 1041,8 hPa 0,0 mm 1,9 km/h (1 Bft) NW 306 ° 0 min 0,000 mm 0,0 UV-I 21 W/m² -2,2 °C 3,2 km/h (1 Bft)
28.12.2016 15:39 1,6 °C 1,6 °C 76 % 1041,8 hPa 0,0 mm 1,0 km/h (0 Bft) NW 306 ° 0 min 0,000 mm 0,0 UV-I 21 W/m² -2,2 °C 1,6 km/h (1 Bft)
28.12.2016 15:40 1,6 °C 1,6 °C 76 % 1041,8 hPa 0,0 mm 0,1 km/h (0 Bft) NW 306 ° 0 min 0,000 mm 0,0 UV-I 19 W/m² -2,2 °C 1,6 km/h (1 Bft)
28.12.2016 15:41 1,6 °C 1,6 °C 77 % 1041,8 hPa 0,0 mm 2,2 km/h (1 Bft) NW 306 ° 0 min 0,000 mm 0,0 UV-I 19 W/m² -2,0 °C 3,2 km/h (1 Bft)
28.12.2016 15:42 1,6 °C 1,6 °C 77 % 1041,7 hPa 0,0 mm 2,4 km/h (1 Bft) NW 306 ° 0 min 0,000 mm 0,0 UV-I 19 W/m² -2,0 °C 3,2 km/h (1 Bft)
28.12.2016 15:43 1,6 °C 1,6 °C 77 % 1041,7 hPa 0,0 mm 2,0 km/h (1 Bft) NW 306 ° 0 min 0,000 mm 0,0 UV-I 19 W/m² -2,0 °C 3,2 km/h (1 Bft)
28.12.2016 15:44 1,6 °C 1,6 °C 77 % 1041,7 hPa 0,0 mm 1,8 km/h (1 Bft) NW 306 ° 0 min 0,000 mm 0,0 UV-I 19 W/m² -2,0 °C 3,2 km/h (1 Bft)
28.12.2016 15:45 1,6 °C 1,6 °C 77 % 1041,7 hPa 0,0 mm 1,3 km/h (1 Bft) NW 306 ° 0 min 0,000 mm 0,0 UV-I 18 W/m² -2,0 °C 1,6 km/h (1 Bft)
28.12.2016 15:46 1,6 °C 1,6 °C 77 % 1041,7 hPa 0,0 mm 1,5 km/h (1 Bft) NW 306 ° 0 min 0,000 mm 0,0 UV-I 18 W/m² -2,0 °C 3,2 km/h (1 Bft)
28.12.2016 15:47 1,6 °C 1,6 °C 78 % 1041,7 hPa 0,0 mm 2,3 km/h (1 Bft) NW 306 ° 0 min 0,000 mm 0,0 UV-I 18 W/m² -1,8 °C 3,2 km/h (1 Bft)
28.12.2016 15:48 1,6 °C 1,6 °C 78 % 1041,7 hPa 0,0 mm 2,0 km/h (1 Bft) NW 306 ° 0 min 0,000 mm 0,0 UV-I 18 W/m² -1,8 °C 3,2 km/h (1 Bft)
28.12.2016 15:49 1,6 °C 1,6 °C 78 % 1041,7 hPa 0,0 mm 2,3 km/h (1 Bft) NW 306 ° 0 min 0,000 mm 0,0 UV-I 18 W/m² -1,8 °C 3,2 km/h (1 Bft)
28.12.2016 15:50 1,5 °C 1,6 °C 78 % 1041,6 hPa 0,0 mm 2,7 km/h (1 Bft) NW 306 ° 0 min 0,000 mm 0,0 UV-I 16 W/m² -1,9 °C 3,2 km/h (1 Bft)
28.12.2016 15:51 1,5 °C 1,6 °C 78 % 1041,6 hPa 0,0 mm 1,7 km/h (1 Bft) NW 306 ° 0 min 0,000 mm 0,0 UV-I 16 W/m² -1,9 °C 3,2 km/h (1 Bft)
28.12.2016 15:52 1,5 °C 1,6 °C 78 % 1041,6 hPa 0,0 mm 1,7 km/h (1 Bft) NW 306 ° 0 min 0,000 mm 0,0 UV-I 16 W/m² -1,9 °C 3,2 km/h (1 Bft)
28.12.2016 15:53 1,5 °C 1,6 °C 78 % 1041,6 hPa 0,0 mm 2,2 km/h (1 Bft) NW 305 ° 0 min 0,000 mm 0,0 UV-I 16 W/m² -1,9 °C 3,2 km/h (1 Bft)
28.12.2016 15:54 1,4 °C 1,5 °C 78 % 1041,6 hPa 0,0 mm 3,5 km/h (1 Bft) S-SW 210 ° 0 min 0,000 mm 0,0 UV-I 14 W/m² -2,0 °C 4,8 km/h (1 Bft)
28.12.2016 15:55 1,4 °C 1,5 °C 78 % 1041,6 hPa 0,0 mm 1,9 km/h (1 Bft) S-SW 206 ° 0 min 0,000 mm 0,0 UV-I 14 W/m² -2,0 °C 3,2 km/h (1 Bft)
28.12.2016 15:56 1,4 °C 1,4 °C 78 % 1041,6 hPa 0,0 mm 2,3 km/h (1 Bft) S-SW 206 ° 0 min 0,000 mm 0,0 UV-I 14 W/m² -2,0 °C 3,2 km/h (1 Bft)
28.12.2016 15:57 1,4 °C 1,4 °C 78 % 1041,6 hPa 0,0 mm 1,9 km/h (1 Bft) S-SW 206 ° 0 min 0,000 mm 0,0 UV-I 14 W/m² -2,0 °C 3,2 km/h (1 Bft)
28.12.2016 15:58 1,4 °C 1,4 °C 78 % 1041,6 hPa 0,0 mm 2,1 km/h (1 Bft) S-SW 206 ° 0 min 0,000 mm 0,0 UV-I 14 W/m² -2,0 °C 3,2 km/h (1 Bft)
28.12.2016 15:59 1,4 °C 1,4 °C 77 % 1041,6 hPa 0,0 mm 1,9 km/h (1 Bft) S-SW 206 ° 0 min 0,000 mm 0,0 UV-I 12 W/m² -2,2 °C 3,2 km/h (1 Bft)
28.12.2016 16:00 1,3 °C 1,4 °C 77 % 1041,6 hPa 0,0 mm 2,0 km/h (1 Bft) S-SW 206 ° 0 min 0,000 mm 0,0 UV-I 12 W/m² -2,3 °C 3,2 km/h (1 Bft)
28.12.2016 16:01 1,3 °C 1,3 °C 78 % 1041,6 hPa 0,0 mm 2,0 km/h (1 Bft) S-SW 206 ° 0 min 0,025 mm 0,0 UV-I 12 W/m² -2,1 °C 3,2 km/h (1 Bft)
28.12.2016 16:02 1,3 °C 1,3 °C 78 % 1041,6 hPa 0,0 mm 2,8 km/h (1 Bft) S-SW 206 ° 0 min 0,000 mm 0,0 UV-I 12 W/m² -2,1 °C 3,2 km/h (1 Bft)
28.12.2016 16:03 1,3 °C 1,3 °C 78 % 1041,7 hPa 0,0 mm 2,7 km/h (1 Bft) S-SW 206 ° 0 min 0,000 mm 0,0 UV-I 12 W/m² -2,1 °C 3,2 km/h (1 Bft)
28.12.2016 16:04 1,3 °C 1,3 °C 78 % 1041,7 hPa 0,0 mm 2,5 km/h (1 Bft) S-SW 206 ° 0 min 0,000 mm 0,0 UV-I 12 W/m² -2,1 °C 3,2 km/h (1 Bft)
28.12.2016 16:05 1,3 °C 1,3 °C 78 % 1041,7 hPa 0,0 mm 3,0 km/h (1 Bft) S-SW 206 ° 0 min 0,000 mm 0,0 UV-I 11 W/m² -2,1 °C 3,2 km/h (1 Bft)
28.12.2016 16:06 1,2 °C 1,3 °C 78 % 1041,7 hPa 0,0 mm 3,4 km/h (1 Bft) S-SW 206 ° 0 min 0,000 mm 0,0 UV-I 11 W/m² -2,2 °C 4,8 km/h (1 Bft)
28.12.2016 16:07 1,2 °C 1,3 °C 78 % 1041,6 hPa 0,0 mm 3,3 km/h (1 Bft) S-SW 206 ° 0 min 0,000 mm 0,0 UV-I 11 W/m² -2,2 °C 4,8 km/h (1 Bft)
28.12.2016 16:08 1,2 °C 1,2 °C 78 % 1041,6 hPa 0,0 mm 3,1 km/h (1 Bft) S-SW 206 ° 0 min 0,000 mm 0,0 UV-I 11 W/m² -2,2 °C 3,2 km/h (1 Bft)
28.12.2016 16:09 1,2 °C 1,2 °C 78 % 1041,6 hPa 0,0 mm 3,2 km/h (1 Bft) S-SW 206 ° 0 min 0,000 mm 0,0 UV-I 11 W/m² -2,2 °C 3,2 km/h (1 Bft)
28.12.2016 16:10 1,2 °C 1,2 °C 78 % 1041,6 hPa 0,0 mm 2,6 km/h (1 Bft) S-SW 206 ° 0 min 0,000 mm 0,0 UV-I 11 W/m² -2,2 °C 3,2 km/h (1 Bft)
28.12.2016 16:11 1,2 °C 1,2 °C 78 % 1041,6 hPa 0,0 mm 2,5 km/h (1 Bft) S-SW 206 ° 0 min 0,000 mm 0,0 UV-I 9 W/m² -2,2 °C 3,2 km/h (1 Bft)
28.12.2016 16:12 1,2 °C 1,2 °C 78 % 1041,6 hPa 0,0 mm 2,5 km/h (1 Bft) S-SW 206 ° 0 min 0,000 mm 0,0 UV-I 9 W/m² -2,2 °C 3,2 km/h (1 Bft)
28.12.2016 16:13 1,1 °C 1,2 °C 79 % 1041,6 hPa 0,0 mm 2,4 km/h (1 Bft) S-SW 206 ° 0 min 0,000 mm 0,0 UV-I 9 W/m² -2,1 °C 3,2 km/h (1 Bft)
28.12.2016 16:14 1,1 °C 1,1 °C 79 % 1041,6 hPa 0,0 mm 2,6 km/h (1 Bft) S-SW 206 ° 0 min 0,000 mm 0,0 UV-I 9 W/m² -2,1 °C 3,2 km/h (1 Bft)
28.12.2016 16:15 1,1 °C 1,1 °C 79 % 1041,7 hPa 0,0 mm 2,7 km/h (1 Bft) S-SW 206 ° 0 min 0,000 mm 0,0 UV-I 9 W/m² -2,1 °C 4,8 km/h (1 Bft)
28.12.2016 16:16 1,1 °C 1,1 °C 79 % 1041,6 hPa 0,0 mm 3,2 km/h (1 Bft) S-SW 206 ° 0 min 0,000 mm 0,0 UV-I 9 W/m² -2,1 °C 4,8 km/h (1 Bft)
28.12.2016 16:17 1,1 °C 1,1 °C 79 % 1041,7 hPa 0,0 mm 3,4 km/h (1 Bft) S-SW 206 ° 0 min 0,000 mm 0,0 UV-I 7 W/m² -2,1 °C 4,8 km/h (1 Bft)
28.12.2016 16:18 1,1 °C 1,1 °C 79 % 1041,6 hPa 0,0 mm 3,1 km/h (1 Bft) S-SW 206 ° 0 min 0,000 mm 0,0 UV-I 7 W/m² -2,1 °C 3,2 km/h (1 Bft)
28.12.2016 16:19 1,0 °C 1,1 °C 79 % 1041,6 hPa 0,0 mm 3,0 km/h (1 Bft) S-SW 206 ° 0 min 0,000 mm 0,0 UV-I 7 W/m² -2,2 °C 4,8 km/h (1 Bft)
28.12.2016 16:20 1,0 °C 1,0 °C 79 % 1041,6 hPa 0,0 mm 2,6 km/h (1 Bft) S-SW 206 ° 0 min 0,000 mm 0,0 UV-I 7 W/m² -2,2 °C 3,2 km/h (1 Bft)
28.12.2016 16:21 0,9 °C 1,0 °C 79 % 1041,6 hPa 0,0 mm 2,6 km/h (1 Bft) S-SW 206 ° 0 min 0,000 mm 0,0 UV-I 7 W/m² -2,3 °C 3,2 km/h (1 Bft)
28.12.2016 16:22 0,9 °C 1,0 °C 79 % 1041,6 hPa 0,0 mm 2,2 km/h (1 Bft) S-SW 206 ° 0 min 0,000 mm 0,0 UV-I 7 W/m² -2,3 °C 3,2 km/h (1 Bft)
28.12.2016 16:23 0,9 °C 0,9 °C 79 % 1041,7 hPa 0,0 mm 2,1 km/h (1 Bft) S-SW 206 ° 0 min 0,000 mm 0,0 UV-I 7 W/m² -2,3 °C 3,2 km/h (1 Bft)
28.12.2016 16:24 0,9 °C 0,9 °C 79 % 1041,6 hPa 0,0 mm 2,1 km/h (1 Bft) S-SW 206 ° 0 min 0,000 mm 0,0 UV-I 5 W/m² -2,3 °C 3,2 km/h (1 Bft)
28.12.2016 16:25 0,9 °C 0,9 °C 79 % 1041,6 hPa 0,0 mm 2,5 km/h (1 Bft) S-SW 206 ° 0 min 0,000 mm 0,0 UV-I 5 W/m² -2,3 °C 3,2 km/h (1 Bft)
28.12.2016 16:26 0,8 °C 0,9 °C 79 % 1041,6 hPa 0,0 mm 2,7 km/h (1 Bft) S-SW 206 ° 0 min 0,000 mm 0,0 UV-I 5 W/m² -2,4 °C 3,2 km/h (1 Bft)
28.12.2016 16:27 0,8 °C 0,8 °C 79 % 1041,6 hPa 0,0 mm 0,5 km/h (0 Bft) S-SW 206 ° 0 min 0,000 mm 0,0 UV-I 5 W/m² -2,4 °C 1,6 km/h (1 Bft)
28.12.2016 16:28 0,8 °C 0,8 °C 79 % 1041,7 hPa 0,0 mm 0,3 km/h (0 Bft) S-SW 206 ° 0 min 0,000 mm 0,0 UV-I 5 W/m² -2,4 °C 1,6 km/h (1 Bft)
28.12.2016 16:29 0,8 °C 0,8 °C 79 % 1041,7 hPa 0,0 mm 0,7 km/h (0 Bft) S-SW 206 ° 0 min 0,000 mm 0,0 UV-I 5 W/m² -2,4 °C 1,6 km/h (1 Bft)
28.12.2016 16:30 0,8 °C 0,8 °C 79 % 1041,7 hPa 0,0 mm 0,0 km/h (0 Bft) S-SW 206 ° 0 min 0,000 mm 0,0 UV-I 5 W/m² -2,4 °C 0,0 km/h (0 Bft)
28.12.2016 16:31 0,8 °C 0,8 °C 80 % 1041,7 hPa 0,0 mm 0,4 km/h (0 Bft) S-SW 206 ° 0 min 0,000 mm 0,0 UV-I 5 W/m² -2,2 °C 1,6 km/h (1 Bft)
28.12.2016 16:32 0,7 °C 0,8 °C 79 % 1041,8 hPa 0,0 mm 0,7 km/h (0 Bft) S-SW 206 ° 0 min 0,000 mm 0,0 UV-I 0 W/m² -2,5 °C 1,6 km/h (1 Bft)
28.12.2016 16:33 0,7 °C 0,7 °C 79 % 1041,8 hPa 0,0 mm 1,2 km/h (1 Bft) S-SW 206 ° 0 min 0,000 mm 0,0 UV-I 0 W/m² -2,5 °C 3,2 km/h (1 Bft)
28.12.2016 16:34 0,7 °C 0,7 °C 79 % 1041,8 hPa 0,0 mm 1,5 km/h (1 Bft) S-SW 206 ° 0 min 0,000 mm 0,0 UV-I 0 W/m² -2,5 °C 3,2 km/h (1 Bft)
28.12.2016 16:35 0,6 °C 0,7 °C 79 % 1041,8 hPa 0,0 mm 0,7 km/h (0 Bft) S-SW 205 ° 0 min 0,000 mm 0,0 UV-I 0 W/m² -2,6 °C 1,6 km/h (1 Bft)
28.12.2016 16:36 0,6 °C 0,6 °C 78 % 1041,9 hPa 0,0 mm 1,3 km/h (1 Bft) S-SW 206 ° 0 min 0,000 mm 0,0 UV-I 0 W/m² -2,8 °C 3,2 km/h (1 Bft)
28.12.2016 16:37 0,6 °C 0,6 °C 79 % 1041,9 hPa 0,0 mm 1,7 km/h (1 Bft) S-SW 205 ° 0 min 0,000 mm 0,0 UV-I 0 W/m² -2,6 °C 3,2 km/h (1 Bft)
28.12.2016 16:38 0,6 °C 0,6 °C 79 % 1041,9 hPa 0,0 mm 1,5 km/h (1 Bft) S-SW 206 ° 0 min 0,000 mm 0,0 UV-I 0 W/m² -2,6 °C 3,2 km/h (1 Bft)
28.12.2016 16:39 0,5 °C 0,6 °C 79 % 1041,8 hPa 0,0 mm 2,3 km/h (1 Bft) S-SW 205 ° 0 min 0,000 mm 0,0 UV-I 0 W/m² -2,7 °C 3,2 km/h (1 Bft)
28.12.2016 16:40 0,4 °C 0,5 °C 80 % 1041,8 hPa 0,0 mm 2,3 km/h (1 Bft) S-SW 205 ° 0 min 0,000 mm 0,0 UV-I 0 W/m² -2,6 °C 3,2 km/h (1 Bft)
28.12.2016 16:41 0,4 °C 0,4 °C 80 % 1041,8 hPa 0,2 mm 1,5 km/h (1 Bft) S-SW 206 ° 0 min 0,000 mm 0,0 UV-I 0 W/m² -2,6 °C 3,2 km/h (1 Bft)
28.12.2016 16:42 0,4 °C 0,4 °C 81 % 1041,8 hPa 0,0 mm 0,2 km/h (0 Bft) S-SW 206 ° 0 min 0,000 mm 0,0 UV-I 0 W/m² -2,5 °C 1,6 km/h (1 Bft)
28.12.2016 16:43 0,4 °C 0,4 °C 80 % 1041,8 hPa 0,0 mm 0,0 km/h (0 Bft) S-SW 206 ° 0 min 0,000 mm 0,0 UV-I 0 W/m² -2,6 °C 0,0 km/h (0 Bft)
28.12.2016 16:44 0,3 °C 0,4 °C 79 % 1041,9 hPa 0,0 mm 0,2 km/h (0 Bft) S-SW 206 ° 0 min 0,000 mm 0,0 UV-I 0 W/m² -2,9 °C 1,6 km/h (1 Bft)
28.12.2016 16:45 0,3 °C 0,3 °C 79 % 1041,8 hPa 0,0 mm 0,1 km/h (0 Bft) S-SW 206 ° 0 min 0,000 mm 0,0 UV-I 0 W/m² -2,9 °C 1,6 km/h (1 Bft)
28.12.2016 16:46 0,2 °C 0,3 °C 79 % 1041,9 hPa 0,0 mm 0,0 km/h (0 Bft) S-SW 206 ° 0 min 0,000 mm 0,0 UV-I 0 W/m² -3,0 °C 0,0 km/h (0 Bft)
28.12.2016 16:47 0,2 °C 0,2 °C 79 % 1041,9 hPa 0,0 mm 0,2 km/h (0 Bft) S-SW 206 ° 0 min 0,000 mm 0,0 UV-I 0 W/m² -3,0 °C 1,6 km/h (1 Bft)
28.12.2016 16:48 0,1 °C 0,2 °C 79 % 1042,0 hPa 0,0 mm 0,3 km/h (0 Bft) S-SW 206 ° 0 min 0,000 mm 0,0 UV-I 0 W/m² -3,1 °C 1,6 km/h (1 Bft)
28.12.2016 16:49 0,1 °C 0,1 °C 79 % 1042,0 hPa 0,0 mm 0,2 km/h (0 Bft) S-SW 206 ° 0 min 0,000 mm 0,0 UV-I 0 W/m² -3,1 °C 1,6 km/h (1 Bft)
28.12.2016 16:50 0,1 °C 0,1 °C 79 % 1041,9 hPa 0,0 mm 0,0 km/h (0 Bft) S-SW 206 ° 0 min 0,000 mm 0,0 UV-I 0 W/m² -3,1 °C 0,0 km/h (0 Bft)
28.12.2016 16:51 0,0 °C 0,1 °C 80 % 1042,0 hPa 0,0 mm 0,0 km/h (0 Bft) S-SW 206 ° 0 min 0,000 mm 0,0 UV-I 0 W/m² -3,0 °C 0,0 km/h (0 Bft)
28.12.2016 16:52 -0,1 °C 0,0 °C 80 % 1042,0 hPa 0,0 mm 0,7 km/h (0 Bft) S-SW 205 ° 0 min 0,000 mm 0,0 UV-I 0 W/m² -3,1 °C 1,6 km/h (1 Bft)
28.12.2016 16:53 -0,1 °C -0,1 °C 80 % 1042,1 hPa 0,0 mm 1,9 km/h (1 Bft) S-SW 205 ° 0 min 0,000 mm 0,0 UV-I 0 W/m² -3,1 °C 3,2 km/h (1 Bft)
28.12.2016 16:54 -0,1 °C -0,1 °C 80 % 1042,1 hPa 0,0 mm 2,1 km/h (1 Bft) S-SW 205 ° 0 min 0,000 mm 0,0 UV-I 0 W/m² -3,1 °C 3,2 km/h (1 Bft)
28.12.2016 16:55 -0,2 °C -0,1 °C 80 % 1042,1 hPa 0,0 mm 1,7 km/h (1 Bft) S-SW 205 ° 0 min 0,000 mm 0,0 UV-I 0 W/m² -3,2 °C 3,2 km/h (1 Bft)
28.12.2016 16:56 -0,2 °C -0,2 °C 81 % 1042,0 hPa 0,0 mm 1,5 km/h (1 Bft) S-SW 205 ° 0 min 0,000 mm 0,0 UV-I 0 W/m² -3,1 °C 3,2 km/h (1 Bft)
28.12.2016 16:57 -0,2 °C -0,2 °C 81 % 1042,1 hPa 0,0 mm 1,1 km/h (1 Bft) S-SW 205 ° 0 min 0,000 mm 0,0 UV-I 0 W/m² -3,1 °C 1,6 km/h (1 Bft)
28.12.2016 16:58 -0,3 °C -0,2 °C 81 % 1042,1 hPa 0,0 mm 0,7 km/h (0 Bft) S-SW 205 ° 0 min 0,000 mm 0,0 UV-I 0 W/m² -3,2 °C 1,6 km/h (1 Bft)
28.12.2016 16:59 -0,3 °C -0,3 °C 81 % 1042,1 hPa 0,0 mm 0,2 km/h (0 Bft) S-SW 205 ° 0 min 0,000 mm 0,0 UV-I 0 W/m² -3,2 °C 1,6 km/h (1 Bft)
28.12.2016 17:00 -0,4 °C -0,3 °C 81 % 1042,1 hPa 0,0 mm 1,9 km/h (1 Bft) S-SW 205 ° 0 min 0,000 mm 0,0 UV-I 0 W/m² -3,3 °C 3,2 km/h (1 Bft)
28.12.2016 17:01 -0,4 °C -0,4 °C 81 % 1042,1 hPa 0,0 mm 1,1 km/h (1 Bft) S-SW 205 ° 0 min 0,000 mm 0,0 UV-I 0 W/m² -3,3 °C 1,6 km/h (1 Bft)
28.12.2016 17:02 -0,4 °C -0,4 °C 82 % 1042,1 hPa 0,0 mm 0,1 km/h (0 Bft) S-SW 205 ° 0 min 0,000 mm 0,0 UV-I 0 W/m² -3,1 °C 1,6 km/h (1 Bft)
28.12.2016 17:03 -0,5 °C -0,4 °C 82 % 1042,1 hPa 0,0 mm 0,0 km/h (0 Bft) S-SW 205 ° 0 min 0,000 mm 0,0 UV-I 0 W/m² -3,2 °C 0,0 km/h (0 Bft)
28.12.2016 17:04 -0,6 °C -0,5 °C 83 % 1042,1 hPa 0,0 mm 0,2 km/h (0 Bft) S-SW 205 ° 0 min 0,000 mm 0,0 UV-I 0 W/m² -3,1 °C 1,6 km/h (1 Bft)
28.12.2016 17:05 -0,6 °C -0,5 °C 83 % 1042,1 hPa 0,0 mm 0,1 km/h (0 Bft) S-SW 205 ° 0 min 0,000 mm 0,0 UV-I 0 W/m² -3,1 °C 1,6 km/h (1 Bft)
28.12.2016 17:06 -0,6 °C -0,6 °C 83 % 1042,1 hPa 0,0 mm 1,3 km/h (1 Bft) S-SW 205 ° 0 min 0,000 mm 0,0 UV-I 0 W/m² -3,1 °C 1,6 km/h (1 Bft)
28.12.2016 17:07 -0,6 °C -0,6 °C 83 % 1042,1 hPa 0,0 mm 0,4 km/h (0 Bft) S-SW 205 ° 0 min 0,000 mm 0,0 UV-I 0 W/m² -3,1 °C 1,6 km/h (1 Bft)
28.12.2016 17:08 -0,7 °C -0,6 °C 83 % 1042,1 hPa 0,0 mm 0,8 km/h (0 Bft) S-SW 205 ° 0 min 0,000 mm 0,0 UV-I 0 W/m² -3,2 °C 1,6 km/h (1 Bft)
28.12.2016 17:09 -0,7 °C -0,6 °C 83 % 1042,1 hPa 0,0 mm 0,0 km/h (0 Bft) S-SW 205 ° 0 min 0,000 mm 0,0 UV-I 0 W/m² -3,2 °C 0,0 km/h (0 Bft)
28.12.2016 17:10 -0,7 °C -0,7 °C 82 % 1042,2 hPa 0,0 mm 0,0 km/h (0 Bft) S-SW 205 ° 0 min 0,000 mm 0,0 UV-I 0 W/m² -3,4 °C 0,0 km/h (0 Bft)
28.12.2016 17:11 -0,7 °C -0,7 °C 82 % 1042,1 hPa 0,0 mm 0,3 km/h (0 Bft) S-SW 205 ° 0 min 0,000 mm 0,0 UV-I 0 W/m² -3,4 °C 1,6 km/h (1 Bft)
28.12.2016 17:12 -0,8 °C -0,7 °C 82 % 1042,1 hPa 0,0 mm 0,0 km/h (0 Bft) S-SW 205 ° 0 min 0,000 mm 0,0 UV-I 0 W/m² -3,5 °C 0,0 km/h (0 Bft)
28.12.2016 17:13 -0,8 °C -0,8 °C 82 % 1042,1 hPa 0,0 mm 0,3 km/h (0 Bft) S-SW 205 ° 0 min 0,000 mm 0,0 UV-I 0 W/m² -3,5 °C 1,6 km/h (1 Bft)
28.12.2016 17:14 -0,8 °C -0,8 °C 83 % 1042,1 hPa 0,0 mm 1,1 km/h (1 Bft) S-SW 205 ° 0 min 0,000 mm 0,0 UV-I 0 W/m² -3,3 °C 1,6 km/h (1 Bft)
28.12.2016 17:15 -0,8 °C -0,8 °C 83 % 1042,1 hPa 0,0 mm 0,2 km/h (0 Bft) S-SW 205 ° 0 min 0,000 mm 0,0 UV-I 0 W/m² -3,3 °C 1,6 km/h (1 Bft)
28.12.2016 17:16 -0,8 °C -0,8 °C 83 % 1042,1 hPa 0,0 mm 0,0 km/h (0 Bft) S-SW 205 ° 0 min 0,000 mm 0,0 UV-I 0 W/m² -3,3 °C 0,0 km/h (0 Bft)
28.12.2016 17:17 -0,9 °C -0,8 °C 83 % 1042,1 hPa 0,0 mm 0,0 km/h (0 Bft) S-SW 205 ° 0 min 0,000 mm 0,0 UV-I 0 W/m² -3,4 °C 0,0 km/h (0 Bft)
28.12.2016 17:18 -0,9 °C -0,9 °C 83 % 1042,1 hPa 0,0 mm 0,0 km/h (0 Bft) S-SW 205 ° 0 min 0,000 mm 0,0 UV-I 0 W/m² -3,4 °C 0,0 km/h (0 Bft)
28.12.2016 17:19 -0,9 °C -0,9 °C 83 % 1042,2 hPa 0,0 mm 0,0 km/h (0 Bft) S-SW 205 ° 0 min 0,000 mm 0,0 UV-I 0 W/m² -3,4 °C 0,0 km/h (0 Bft)
28.12.2016 17:20 -1,0 °C -0,9 °C 83 % 1042,2 hPa 0,0 mm 0,0 km/h (0 Bft) S-SW 205 ° 0 min 0,000 mm 0,0 UV-I 0 W/m² -3,5 °C 0,0 km/h (0 Bft)
28.12.2016 17:21 -1,0 °C -1,0 °C 83 % 1042,2 hPa 0,0 mm 0,0 km/h (0 Bft) S-SW 205 ° 0 min 0,000 mm 0,0 UV-I 0 W/m² -3,5 °C 0,0 km/h (0 Bft)
28.12.2016 17:22 -1,1 °C -1,0 °C 83 % 1042,2 hPa 0,0 mm 1,1 km/h (1 Bft) S-SW 205 ° 0 min 0,000 mm 0,0 UV-I 0 W/m² -3,6 °C 1,6 km/h (1 Bft)
28.12.2016 17:23 -1,0 °C -1,0 °C 83 % 1042,2 hPa 0,0 mm 0,6 km/h (0 Bft) S-SW 205 ° 0 min 0,000 mm 0,0 UV-I 0 W/m² -3,5 °C 1,6 km/h (1 Bft)
28.12.2016 17:24 -1,1 °C -1,0 °C 83 % 1042,3 hPa 0,0 mm 0,4 km/h (0 Bft) S-SW 205 ° 0 min 0,000 mm 0,0 UV-I 0 W/m² -3,6 °C 1,6 km/h (1 Bft)
28.12.2016 17:25 -1,1 °C -1,1 °C 83 % 1042,3 hPa 0,0 mm 1,0 km/h (0 Bft) S-SW 205 ° 0 min 0,000 mm 0,0 UV-I 0 W/m² -3,6 °C 1,6 km/h (1 Bft)
28.12.2016 17:26 -1,1 °C -1,1 °C 84 % 1042,3 hPa 0,0 mm 1,1 km/h (1 Bft) S-SW 205 ° 0 min 0,000 mm 0,0 UV-I 0 W/m² -3,4 °C 1,6 km/h (1 Bft)
28.12.2016 17:27 -1,1 °C -1,1 °C 84 % 1042,3 hPa 0,0 mm 0,3 km/h (0 Bft) S-SW 205 ° 0 min 0,000 mm 0,0 UV-I 0 W/m² -3,4 °C 1,6 km/h (1 Bft)
28.12.2016 17:28 -1,2 °C -1,1 °C 84 % 1042,3 hPa 0,0 mm 0,0 km/h (0 Bft) S-SW 205 ° 0 min 0,000 mm 0,0 UV-I 0 W/m² -3,5 °C 0,0 km/h (0 Bft)
28.12.2016 17:29 -1,2 °C -1,2 °C 85 % 1042,4 hPa 0,0 mm 0,0 km/h (0 Bft) S-SW 205 ° 0 min 0,000 mm 0,0 UV-I 0 W/m² -3,4 °C 0,0 km/h (0 Bft)
28.12.2016 17:30 -1,2 °C -1,2 °C 85 % 1042,4 hPa 0,0 mm 0,0 km/h (0 Bft) S-SW 205 ° 0 min 0,000 mm 0,0 UV-I 0 W/m² -3,4 °C 0,0 km/h (0 Bft)
28.12.2016 17:31 -1,2 °C -1,2 °C 84 % 1042,4 hPa 0,0 mm 0,0 km/h (0 Bft) S-SW 205 ° 0 min 0,000 mm 0,0 UV-I 0 W/m² -3,5 °C 0,0 km/h (0 Bft)
28.12.2016 17:32 -1,3 °C -1,2 °C 84 % 1042,4 hPa 0,0 mm 0,0 km/h (0 Bft) S-SW 205 ° 0 min 0,000 mm 0,0 UV-I 0 W/m² -3,6 °C 0,0 km/h (0 Bft)
28.12.2016 17:33 -1,3 °C -1,3 °C 84 % 1042,4 hPa 0,0 mm 0,1 km/h (0 Bft) S-SW 205 ° 0 min 0,000 mm 0,0 UV-I 0 W/m² -3,6 °C 1,6 km/h (1 Bft)
28.12.2016 17:34 -1,3 °C -1,3 °C 84 % 1042,5 hPa 0,0 mm 1,2 km/h (1 Bft) S-SW 205 ° 0 min 0,000 mm 0,0 UV-I 0 W/m² -3,6 °C 1,6 km/h (1 Bft)
28.12.2016 17:35 -1,3 °C -1,3 °C 84 % 1042,5 hPa 0,0 mm 0,6 km/h (0 Bft) S-SW 205 ° 0 min 0,000 mm 0,0 UV-I 0 W/m² -3,6 °C 1,6 km/h (1 Bft)
28.12.2016 17:36 -1,4 °C -1,3 °C 84 % 1042,5 hPa 0,0 mm 0,3 km/h (0 Bft) S-SW 205 ° 0 min 0,000 mm 0,0 UV-I 0 W/m² -3,7 °C 1,6 km/h (1 Bft)
28.12.2016 17:37 -1,4 °C -1,4 °C 84 % 1042,5 hPa 0,0 mm 0,0 km/h (0 Bft) S-SW 205 ° 0 min 0,000 mm 0,0 UV-I 0 W/m² -3,7 °C 0,0 km/h (0 Bft)
28.12.2016 17:38 -1,4 °C -1,4 °C 84 % 1042,5 hPa 0,0 mm 0,0 km/h (0 Bft) S-SW 205 ° 0 min 0,000 mm 0,0 UV-I 0 W/m² -3,7 °C 0,0 km/h (0 Bft)
28.12.2016 17:39 -1,4 °C -1,4 °C 84 % 1042,5 hPa 0,0 mm 0,0 km/h (0 Bft) S-SW 205 ° 0 min 0,000 mm 0,0 UV-I 0 W/m² -3,7 °C 0,0 km/h (0 Bft)
28.12.2016 17:40 -1,5 °C -1,4 °C 84 % 1042,5 hPa 0,0 mm 0,0 km/h (0 Bft) S-SW 205 ° 0 min 0,000 mm 0,0 UV-I 0 W/m² -3,8 °C 0,0 km/h (0 Bft)
28.12.2016 17:41 -1,5 °C -1,4 °C 84 % 1042,5 hPa 0,0 mm 0,0 km/h (0 Bft) S-SW 205 ° 0 min 0,000 mm 0,0 UV-I 0 W/m² -3,8 °C 0,0 km/h (0 Bft)
28.12.2016 17:42 -1,5 °C -1,5 °C 84 % 1042,6 hPa 0,0 mm 0,0 km/h (0 Bft) S-SW 205 ° 0 min 0,000 mm 0,0 UV-I 0 W/m² -3,8 °C 0,0 km/h (0 Bft)
28.12.2016 17:43 -1,6 °C -1,5 °C 84 % 1042,6 hPa 0,0 mm 0,0 km/h (0 Bft) S-SW 205 ° 0 min 0,000 mm 0,0 UV-I 0 W/m² -3,9 °C 0,0 km/h (0 Bft)
28.12.2016 17:44 -1,6 °C -1,6 °C 84 % 1042,6 hPa 0,0 mm 0,0 km/h (0 Bft) S-SW 205 ° 0 min 0,000 mm 0,0 UV-I 0 W/m² -3,9 °C 0,0 km/h (0 Bft)
28.12.2016 17:45 -1,6 °C -1,6 °C 84 % 1042,6 hPa 0,0 mm 0,0 km/h (0 Bft) S-SW 205 ° 0 min 0,000 mm 0,0 UV-I 0 W/m² -3,9 °C 0,0 km/h (0 Bft)
28.12.2016 17:46 -1,6 °C -1,6 °C 84 % 1042,6 hPa 0,0 mm 0,0 km/h (0 Bft) S-SW 205 ° 0 min 0,000 mm 0,0 UV-I 0 W/m² -3,9 °C 0,0 km/h (0 Bft)
28.12.2016 17:47 -1,7 °C -1,6 °C 85 % 1042,6 hPa 0,0 mm 0,0 km/h (0 Bft) S-SW 205 ° 0 min 0,000 mm 0,0 UV-I 0 W/m² -3,9 °C 0,0 km/h (0 Bft)
28.12.2016 17:48 -1,7 °C -1,7 °C 85 % 1042,6 hPa 0,0 mm 0,6 km/h (0 Bft) S-SW 205 ° 0 min 0,000 mm 0,0 UV-I 0 W/m² -3,9 °C 1,6 km/h (1 Bft)
28.12.2016 17:49 -1,7 °C -1,7 °C 85 % 1042,5 hPa 0,0 mm 1,9 km/h (1 Bft) S-SW 205 ° 0 min 0,000 mm 0,0 UV-I 0 W/m² -3,9 °C 3,2 km/h (1 Bft)
28.12.2016 17:50 -1,7 °C -1,7 °C 85 % 1042,6 hPa 0,0 mm 1,9 km/h (1 Bft) S-SW 206 ° 0 min 0,000 mm 0,0 UV-I 0 W/m² -3,9 °C 3,2 km/h (1 Bft)
28.12.2016 17:51 -1,8 °C -1,7 °C 85 % 1042,5 hPa 0,0 mm 2,4 km/h (1 Bft) S-SW 206 ° 0 min 0,000 mm 0,0 UV-I 0 W/m² -4,0 °C 3,2 km/h (1 Bft)
28.12.2016 17:52 -1,8 °C -1,8 °C 85 % 1042,5 hPa 0,0 mm 1,6 km/h (1 Bft) S-SW 206 ° 0 min 0,000 mm 0,0 UV-I 0 W/m² -4,0 °C 3,2 km/h (1 Bft)
28.12.2016 17:53 -1,8 °C -1,8 °C 85 % 1042,5 hPa 0,0 mm 0,7 km/h (0 Bft) S-SW 206 ° 0 min 0,000 mm 0,0 UV-I 0 W/m² -4,0 °C 1,6 km/h (1 Bft)
28.12.2016 17:54 -1,8 °C -1,8 °C 85 % 1042,5 hPa 0,0 mm 0,4 km/h (0 Bft) S-SW 206 ° 0 min 0,000 mm 0,0 UV-I 0 W/m² -4,0 °C 1,6 km/h (1 Bft)
28.12.2016 17:55 -1,9 °C -1,8 °C 85 % 1042,5 hPa 0,0 mm 0,5 km/h (0 Bft) S-SW 206 ° 0 min 0,000 mm 0,0 UV-I 0 W/m² -4,1 °C 1,6 km/h (1 Bft)
28.12.2016 17:56 -1,9 °C -1,9 °C 85 % 1042,5 hPa 0,0 mm 0,2 km/h (0 Bft) S-SW 206 ° 0 min 0,000 mm 0,0 UV-I 0 W/m² -4,1 °C 1,6 km/h (1 Bft)
28.12.2016 17:57 -1,9 °C -1,9 °C 85 % 1042,4 hPa 0,0 mm 0,1 km/h (0 Bft) S-SW 206 ° 0 min 0,000 mm 0,0 UV-I 0 W/m² -4,1 °C 1,6 km/h (1 Bft)
28.12.2016 17:58 -1,9 °C -1,9 °C 85 % 1042,5 hPa 0,0 mm 0,3 km/h (0 Bft) S-SW 206 ° 0 min 0,000 mm 0,0 UV-I 0 W/m² -4,1 °C 1,6 km/h (1 Bft)
28.12.2016 17:59 -2,1 °C -1,9 °C 85 % 1042,5 hPa 0,0 mm 1,3 km/h (1 Bft) S-SW 205 ° 0 min 0,000 mm 0,0 UV-I 0 W/m² -4,3 °C 3,2 km/h (1 Bft)
28.12.2016 18:00 -2,1 °C -2,0 °C 86 % 1042,6 hPa 0,0 mm 2,0 km/h (1 Bft) S-SW 205 ° 0 min 0,000 mm 0,0 UV-I 0 W/m² -4,1 °C 3,2 km/h (1 Bft)
28.12.2016 18:01 -2,1 °C -2,1 °C 86 % 1042,7 hPa 0,0 mm 1,6 km/h (1 Bft) S-SW 205 ° 0 min 0,000 mm 0,0 UV-I 0 W/m² -4,1 °C 3,2 km/h (1 Bft)
28.12.2016 18:02 -2,1 °C -2,1 °C 86 % 1042,7 hPa 0,0 mm 1,5 km/h (1 Bft) S-SW 205 ° 0 min 0,000 mm 0,0 UV-I 0 W/m² -4,1 °C 1,6 km/h (1 Bft)
28.12.2016 18:03 -2,1 °C -2,1 °C 86 % 1042,7 hPa 0,0 mm 1,9 km/h (1 Bft) S-SW 205 ° 0 min 0,000 mm 0,0 UV-I 0 W/m² -4,1 °C 3,2 km/h (1 Bft)
28.12.2016 18:04 -2,1 °C -2,1 °C 86 % 1042,8 hPa 0,0 mm 1,6 km/h (1 Bft) S-SW 205 ° 0 min 0,000 mm 0,0 UV-I 0 W/m² -4,1 °C 3,2 km/h (1 Bft)
28.12.2016 18:05 -2,2 °C -2,1 °C 86 % 1042,7 hPa 0,0 mm 0,9 km/h (0 Bft) S-SW 205 ° 0 min 0,000 mm 0,0 UV-I 0 W/m² -4,2 °C 1,6 km/h (1 Bft)
28.12.2016 18:06 -2,2 °C -2,1 °C 86 % 1042,7 hPa 0,0 mm 0,0 km/h (0 Bft) S-SW 205 ° 0 min 0,000 mm 0,0 UV-I 0 W/m² -4,2 °C 0,0 km/h (0 Bft)
28.12.2016 18:07 -2,2 °C -2,2 °C 86 % 1042,7 hPa 0,0 mm 0,0 km/h (0 Bft) S-SW 205 ° 0 min 0,000 mm 0,0 UV-I 0 W/m² -4,2 °C 0,0 km/h (0 Bft)
28.12.2016 18:08 -2,2 °C -2,2 °C 86 % 1042,7 hPa 0,0 mm 0,0 km/h (0 Bft) S-SW 205 ° 0 min 0,000 mm 0,0 UV-I 0 W/m² -4,2 °C 0,0 km/h (0 Bft)
28.12.2016 18:09 -2,2 °C -2,2 °C 86 % 1042,7 hPa 0,0 mm 0,1 km/h (0 Bft) S-SW 205 ° 0 min 0,000 mm 0,0 UV-I 0 W/m² -4,2 °C 1,6 km/h (1 Bft)
28.12.2016 18:10 -2,3 °C -2,2 °C 87 % 1042,8 hPa 0,0 mm 0,0 km/h (0 Bft) S-SW 205 ° 0 min 0,000 mm 0,0 UV-I 0 W/m² -4,2 °C 0,0 km/h (0 Bft)
28.12.2016 18:11 -2,3 °C -2,3 °C 87 % 1042,7 hPa 0,0 mm 0,0 km/h (0 Bft) S-SW 205 ° 0 min 0,000 mm 0,0 UV-I 0 W/m² -4,2 °C 0,0 km/h (0 Bft)
28.12.2016 18:12 -2,3 °C -2,3 °C 87 % 1042,7 hPa 0,0 mm 0,0 km/h (0 Bft) S-SW 205 ° 0 min 0,000 mm 0,0 UV-I 0 W/m² -4,2 °C 0,0 km/h (0 Bft)
28.12.2016 18:13 -2,3 °C -2,3 °C 87 % 1042,7 hPa 0,0 mm 0,0 km/h (0 Bft) S-SW 205 ° 0 min 0,000 mm 0,0 UV-I 0 W/m² -4,2 °C 0,0 km/h (0 Bft)
28.12.2016 18:14 -2,3 °C -2,3 °C 88 % 1042,7 hPa 0,0 mm 0,0 km/h (0 Bft) S-SW 205 ° 0 min 0,000 mm 0,0 UV-I 0 W/m² -4,0 °C 0,0 km/h (0 Bft)
28.12.2016 18:15 -2,3 °C -2,3 °C 88 % 1042,7 hPa 0,0 mm 0,0 km/h (0 Bft) S-SW 205 ° 0 min 0,000 mm 0,0 UV-I 0 W/m² -4,0 °C 0,0 km/h (0 Bft)
28.12.2016 18:16 -2,3 °C -2,3 °C 88 % 1042,8 hPa 0,0 mm 0,5 km/h (0 Bft) S-SW 205 ° 0 min 0,000 mm 0,0 UV-I 0 W/m² -4,0 °C 1,6 km/h (1 Bft)
28.12.2016 18:17 -2,4 °C -2,3 °C 88 % 1042,7 hPa 0,0 mm 0,3 km/h (0 Bft) S-SW 205 ° 0 min 0,000 mm 0,0 UV-I 0 W/m² -4,1 °C 1,6 km/h (1 Bft)
28.12.2016 18:18 -2,4 °C -2,3 °C 88 % 1042,7 hPa 0,0 mm 0,5 km/h (0 Bft) S-SW 205 ° 0 min 0,000 mm 0,0 UV-I 0 W/m² -4,1 °C 1,6 km/h (1 Bft)
28.12.2016 18:19 -2,4 °C -2,4 °C 89 % 1042,8 hPa 0,0 mm 0,4 km/h (0 Bft) S-SW 205 ° 0 min 0,000 mm 0,0 UV-I 0 W/m² -4,0 °C 1,6 km/h (1 Bft)
28.12.2016 18:20 -2,4 °C -2,3 °C 89 % 1042,7 hPa 0,0 mm 1,0 km/h (0 Bft) S-SW 205 ° 0 min 0,000 mm 0,0 UV-I 0 W/m² -4,0 °C 1,6 km/h (1 Bft)
28.12.2016 18:21 -2,4 °C -2,4 °C 89 % 1042,8 hPa 0,0 mm 0,8 km/h (0 Bft) S-SW 205 ° 0 min 0,000 mm 0,0 UV-I 0 W/m² -4,0 °C 1,6 km/h (1 Bft)
28.12.2016 18:22 -2,4 °C -2,4 °C 89 % 1042,7 hPa 0,0 mm 0,5 km/h (0 Bft) S-SW 205 ° 0 min 0,000 mm 0,0 UV-I 0 W/m² -4,0 °C 1,6 km/h (1 Bft)
28.12.2016 18:23 -2,4 °C -2,4 °C 89 % 1042,7 hPa 0,0 mm 0,3 km/h (0 Bft) S-SW 205 ° 0 min 0,000 mm 0,0 UV-I 0 W/m² -4,0 °C 1,6 km/h (1 Bft)
28.12.2016 18:24 -2,4 °C -2,4 °C 89 % 1042,7 hPa 0,0 mm 0,0 km/h (0 Bft) S-SW 205 ° 0 min 0,000 mm 0,0 UV-I 0 W/m² -4,0 °C 0,0 km/h (0 Bft)
28.12.2016 18:25 -2,4 °C -2,4 °C 89 % 1042,7 hPa 0,0 mm 0,0 km/h (0 Bft) S-SW 205 ° 0 min 0,000 mm 0,0 UV-I 0 W/m² -4,0 °C 0,0 km/h (0 Bft)
28.12.2016 18:26 -2,4 °C -2,4 °C 89 % 1042,7 hPa 0,0 mm 0,0 km/h (0 Bft) S-SW 205 ° 0 min 0,000 mm 0,0 UV-I 0 W/m² -4,0 °C 0,0 km/h (0 Bft)
28.12.2016 18:27 -2,4 °C -2,4 °C 89 % 1042,7 hPa 0,0 mm 0,0 km/h (0 Bft) S-SW 205 ° 0 min 0,000 mm 0,0 UV-I 0 W/m² -4,0 °C 0,0 km/h (0 Bft)
28.12.2016 18:28 -2,4 °C -2,4 °C 89 % 1042,7 hPa 0,0 mm 0,0 km/h (0 Bft) S-SW 205 ° 0 min 0,000 mm 0,0 UV-I 0 W/m² -4,0 °C 0,0 km/h (0 Bft)
28.12.2016 18:29 -2,4 °C -2,4 °C 89 % 1042,7 hPa 0,0 mm 0,0 km/h (0 Bft) S-SW 205 ° 0 min 0,000 mm 0,0 UV-I 0 W/m² -4,0 °C 0,0 km/h (0 Bft)
28.12.2016 18:30 -2,4 °C -2,4 °C 89 % 1042,7 hPa 0,0 mm 0,0 km/h (0 Bft) S-SW 205 ° 0 min 0,000 mm 0,0 UV-I 0 W/m² -4,0 °C 0,0 km/h (0 Bft)
28.12.2016 18:31 -2,4 °C -2,4 °C 89 % 1042,7 hPa 0,0 mm 0,0 km/h (0 Bft) S-SW 205 ° 0 min 0,000 mm 0,0 UV-I 0 W/m² -4,0 °C 0,0 km/h (0 Bft)
28.12.2016 18:32 -2,4 °C -2,4 °C 89 % 1042,7 hPa 0,0 mm 0,0 km/h (0 Bft) S-SW 205 ° 0 min 0,000 mm 0,0 UV-I 0 W/m² -4,0 °C 0,0 km/h (0 Bft)
28.12.2016 18:33 -2,4 °C -2,4 °C 90 % 1042,8 hPa 0,0 mm 0,0 km/h (0 Bft) S-SW 205 ° 0 min 0,000 mm 0,0 UV-I 0 W/m² -3,8 °C 0,0 km/h (0 Bft)
28.12.2016 18:34 -2,4 °C -2,4 °C 90 % 1042,7 hPa 0,0 mm 0,0 km/h (0 Bft) S-SW 205 ° 0 min 0,000 mm 0,0 UV-I 0 W/m² -3,8 °C 0,0 km/h (0 Bft)
28.12.2016 18:35 -2,4 °C -2,4 °C 90 % 1042,7 hPa 0,0 mm 0,0 km/h (0 Bft) S-SW 205 ° 0 min 0,000 mm 0,0 UV-I 0 W/m² -3,8 °C 0,0 km/h (0 Bft)
28.12.2016 18:36 -2,5 °C -2,4 °C 90 % 1042,8 hPa 0,0 mm 0,0 km/h (0 Bft) S-SW 205 ° 0 min 0,000 mm 0,0 UV-I 0 W/m² -3,9 °C 0,0 km/h (0 Bft)
28.12.2016 18:37 -2,4 °C -2,4 °C 90 % 1042,8 hPa 0,0 mm 0,0 km/h (0 Bft) S-SW 205 ° 0 min 0,000 mm 0,0 UV-I 0 W/m² -3,8 °C 0,0 km/h (0 Bft)
28.12.2016 18:38 -2,5 °C -2,4 °C 90 % 1042,8 hPa 0,0 mm 0,0 km/h (0 Bft) S-SW 205 ° 0 min 0,000 mm 0,0 UV-I 0 W/m² -3,9 °C 0,0 km/h (0 Bft)
28.12.2016 18:39 -2,4 °C -2,4 °C 90 % 1042,8 hPa 0,0 mm 0,0 km/h (0 Bft) S-SW 205 ° 0 min 0,000 mm 0,0 UV-I 0 W/m² -3,8 °C 0,0 km/h (0 Bft)
28.12.2016 18:40 -2,5 °C -2,4 °C 90 % 1042,9 hPa 0,0 mm 0,0 km/h (0 Bft) S-SW 205 ° 0 min 0,000 mm 0,0 UV-I 0 W/m² -3,9 °C 0,0 km/h (0 Bft)
28.12.2016 18:41 -2,4 °C -2,4 °C 90 % 1042,8 hPa 0,0 mm 0,0 km/h (0 Bft) S-SW 205 ° 0 min 0,000 mm 0,0 UV-I 0 W/m² -3,8 °C 0,0 km/h (0 Bft)
28.12.2016 18:42 -2,4 °C -2,4 °C 90 % 1042,9 hPa 0,0 mm 0,0 km/h (0 Bft) S-SW 205 ° 0 min 0,000 mm 0,0 UV-I 0 W/m² -3,8 °C 0,0 km/h (0 Bft)
28.12.2016 18:43 -2,4 °C -2,4 °C 90 % 1042,9 hPa 0,0 mm 0,0 km/h (0 Bft) S-SW 205 ° 0 min 0,000 mm 0,0 UV-I 0 W/m² -3,8 °C 0,0 km/h (0 Bft)
28.12.2016 18:44 -2,4 °C -2,4 °C 90 % 1042,9 hPa 0,0 mm 0,0 km/h (0 Bft) S-SW 205 ° 0 min 0,000 mm 0,0 UV-I 0 W/m² -3,8 °C 0,0 km/h (0 Bft)
28.12.2016 18:45 -2,4 °C -2,4 °C 90 % 1042,9 hPa 0,0 mm 0,6 km/h (0 Bft) S-SW 205 ° 0 min 0,000 mm 0,0 UV-I 0 W/m² -3,8 °C 1,6 km/h (1 Bft)
28.12.2016 18:46 -2,4 °C -2,4 °C 90 % 1042,9 hPa 0,0 mm 0,3 km/h (0 Bft) S-SW 205 ° 0 min 0,000 mm 0,0 UV-I 0 W/m² -3,8 °C 1,6 km/h (1 Bft)
28.12.2016 18:47 -2,4 °C -2,4 °C 90 % 1042,9 hPa 0,0 mm 0,3 km/h (0 Bft) S-SW 205 ° 0 min 0,000 mm 0,0 UV-I 0 W/m² -3,8 °C 1,6 km/h (1 Bft)
28.12.2016 18:48 -2,4 °C -2,4 °C 90 % 1042,9 hPa 0,0 mm 0,1 km/h (0 Bft) S-SW 205 ° 0 min 0,000 mm 0,0 UV-I 0 W/m² -3,8 °C 1,6 km/h (1 Bft)
28.12.2016 18:49 -2,4 °C -2,4 °C 90 % 1042,9 hPa 0,0 mm 0,2 km/h (0 Bft) S-SW 205 ° 0 min 0,000 mm 0,0 UV-I 0 W/m² -3,8 °C 1,6 km/h (1 Bft)
28.12.2016 18:50 -2,4 °C -2,4 °C 90 % 1042,9 hPa 0,0 mm 0,0 km/h (0 Bft) S-SW 205 ° 0 min 0,000 mm 0,0 UV-I 0 W/m² -3,8 °C 0,0 km/h (0 Bft)
28.12.2016 18:51 -2,4 °C -2,4 °C 91 % 1042,9 hPa 0,0 mm 0,0 km/h (0 Bft) S-SW 205 ° 0 min 0,000 mm 0,0 UV-I 0 W/m² -3,7 °C 0,0 km/h (0 Bft)
28.12.2016 18:52 -2,4 °C -2,4 °C 91 % 1042,9 hPa 0,0 mm 0,0 km/h (0 Bft) S-SW 205 ° 0 min 0,000 mm 0,0 UV-I 0 W/m² -3,7 °C 0,0 km/h (0 Bft)
28.12.2016 18:53 -2,3 °C -2,3 °C 91 % 1042,9 hPa 0,0 mm 0,0 km/h (0 Bft) S-SW 205 ° 0 min 0,000 mm 0,0 UV-I 0 W/m² -3,6 °C 0,0 km/h (0 Bft)
28.12.2016 18:54 -2,4 °C -2,3 °C 91 % 1043,0 hPa 0,0 mm 0,0 km/h (0 Bft) S-SW 205 ° 0 min 0,000 mm 0,0 UV-I 0 W/m² -3,7 °C 0,0 km/h (0 Bft)
28.12.2016 18:55 -2,3 °C -2,3 °C 91 % 1043,0 hPa 0,0 mm 0,0 km/h (0 Bft) S-SW 205 ° 0 min 0,000 mm 0,0 UV-I 0 W/m² -3,6 °C 0,0 km/h (0 Bft)
28.12.2016 18:56 -2,3 °C -2,3 °C 91 % 1043,0 hPa 0,0 mm 0,0 km/h (0 Bft) S-SW 205 ° 0 min 0,000 mm 0,0 UV-I 0 W/m² -3,6 °C 0,0 km/h (0 Bft)
28.12.2016 18:57 -2,3 °C -2,3 °C 91 % 1043,0 hPa 0,0 mm 0,0 km/h (0 Bft) S-SW 205 ° 0 min 0,000 mm 0,0 UV-I 0 W/m² -3,6 °C 0,0 km/h (0 Bft)
28.12.2016 18:58 -2,3 °C -2,3 °C 91 % 1043,1 hPa 0,0 mm 0,0 km/h (0 Bft) S-SW 205 ° 0 min 0,000 mm 0,0 UV-I 0 W/m² -3,6 °C 0,0 km/h (0 Bft)
28.12.2016 18:59 -2,3 °C -2,3 °C 91 % 1043,1 hPa 0,0 mm 0,0 km/h (0 Bft) S-SW 205 ° 0 min 0,000 mm 0,0 UV-I 0 W/m² -3,6 °C 0,0 km/h (0 Bft)
28.12.2016 19:00 -2,3 °C -2,3 °C 91 % 1043,1 hPa 0,0 mm 0,0 km/h (0 Bft) S-SW 205 ° 0 min 0,000 mm 0,0 UV-I 0 W/m² -3,6 °C 0,0 km/h (0 Bft)
28.12.2016 19:01 -2,3 °C -2,3 °C 91 % 1043,1 hPa 0,0 mm 0,0 km/h (0 Bft) S-SW 205 ° 0 min 0,000 mm 0,0 UV-I 0 W/m² -3,6 °C 0,0 km/h (0 Bft)
28.12.2016 19:02 -2,3 °C -2,3 °C 91 % 1043,1 hPa 0,0 mm 0,0 km/h (0 Bft) S-SW 205 ° 0 min 0,000 mm 0,0 UV-I 0 W/m² -3,6 °C 0,0 km/h (0 Bft)
28.12.2016 19:03 -2,3 °C -2,3 °C 91 % 1043,1 hPa 0,0 mm 0,0 km/h (0 Bft) S-SW 205 ° 0 min 0,000 mm 0,0 UV-I 0 W/m² -3,6 °C 0,0 km/h (0 Bft)
28.12.2016 19:04 -2,2 °C -2,2 °C 91 % 1043,1 hPa 0,0 mm 0,0 km/h (0 Bft) S-SW 205 ° 0 min 0,000 mm 0,0 UV-I 0 W/m² -3,5 °C 0,0 km/h (0 Bft)
28.12.2016 19:05 -2,3 °C -2,2 °C 91 % 1043,1 hPa 0,0 mm 0,0 km/h (0 Bft) S-SW 205 ° 0 min 0,000 mm 0,0 UV-I 0 W/m² -3,6 °C 0,0 km/h (0 Bft)
28.12.2016 19:06 -2,2 °C -2,2 °C 91 % 1043,1 hPa 0,0 mm 0,0 km/h (0 Bft) S-SW 205 ° 0 min 0,000 mm 0,0 UV-I 0 W/m² -3,5 °C 0,0 km/h (0 Bft)
28.12.2016 19:07 -2,2 °C -2,2 °C 91 % 1043,1 hPa 0,0 mm 0,0 km/h (0 Bft) S-SW 205 ° 0 min 0,000 mm 0,0 UV-I 0 W/m² -3,5 °C 0,0 km/h (0 Bft)
28.12.2016 19:08 -2,2 °C -2,2 °C 91 % 1043,1 hPa 0,0 mm 0,0 km/h (0 Bft) S-SW 205 ° 0 min 0,000 mm 0,0 UV-I 0 W/m² -3,5 °C 0,0 km/h (0 Bft)
28.12.2016 19:09 -2,2 °C -2,2 °C 91 % 1043,1 hPa 0,0 mm 0,0 km/h (0 Bft) S-SW 205 ° 0 min 0,000 mm 0,0 UV-I 0 W/m² -3,5 °C 0,0 km/h (0 Bft)
28.12.2016 19:10 -2,2 °C -2,2 °C 91 % 1043,1 hPa 0,0 mm 0,0 km/h (0 Bft) S-SW 205 ° 0 min 0,000 mm 0,0 UV-I 0 W/m² -3,5 °C 0,0 km/h (0 Bft)
28.12.2016 19:11 -2,2 °C -2,1 °C 91 % 1043,2 hPa 0,0 mm 0,0 km/h (0 Bft) S-SW 205 ° 0 min 0,000 mm 0,0 UV-I 0 W/m² -3,5 °C 0,0 km/h (0 Bft)
28.12.2016 19:12 -2,1 °C -2,1 °C 91 % 1043,2 hPa 0,0 mm 0,0 km/h (0 Bft) S-SW 205 ° 0 min 0,000 mm 0,0 UV-I 0 W/m² -3,4 °C 0,0 km/h (0 Bft)
28.12.2016 19:13 -2,1 °C -2,1 °C 91 % 1043,2 hPa 0,0 mm 0,0 km/h (0 Bft) S-SW 205 ° 0 min 0,000 mm 0,0 UV-I 0 W/m² -3,4 °C 0,0 km/h (0 Bft)
28.12.2016 19:14 -2,1 °C -2,1 °C 91 % 1043,2 hPa 0,0 mm 0,0 km/h (0 Bft) S-SW 205 ° 0 min 0,000 mm 0,0 UV-I 0 W/m² -3,4 °C 0,0 km/h (0 Bft)
28.12.2016 19:15 -2,1 °C -2,1 °C 91 % 1043,2 hPa 0,0 mm 0,0 km/h (0 Bft) S-SW 205 ° 0 min 0,000 mm 0,0 UV-I 0 W/m² -3,4 °C 0,0 km/h (0 Bft)
28.12.2016 19:16 -2,1 °C -2,1 °C 91 % 1043,2 hPa 0,0 mm 0,0 km/h (0 Bft) S-SW 205 ° 0 min 0,000 mm 0,0 UV-I 0 W/m² -3,4 °C 0,0 km/h (0 Bft)
28.12.2016 19:17 -2,1 °C -2,1 °C 91 % 1043,2 hPa 0,0 mm 0,0 km/h (0 Bft) S-SW 205 ° 0 min 0,000 mm 0,0 UV-I 0 W/m² -3,4 °C 0,0 km/h (0 Bft)
28.12.2016 19:18 -2,0 °C -2,0 °C 91 % 1043,2 hPa 0,0 mm 0,0 km/h (0 Bft) S-SW 205 ° 0 min 0,000 mm 0,0 UV-I 0 W/m² -3,3 °C 0,0 km/h (0 Bft)
28.12.2016 19:19 -2,0 °C -2,0 °C 91 % 1043,2 hPa 0,0 mm 0,0 km/h (0 Bft) S-SW 205 ° 0 min 0,000 mm 0,0 UV-I 0 W/m² -3,3 °C 0,0 km/h (0 Bft)
28.12.2016 19:20 -2,0 °C -2,0 °C 91 % 1043,1 hPa 0,0 mm 0,0 km/h (0 Bft) S-SW 205 ° 0 min 0,000 mm 0,0 UV-I 0 W/m² -3,3 °C 0,0 km/h (0 Bft)
28.12.2016 19:21 -2,0 °C -2,0 °C 91 % 1043,1 hPa 0,0 mm 1,0 km/h (0 Bft) S-SW 205 ° 0 min 0,000 mm 0,0 UV-I 0 W/m² -3,3 °C 1,6 km/h (1 Bft)
28.12.2016 19:22 -1,9 °C -1,9 °C 91 % 1043,1 hPa 0,0 mm 0,4 km/h (0 Bft) S-SW 205 ° 0 min 0,000 mm 0,0 UV-I 0 W/m² -3,2 °C 1,6 km/h (1 Bft)
28.12.2016 19:23 -1,9 °C -1,9 °C 91 % 1043,1 hPa 0,0 mm 1,1 km/h (1 Bft) S-SW 205 ° 0 min 0,000 mm 0,0 UV-I 0 W/m² -3,2 °C 1,6 km/h (1 Bft)
28.12.2016 19:24 -1,9 °C -1,9 °C 92 % 1043,1 hPa 0,0 mm 0,1 km/h (0 Bft) S-SW 205 ° 0 min 0,000 mm 0,0 UV-I 0 W/m² -3,0 °C 1,6 km/h (1 Bft)
28.12.2016 19:25 -1,9 °C -1,9 °C 92 % 1043,1 hPa 0,0 mm 0,0 km/h (0 Bft) S-SW 205 ° 0 min 0,000 mm 0,0 UV-I 0 W/m² -3,0 °C 0,0 km/h (0 Bft)
28.12.2016 19:26 -1,9 °C -1,9 °C 92 % 1043,1 hPa 0,0 mm 0,0 km/h (0 Bft) S-SW 205 ° 0 min 0,000 mm 0,0 UV-I 0 W/m² -3,0 °C 0,0 km/h (0 Bft)
28.12.2016 19:27 -1,8 °C -1,8 °C 92 % 1043,2 hPa 0,0 mm 0,0 km/h (0 Bft) S-SW 205 ° 0 min 0,000 mm 0,0 UV-I 0 W/m² -2,9 °C 0,0 km/h (0 Bft)
28.12.2016 19:28 -1,8 °C -1,8 °C 92 % 1043,2 hPa 0,0 mm 0,0 km/h (0 Bft) S-SW 205 ° 0 min 0,000 mm 0,0 UV-I 0 W/m² -2,9 °C 0,0 km/h (0 Bft)
28.12.2016 19:29 -1,8 °C -1,8 °C 92 % 1043,2 hPa 0,0 mm 0,0 km/h (0 Bft) S-SW 205 ° 0 min 0,000 mm 0,0 UV-I 0 W/m² -2,9 °C 0,0 km/h (0 Bft)
28.12.2016 19:30 -1,8 °C -1,8 °C 92 % 1043,2 hPa 0,0 mm 0,0 km/h (0 Bft) S-SW 205 ° 0 min 0,000 mm 0,0 UV-I 0 W/m² -2,9 °C 0,0 km/h (0 Bft)
28.12.2016 19:31 -1,8 °C -1,8 °C 92 % 1043,2 hPa 0,0 mm 0,1 km/h (0 Bft) S-SW 192 ° 0 min 0,000 mm 0,0 UV-I 0 W/m² -2,9 °C 1,6 km/h (1 Bft)
28.12.2016 19:32 -1,7 °C -1,7 °C 92 % 1043,2 hPa 0,0 mm 1,8 km/h (1 Bft) S 189 ° 0 min 0,000 mm 0,0 UV-I 0 W/m² -2,8 °C 3,2 km/h (1 Bft)
28.12.2016 19:33 -1,7 °C -1,7 °C 92 % 1043,2 hPa 0,0 mm 0,1 km/h (0 Bft) S 189 ° 0 min 0,000 mm 0,0 UV-I 0 W/m² -2,8 °C 1,6 km/h (1 Bft)
28.12.2016 19:34 -1,7 °C -1,7 °C 92 % 1043,2 hPa 0,0 mm 2,6 km/h (1 Bft) O-SO 110 ° 0 min 0,000 mm 0,0 UV-I 0 W/m² -2,8 °C 4,8 km/h (1 Bft)
28.12.2016 19:35 -1,7 °C -1,7 °C 92 % 1043,2 hPa 0,0 mm 1,7 km/h (1 Bft) O-SO 110 ° 0 min 0,000 mm 0,0 UV-I 0 W/m² -2,8 °C 4,8 km/h (1 Bft)
28.12.2016 19:36 -1,7 °C -1,7 °C 92 % 1043,2 hPa 0,0 mm 0,0 km/h (0 Bft) O-SO 110 ° 0 min 0,000 mm 0,0 UV-I 0 W/m² -2,8 °C 0,0 km/h (0 Bft)
28.12.2016 19:37 -1,7 °C -1,7 °C 92 % 1043,2 hPa 0,0 mm 0,0 km/h (0 Bft) O-SO 110 ° 0 min 0,000 mm 0,0 UV-I 0 W/m² -2,8 °C 0,0 km/h (0 Bft)
28.12.2016 19:38 -1,7 °C -1,7 °C 92 % 1043,2 hPa 0,0 mm 0,0 km/h (0 Bft) O-SO 110 ° 0 min 0,000 mm 0,0 UV-I 0 W/m² -2,8 °C 0,0 km/h (0 Bft)
28.12.2016 19:39 -1,6 °C -1,6 °C 92 % 1043,1 hPa 0,0 mm 0,0 km/h (0 Bft) O-SO 110 ° 0 min 0,000 mm 0,0 UV-I 0 W/m² -2,7 °C 0,0 km/h (0 Bft)
28.12.2016 19:40 -1,6 °C -1,6 °C 92 % 1043,1 hPa 0,0 mm 0,7 km/h (0 Bft) O-SO 110 ° 0 min 0,000 mm 0,0 UV-I 0 W/m² -2,7 °C 1,6 km/h (1 Bft)
28.12.2016 19:41 -1,6 °C -1,6 °C 92 % 1043,1 hPa 0,0 mm 0,0 km/h (0 Bft) O-SO 110 ° 0 min 0,000 mm 0,0 UV-I 0 W/m² -2,7 °C 0,0 km/h (0 Bft)
28.12.2016 19:42 -1,6 °C -1,6 °C 92 % 1043,0 hPa 0,0 mm 0,0 km/h (0 Bft) O-SO 110 ° 0 min 0,000 mm 0,0 UV-I 0 W/m² -2,7 °C 0,0 km/h (0 Bft)
28.12.2016 19:43 -1,6 °C -1,5 °C 92 % 1043,0 hPa 0,0 mm 0,0 km/h (0 Bft) O-SO 110 ° 0 min 0,000 mm 0,0 UV-I 0 W/m² -2,7 °C 0,0 km/h (0 Bft)
28.12.2016 19:44 -1,5 °C -1,5 °C 92 % 1043,1 hPa 0,0 mm 0,0 km/h (0 Bft) O-SO 110 ° 0 min 0,000 mm 0,0 UV-I 0 W/m² -2,6 °C 0,0 km/h (0 Bft)
28.12.2016 19:45 -1,5 °C -1,5 °C 92 % 1043,0 hPa 0,0 mm 0,0 km/h (0 Bft) O-SO 110 ° 0 min 0,000 mm 0,0 UV-I 0 W/m² -2,6 °C 0,0 km/h (0 Bft)
28.12.2016 19:46 -1,4 °C -1,4 °C 92 % 1043,0 hPa 0,0 mm 1,2 km/h (1 Bft) O-SO 110 ° 0 min 0,000 mm 0,0 UV-I 0 W/m² -2,5 °C 3,2 km/h (1 Bft)
28.12.2016 19:47 -1,4 °C -1,4 °C 92 % 1043,0 hPa 0,0 mm 1,5 km/h (1 Bft) O-SO 110 ° 0 min 0,000 mm 0,0 UV-I 0 W/m² -2,5 °C 3,2 km/h (1 Bft)
28.12.2016 19:48 -1,4 °C -1,4 °C 92 % 1042,9 hPa 0,0 mm 1,1 km/h (1 Bft) O-SO 110 ° 0 min 0,000 mm 0,0 UV-I 0 W/m² -2,5 °C 3,2 km/h (1 Bft)
28.12.2016 19:49 -1,4 °C -1,4 °C 92 % 1042,9 hPa 0,0 mm 1,2 km/h (1 Bft) O-SO 110 ° 0 min 0,000 mm 0,0 UV-I 0 W/m² -2,5 °C 3,2 km/h (1 Bft)
28.12.2016 19:50 -1,4 °C -1,4 °C 92 % 1042,9 hPa 0,0 mm 0,3 km/h (0 Bft) O-SO 110 ° 0 min 0,000 mm 0,0 UV-I 0 W/m² -2,5 °C 1,6 km/h (1 Bft)
28.12.2016 19:51 -1,4 °C -1,4 °C 92 % 1042,9 hPa 0,0 mm 1,5 km/h (1 Bft) O-SO 110 ° 0 min 0,000 mm 0,0 UV-I 0 W/m² -2,5 °C 3,2 km/h (1 Bft)
28.12.2016 19:52 -1,3 °C -1,3 °C 93 % 1042,9 hPa 0,0 mm 1,5 km/h (1 Bft) O-SO 110 ° 0 min 0,000 mm 0,0 UV-I 0 W/m² -2,3 °C 3,2 km/h (1 Bft)
28.12.2016 19:53 -1,3 °C -1,3 °C 93 % 1042,9 hPa 0,0 mm 1,0 km/h (0 Bft) O-SO 110 ° 0 min 0,000 mm 0,0 UV-I 0 W/m² -2,3 °C 3,2 km/h (1 Bft)
28.12.2016 19:54 -1,3 °C -1,3 °C 93 % 1042,9 hPa 0,0 mm 1,0 km/h (0 Bft) O-SO 110 ° 0 min 0,000 mm 0,0 UV-I 0 W/m² -2,3 °C 1,6 km/h (1 Bft)
28.12.2016 19:55 -1,3 °C -1,3 °C 93 % 1042,9 hPa 0,0 mm 0,8 km/h (0 Bft) O-SO 110 ° 0 min 0,000 mm 0,0 UV-I 0 W/m² -2,3 °C 1,6 km/h (1 Bft)
28.12.2016 19:56 -1,2 °C -1,2 °C 92 % 1042,9 hPa 0,0 mm 0,9 km/h (0 Bft) O-SO 110 ° 0 min 0,000 mm 0,0 UV-I 0 W/m² -2,3 °C 3,2 km/h (1 Bft)
28.12.2016 19:57 -1,2 °C -1,2 °C 92 % 1042,8 hPa 0,0 mm 0,4 km/h (0 Bft) O-SO 110 ° 0 min 0,000 mm 0,0 UV-I 0 W/m² -2,3 °C 1,6 km/h (1 Bft)
28.12.2016 19:58 -1,2 °C -1,2 °C 92 % 1042,8 hPa 0,0 mm 2,9 km/h (1 Bft) O-SO 110 ° 0 min 0,000 mm 0,0 UV-I 0 W/m² -2,3 °C 4,8 km/h (1 Bft)
28.12.2016 19:59 -1,1 °C -1,1 °C 92 % 1042,8 hPa 0,0 mm 2,5 km/h (1 Bft) O-SO 110 ° 0 min 0,000 mm 0,0 UV-I 0 W/m² -2,2 °C 4,8 km/h (1 Bft)
28.12.2016 20:00 -1,1 °C -1,1 °C 93 % 1042,9 hPa 0,0 mm 1,7 km/h (1 Bft) O-SO 110 ° 0 min 0,000 mm 0,0 UV-I 0 W/m² -2,1 °C 3,2 km/h (1 Bft)
28.12.2016 20:01 -1,1 °C -1,1 °C 93 % 1042,8 hPa 0,0 mm 1,7 km/h (1 Bft) O-SO 110 ° 0 min 0,000 mm 0,0 UV-I 0 W/m² -2,1 °C 3,2 km/h (1 Bft)
28.12.2016 20:02 -1,1 °C -1,1 °C 93 % 1042,8 hPa 0,0 mm 2,0 km/h (1 Bft) O-SO 110 ° 0 min 0,000 mm 0,0 UV-I 0 W/m² -2,1 °C 3,2 km/h (1 Bft)
28.12.2016 20:03 -1,0 °C -1,0 °C 93 % 1042,9 hPa 0,0 mm 1,9 km/h (1 Bft) O-SO 110 ° 0 min 0,000 mm 0,0 UV-I 0 W/m² -2,0 °C 3,2 km/h (1 Bft)
28.12.2016 20:04 -1,0 °C -0,9 °C 92 % 1042,9 hPa 0,0 mm 0,6 km/h (0 Bft) O-SO 110 ° 0 min 0,000 mm 0,0 UV-I 0 W/m² -2,1 °C 1,6 km/h (1 Bft)
28.12.2016 20:05 -0,9 °C -0,9 °C 92 % 1042,9 hPa 0,0 mm 0,7 km/h (0 Bft) O-SO 110 ° 0 min 0,000 mm 0,0 UV-I 0 W/m² -2,0 °C 1,6 km/h (1 Bft)
28.12.2016 20:06 -0,9 °C -0,9 °C 92 % 1042,9 hPa 0,0 mm 1,1 km/h (1 Bft) O-SO 110 ° 0 min 0,000 mm 0,0 UV-I 0 W/m² -2,0 °C 1,6 km/h (1 Bft)
28.12.2016 20:07 -0,9 °C -0,9 °C 92 % 1042,9 hPa 0,0 mm 0,5 km/h (0 Bft) O-SO 110 ° 0 min 0,000 mm 0,0 UV-I 0 W/m² -2,0 °C 1,6 km/h (1 Bft)
28.12.2016 20:08 -0,9 °C -0,9 °C 92 % 1042,9 hPa 0,0 mm 0,6 km/h (0 Bft) O-SO 110 ° 0 min 0,000 mm 0,0 UV-I 0 W/m² -2,0 °C 1,6 km/h (1 Bft)
28.12.2016 20:09 -0,9 °C -0,9 °C 92 % 1042,9 hPa 0,0 mm 0,2 km/h (0 Bft) O-SO 110 ° 0 min 0,000 mm 0,0 UV-I 0 W/m² -2,0 °C 1,6 km/h (1 Bft)
28.12.2016 20:10 -0,9 °C -0,9 °C 92 % 1042,9 hPa 0,0 mm 0,4 km/h (0 Bft) O-SO 110 ° 0 min 0,000 mm 0,0 UV-I 0 W/m² -2,0 °C 1,6 km/h (1 Bft)
28.12.2016 20:11 -0,9 °C -0,9 °C 92 % 1042,8 hPa 0,0 mm 0,7 km/h (0 Bft) O-SO 110 ° 0 min 0,000 mm 0,0 UV-I 0 W/m² -2,0 °C 1,6 km/h (1 Bft)
28.12.2016 20:12 -0,9 °C -0,9 °C 92 % 1042,8 hPa 0,0 mm 0,0 km/h (0 Bft) O-SO 110 ° 0 min 0,000 mm 0,0 UV-I 0 W/m² -2,0 °C 0,0 km/h (0 Bft)
28.12.2016 20:13 -0,8 °C -0,8 °C 92 % 1042,8 hPa 0,0 mm 0,0 km/h (0 Bft) O-SO 110 ° 0 min 0,000 mm 0,0 UV-I 0 W/m² -1,9 °C 0,0 km/h (0 Bft)
28.12.2016 20:14 -0,8 °C -0,8 °C 92 % 1042,9 hPa 0,0 mm 0,0 km/h (0 Bft) O-SO 110 ° 0 min 0,000 mm 0,0 UV-I 0 W/m² -1,9 °C 0,0 km/h (0 Bft)
28.12.2016 20:15 -0,8 °C -0,8 °C 92 % 1042,8 hPa 0,0 mm 0,1 km/h (0 Bft) O-SO 110 ° 0 min 0,000 mm 0,0 UV-I 0 W/m² -1,9 °C 1,6 km/h (1 Bft)
28.12.2016 20:16 -0,8 °C -0,8 °C 92 % 1042,9 hPa 0,0 mm 0,0 km/h (0 Bft) O-SO 110 ° 0 min 0,000 mm 0,0 UV-I 0 W/m² -1,9 °C 0,0 km/h (0 Bft)
28.12.2016 20:17 -0,8 °C -0,8 °C 92 % 1042,8 hPa 0,0 mm 0,0 km/h (0 Bft) O-SO 110 ° 0 min 0,000 mm 0,0 UV-I 0 W/m² -1,9 °C 0,0 km/h (0 Bft)
28.12.2016 20:18 -0,8 °C -0,8 °C 92 % 1042,8 hPa 0,0 mm 0,0 km/h (0 Bft) O-SO 110 ° 0 min 0,000 mm 0,0 UV-I 0 W/m² -1,9 °C 0,0 km/h (0 Bft)
28.12.2016 20:19 -0,8 °C -0,8 °C 92 % 1042,9 hPa 0,0 mm 0,1 km/h (0 Bft) O-SO 110 ° 0 min 0,000 mm 0,0 UV-I 0 W/m² -1,9 °C 1,6 km/h (1 Bft)
28.12.2016 20:20 -0,8 °C -0,8 °C 92 % 1042,9 hPa 0,0 mm 0,0 km/h (0 Bft) O-SO 110 ° 0 min 0,000 mm 0,0 UV-I 0 W/m² -1,9 °C 0,0 km/h (0 Bft)
28.12.2016 20:21 -0,8 °C -0,7 °C 92 % 1042,9 hPa 0,0 mm 0,1 km/h (0 Bft) O-SO 110 ° 0 min 0,000 mm 0,0 UV-I 0 W/m² -1,9 °C 1,6 km/h (1 Bft)
28.12.2016 20:22 -0,7 °C -0,7 °C 92 % 1042,9 hPa 0,0 mm 0,1 km/h (0 Bft) O-SO 110 ° 0 min 0,000 mm 0,0 UV-I 0 W/m² -1,8 °C 1,6 km/h (1 Bft)
28.12.2016 20:23 -0,7 °C -0,7 °C 92 % 1043,0 hPa 0,0 mm 0,3 km/h (0 Bft) O-SO 110 ° 0 min 0,000 mm 0,0 UV-I 0 W/m² -1,8 °C 1,6 km/h (1 Bft)
28.12.2016 20:24 -0,7 °C -0,7 °C 92 % 1042,9 hPa 0,0 mm 0,4 km/h (0 Bft) O-SO 110 ° 0 min 0,000 mm 0,0 UV-I 0 W/m² -1,8 °C 1,6 km/h (1 Bft)
28.12.2016 20:25 -0,7 °C -0,7 °C 92 % 1042,9 hPa 0,0 mm 0,1 km/h (0 Bft) O-SO 110 ° 0 min 0,000 mm 0,0 UV-I 0 W/m² -1,8 °C 1,6 km/h (1 Bft)
28.12.2016 20:26 -0,7 °C -0,7 °C 92 % 1043,0 hPa 0,0 mm 0,0 km/h (0 Bft) O-SO 110 ° 0 min 0,000 mm 0,0 UV-I 0 W/m² -1,8 °C 0,0 km/h (0 Bft)
28.12.2016 20:27 -0,7 °C -0,7 °C 92 % 1042,9 hPa 0,0 mm 0,0 km/h (0 Bft) O-SO 110 ° 0 min 0,000 mm 0,0 UV-I 0 W/m² -1,8 °C 0,0 km/h (0 Bft)
28.12.2016 20:28 -0,7 °C -0,7 °C 92 % 1042,9 hPa 0,0 mm 0,0 km/h (0 Bft) O-SO 110 ° 0 min 0,000 mm 0,0 UV-I 0 W/m² -1,8 °C 0,0 km/h (0 Bft)
28.12.2016 20:29 -0,7 °C -0,7 °C 91 % 1042,9 hPa 0,0 mm 0,0 km/h (0 Bft) O-SO 110 ° 0 min 0,000 mm 0,0 UV-I 0 W/m² -2,0 °C 0,0 km/h (0 Bft)
28.12.2016 20:30 -0,7 °C -0,7 °C 91 % 1042,9 hPa 0,0 mm 0,0 km/h (0 Bft) O-SO 110 ° 0 min 0,000 mm 0,0 UV-I 0 W/m² -2,0 °C 0,0 km/h (0 Bft)
28.12.2016 20:31 -0,7 °C -0,7 °C 91 % 1042,9 hPa 0,0 mm 0,0 km/h (0 Bft) O-SO 110 ° 0 min 0,000 mm 0,0 UV-I 0 W/m² -2,0 °C 0,0 km/h (0 Bft)
28.12.2016 20:32 -0,7 °C -0,6 °C 91 % 1042,9 hPa 0,0 mm 0,0 km/h (0 Bft) O-SO 110 ° 0 min 0,000 mm 0,0 UV-I 0 W/m² -2,0 °C 0,0 km/h (0 Bft)
28.12.2016 20:33 -0,6 °C -0,6 °C 91 % 1042,9 hPa 0,0 mm 0,0 km/h (0 Bft) O-SO 110 ° 0 min 0,000 mm 0,0 UV-I 0 W/m² -1,9 °C 0,0 km/h (0 Bft)
28.12.2016 20:34 -0,6 °C -0,6 °C 91 % 1042,9 hPa 0,0 mm 0,0 km/h (0 Bft) O-SO 110 ° 0 min 0,000 mm 0,0 UV-I 0 W/m² -1,9 °C 0,0 km/h (0 Bft)
28.12.2016 20:35 -0,6 °C -0,6 °C 91 % 1042,9 hPa 0,0 mm 0,0 km/h (0 Bft) O-SO 110 ° 0 min 0,000 mm 0,0 UV-I 0 W/m² -1,9 °C 0,0 km/h (0 Bft)
28.12.2016 20:36 -0,6 °C -0,6 °C 91 % 1042,9 hPa 0,0 mm 0,0 km/h (0 Bft) O-SO 110 ° 0 min 0,000 mm 0,0 UV-I 0 W/m² -1,9 °C 0,0 km/h (0 Bft)
28.12.2016 20:37 -0,6 °C -0,6 °C 91 % 1042,9 hPa 0,0 mm 0,0 km/h (0 Bft) O-SO 110 ° 0 min 0,000 mm 0,0 UV-I 0 W/m² -1,9 °C 0,0 km/h (0 Bft)
28.12.2016 20:38 -0,6 °C -0,6 °C 91 % 1042,9 hPa 0,0 mm 0,0 km/h (0 Bft) O-SO 110 ° 0 min 0,000 mm 0,0 UV-I 0 W/m² -1,9 °C 0,0 km/h (0 Bft)
28.12.2016 20:39 -0,6 °C -0,6 °C 91 % 1042,9 hPa 0,0 mm 0,0 km/h (0 Bft) O-SO 110 ° 0 min 0,000 mm 0,0 UV-I 0 W/m² -1,9 °C 0,0 km/h (0 Bft)
28.12.2016 20:40 -0,6 °C -0,6 °C 91 % 1042,9 hPa 0,0 mm 0,0 km/h (0 Bft) O-SO 110 ° 0 min 0,000 mm 0,0 UV-I 0 W/m² -1,9 °C 0,0 km/h (0 Bft)
28.12.2016 20:41 -0,6 °C -0,6 °C 91 % 1042,9 hPa 0,0 mm 0,1 km/h (0 Bft) O-SO 110 ° 0 min 0,000 mm 0,0 UV-I 0 W/m² -1,9 °C 1,6 km/h (1 Bft)
28.12.2016 20:42 -0,6 °C -0,6 °C 91 % 1042,9 hPa 0,0 mm 1,1 km/h (1 Bft) O-SO 110 ° 0 min 0,000 mm 0,0 UV-I 0 W/m² -1,9 °C 1,6 km/h (1 Bft)
28.12.2016 20:43 -0,6 °C -0,6 °C 91 % 1042,9 hPa 0,0 mm 0,4 km/h (0 Bft) O-SO 110 ° 0 min 0,000 mm 0,0 UV-I 0 W/m² -1,9 °C 1,6 km/h (1 Bft)
28.12.2016 20:44 -0,6 °C -0,6 °C 91 % 1042,8 hPa 0,0 mm 0,0 km/h (0 Bft) O-SO 110 ° 0 min 0,000 mm 0,0 UV-I 0 W/m² -1,9 °C 0,0 km/h (0 Bft)
28.12.2016 20:45 -0,6 °C -0,6 °C 91 % 1042,9 hPa 0,0 mm 0,0 km/h (0 Bft) O-SO 110 ° 0 min 0,000 mm 0,0 UV-I 0 W/m² -1,9 °C 0,0 km/h (0 Bft)
28.12.2016 20:46 -0,6 °C -0,6 °C 91 % 1042,8 hPa 0,0 mm 0,0 km/h (0 Bft) O-SO 110 ° 0 min 0,000 mm 0,0 UV-I 0 W/m² -1,9 °C 0,0 km/h (0 Bft)
28.12.2016 20:47 -0,6 °C -0,6 °C 91 % 1042,8 hPa 0,0 mm 0,0 km/h (0 Bft) O-SO 110 ° 0 min 0,000 mm 0,0 UV-I 0 W/m² -1,9 °C 0,0 km/h (0 Bft)
28.12.2016 20:48 -0,6 °C -0,6 °C 91 % 1042,8 hPa 0,0 mm 0,0 km/h (0 Bft) O-SO 110 ° 0 min 0,000 mm 0,0 UV-I 0 W/m² -1,9 °C 0,0 km/h (0 Bft)
28.12.2016 20:49 -0,6 °C -0,6 °C 91 % 1042,8 hPa 0,0 mm 0,0 km/h (0 Bft) O-SO 110 ° 0 min 0,000 mm 0,0 UV-I 0 W/m² -1,9 °C 0,0 km/h (0 Bft)
28.12.2016 20:50 -0,6 °C -0,6 °C 91 % 1042,8 hPa 0,0 mm 0,0 km/h (0 Bft) O-SO 110 ° 0 min 0,000 mm 0,0 UV-I 0 W/m² -1,9 °C 0,0 km/h (0 Bft)
28.12.2016 20:51 -0,6 °C -0,6 °C 90 % 1042,8 hPa 0,0 mm 0,0 km/h (0 Bft) O-SO 110 ° 0 min 0,000 mm 0,0 UV-I 0 W/m² -2,0 °C 0,0 km/h (0 Bft)
28.12.2016 20:52 -0,6 °C -0,6 °C 90 % 1042,8 hPa 0,0 mm 0,0 km/h (0 Bft) O-SO 110 ° 0 min 0,000 mm 0,0 UV-I 0 W/m² -2,0 °C 0,0 km/h (0 Bft)
28.12.2016 20:53 -0,6 °C -0,6 °C 90 % 1042,8 hPa 0,0 mm 0,0 km/h (0 Bft) O-SO 110 ° 0 min 0,000 mm 0,0 UV-I 0 W/m² -2,0 °C 0,0 km/h (0 Bft)
28.12.2016 20:54 -0,6 °C -0,5 °C 90 % 1042,8 hPa 0,0 mm 0,0 km/h (0 Bft) O-SO 110 ° 0 min 0,000 mm 0,0 UV-I 0 W/m² -2,0 °C 0,0 km/h (0 Bft)
28.12.2016 20:55 -0,6 °C -0,6 °C 90 % 1042,8 hPa 0,0 mm 0,0 km/h (0 Bft) O-SO 110 ° 0 min 0,000 mm 0,0 UV-I 0 W/m² -2,0 °C 0,0 km/h (0 Bft)
28.12.2016 20:56 -0,6 °C -0,5 °C 90 % 1042,8 hPa 0,0 mm 0,0 km/h (0 Bft) O-SO 110 ° 0 min 0,000 mm 0,0 UV-I 0 W/m² -2,0 °C 0,0 km/h (0 Bft)
28.12.2016 20:57 -0,6 °C -0,6 °C 90 % 1042,8 hPa 0,0 mm 0,0 km/h (0 Bft) O-SO 110 ° 0 min 0,000 mm 0,0 UV-I 0 W/m² -2,0 °C 0,0 km/h (0 Bft)
28.12.2016 20:58 -0,6 °C -0,5 °C 90 % 1042,8 hPa 0,0 mm 0,0 km/h (0 Bft) O-SO 110 ° 0 min 0,000 mm 0,0 UV-I 0 W/m² -2,0 °C 0,0 km/h (0 Bft)
28.12.2016 20:59 -0,6 °C -0,5 °C 90 % 1042,8 hPa 0,0 mm 0,0 km/h (0 Bft) O-SO 110 ° 0 min 0,000 mm 0,0 UV-I 0 W/m² -2,0 °C 0,0 km/h (0 Bft)
28.12.2016 21:00 -0,6 °C -0,6 °C 90 % 1042,8 hPa 0,0 mm 0,0 km/h (0 Bft) O-SO 110 ° 0 min 0,000 mm 0,0 UV-I 0 W/m² -2,0 °C 0,0 km/h (0 Bft)
28.12.2016 21:01 -0,6 °C -0,5 °C 90 % 1042,8 hPa 0,0 mm 0,0 km/h (0 Bft) O-SO 110 ° 0 min 0,000 mm 0,0 UV-I 0 W/m² -2,0 °C 0,0 km/h (0 Bft)
28.12.2016 21:02 -0,6 °C -0,5 °C 90 % 1042,8 hPa 0,0 mm 0,0 km/h (0 Bft) O-SO 110 ° 0 min 0,000 mm 0,0 UV-I 0 W/m² -2,0 °C 0,0 km/h (0 Bft)
28.12.2016 21:03 -0,6 °C -0,6 °C 90 % 1042,8 hPa 0,0 mm 0,0 km/h (0 Bft) O-SO 110 ° 0 min 0,000 mm 0,0 UV-I 0 W/m² -2,0 °C 0,0 km/h (0 Bft)
28.12.2016 21:04 -0,5 °C -0,5 °C 90 % 1042,8 hPa 0,0 mm 0,0 km/h (0 Bft) O-SO 110 ° 0 min 0,000 mm 0,0 UV-I 0 W/m² -1,9 °C 0,0 km/h (0 Bft)
28.12.2016 21:05 -0,5 °C -0,5 °C 90 % 1042,8 hPa 0,0 mm 0,0 km/h (0 Bft) O-SO 110 ° 0 min 0,000 mm 0,0 UV-I 0 W/m² -1,9 °C 0,0 km/h (0 Bft)
28.12.2016 21:06 -0,6 °C -0,5 °C 90 % 1042,8 hPa 0,0 mm 0,0 km/h (0 Bft) O-SO 110 ° 0 min 0,000 mm 0,0 UV-I 0 W/m² -2,0 °C 0,0 km/h (0 Bft)
28.12.2016 21:07 -0,6 °C -0,6 °C 90 % 1042,8 hPa 0,0 mm 0,0 km/h (0 Bft) O-SO 110 ° 0 min 0,000 mm 0,0 UV-I 0 W/m² -2,0 °C 0,0 km/h (0 Bft)
28.12.2016 21:08 -0,5 °C -0,5 °C 90 % 1042,9 hPa 0,0 mm 0,0 km/h (0 Bft) O-SO 110 ° 0 min 0,000 mm 0,0 UV-I 0 W/m² -1,9 °C 0,0 km/h (0 Bft)
28.12.2016 21:09 -0,6 °C -0,5 °C 90 % 1042,9 hPa 0,0 mm 0,5 km/h (0 Bft) O-SO 110 ° 0 min 0,000 mm 0,0 UV-I 0 W/m² -2,0 °C 1,6 km/h (1 Bft)
28.12.2016 21:10 -0,6 °C -0,5 °C 90 % 1043,0 hPa 0,0 mm 2,4 km/h (1 Bft) O-SO 110 ° 0 min 0,000 mm 0,0 UV-I 0 W/m² -2,0 °C 3,2 km/h (1 Bft)
28.12.2016 21:11 -0,6 °C -0,5 °C 90 % 1042,9 hPa 0,0 mm 3,1 km/h (1 Bft) O-SO 109 ° 0 min 0,000 mm 0,0 UV-I 0 W/m² -2,0 °C 3,2 km/h (1 Bft)
28.12.2016 21:12 -0,6 °C -0,5 °C 90 % 1042,9 hPa 0,0 mm 2,1 km/h (1 Bft) O-SO 109 ° 0 min 0,000 mm 0,0 UV-I 0 W/m² -2,0 °C 3,2 km/h (1 Bft)
28.12.2016 21:13 -0,6 °C -0,5 °C 90 % 1042,9 hPa 0,0 mm 2,2 km/h (1 Bft) O-SO 104 ° 0 min 0,000 mm 0,0 UV-I 0 W/m² -2,0 °C 4,8 km/h (1 Bft)
28.12.2016 21:14 -0,6 °C -0,6 °C 90 % 1042,9 hPa 0,0 mm 1,5 km/h (1 Bft) O-SO 104 ° 0 min 0,000 mm 0,0 UV-I 0 W/m² -2,0 °C 3,2 km/h (1 Bft)
28.12.2016 21:15 -0,6 °C -0,5 °C 90 % 1042,9 hPa 0,0 mm 0,9 km/h (0 Bft) O-SO 104 ° 0 min 0,000 mm 0,0 UV-I 0 W/m² -2,0 °C 1,6 km/h (1 Bft)
28.12.2016 21:16 -0,6 °C -0,6 °C 90 % 1042,9 hPa 0,0 mm 0,7 km/h (0 Bft) O-SO 104 ° 0 min 0,000 mm 0,0 UV-I 0 W/m² -2,0 °C 1,6 km/h (1 Bft)
28.12.2016 21:17 -0,6 °C -0,6 °C 90 % 1042,9 hPa 0,0 mm 1,7 km/h (1 Bft) O-SO 104 ° 0 min 0,000 mm 0,0 UV-I 0 W/m² -2,0 °C 3,2 km/h (1 Bft)
28.12.2016 21:18 -0,6 °C -0,6 °C 90 % 1042,9 hPa 0,0 mm 2,6 km/h (1 Bft) O-SO 104 ° 0 min 0,000 mm 0,0 UV-I 0 W/m² -2,0 °C 4,8 km/h (1 Bft)
28.12.2016 21:19 -0,6 °C -0,6 °C 90 % 1043,0 hPa 0,0 mm 0,7 km/h (0 Bft) O-SO 104 ° 0 min 0,000 mm 0,0 UV-I 0 W/m² -2,0 °C 3,2 km/h (1 Bft)
28.12.2016 21:20 -0,6 °C -0,6 °C 90 % 1042,9 hPa 0,0 mm 1,5 km/h (1 Bft) O-SO 104 ° 0 min 0,000 mm 0,0 UV-I 0 W/m² -2,0 °C 3,2 km/h (1 Bft)
28.12.2016 21:21 -0,6 °C -0,6 °C 90 % 1043,0 hPa 0,0 mm 1,7 km/h (1 Bft) O-SO 104 ° 0 min 0,000 mm 0,0 UV-I 0 W/m² -2,0 °C 3,2 km/h (1 Bft)
28.12.2016 21:22 -0,6 °C -0,6 °C 90 % 1043,0 hPa 0,0 mm 1,1 km/h (1 Bft) O-SO 104 ° 0 min 0,000 mm 0,0 UV-I 0 W/m² -2,0 °C 3,2 km/h (1 Bft)
28.12.2016 21:23 -0,5 °C -0,5 °C 90 % 1043,0 hPa 0,0 mm 1,1 km/h (1 Bft) O-SO 104 ° 0 min 0,000 mm 0,0 UV-I 0 W/m² -1,9 °C 1,6 km/h (1 Bft)
28.12.2016 21:24 -0,6 °C -0,5 °C 90 % 1042,9 hPa 0,0 mm 1,9 km/h (1 Bft) O-SO 104 ° 0 min 0,000 mm 0,0 UV-I 0 W/m² -2,0 °C 3,2 km/h (1 Bft)
28.12.2016 21:25 -0,6 °C -0,6 °C 90 % 1042,9 hPa 0,0 mm 2,3 km/h (1 Bft) O-NO 61 ° 0 min 0,000 mm 0,0 UV-I 0 W/m² -2,0 °C 4,8 km/h (1 Bft)
28.12.2016 21:26 -0,6 °C -0,6 °C 90 % 1042,9 hPa 0,0 mm 1,9 km/h (1 Bft) O-NO 61 ° 0 min 0,000 mm 0,0 UV-I 0 W/m² -2,0 °C 3,2 km/h (1 Bft)
28.12.2016 21:27 -0,6 °C -0,5 °C 90 % 1042,9 hPa 0,0 mm 1,3 km/h (1 Bft) O-NO 61 ° 0 min 0,000 mm 0,0 UV-I 0 W/m² -2,0 °C 3,2 km/h (1 Bft)
28.12.2016 21:28 -0,6 °C -0,6 °C 90 % 1042,9 hPa 0,0 mm 0,0 km/h (0 Bft) O-NO 61 ° 0 min 0,000 mm 0,0 UV-I 0 W/m² -2,0 °C 0,0 km/h (0 Bft)
28.12.2016 21:29 -0,6 °C -0,6 °C 90 % 1042,9 hPa 0,0 mm 0,6 km/h (0 Bft) O-NO 61 ° 0 min 0,000 mm 0,0 UV-I 0 W/m² -2,0 °C 1,6 km/h (1 Bft)
28.12.2016 21:30 -0,6 °C -0,6 °C 90 % 1042,9 hPa 0,0 mm 0,1 km/h (0 Bft) O-NO 61 ° 0 min 0,000 mm 0,0 UV-I 0 W/m² -2,0 °C 1,6 km/h (1 Bft)
28.12.2016 21:31 -0,6 °C -0,5 °C 90 % 1042,9 hPa 0,0 mm 0,0 km/h (0 Bft) O-NO 61 ° 0 min 0,000 mm 0,0 UV-I 0 W/m² -2,0 °C 0,0 km/h (0 Bft)
28.12.2016 21:32 -0,6 °C -0,5 °C 90 % 1042,9 hPa 0,0 mm 0,5 km/h (0 Bft) O-NO 61 ° 0 min 0,000 mm 0,0 UV-I 0 W/m² -2,0 °C 1,6 km/h (1 Bft)
28.12.2016 21:33 -0,6 °C -0,6 °C 90 % 1042,9 hPa 0,0 mm 0,5 km/h (0 Bft) O-NO 61 ° 0 min 0,000 mm 0,0 UV-I 0 W/m² -2,0 °C 1,6 km/h (1 Bft)
28.12.2016 21:34 -0,6 °C -0,6 °C 90 % 1042,9 hPa 0,0 mm 1,3 km/h (1 Bft) O-NO 61 ° 0 min 0,000 mm 0,0 UV-I 0 W/m² -2,0 °C 1,6 km/h (1 Bft)
28.12.2016 21:35 -0,6 °C -0,6 °C 90 % 1042,8 hPa 0,0 mm 0,4 km/h (0 Bft) O-NO 61 ° 0 min 0,000 mm 0,0 UV-I 0 W/m² -2,0 °C 1,6 km/h (1 Bft)
28.12.2016 21:36 -0,6 °C -0,5 °C 90 % 1042,8 hPa 0,0 mm 0,0 km/h (0 Bft) O-NO 61 ° 0 min 0,000 mm 0,0 UV-I 0 W/m² -2,0 °C 0,0 km/h (0 Bft)
28.12.2016 21:37 -0,6 °C -0,5 °C 90 % 1042,8 hPa 0,0 mm 0,0 km/h (0 Bft) O-NO 61 ° 0 min 0,000 mm 0,0 UV-I 0 W/m² -2,0 °C 0,0 km/h (0 Bft)
28.12.2016 21:38 -0,6 °C -0,6 °C 90 % 1042,8 hPa 0,0 mm 0,0 km/h (0 Bft) O-NO 61 ° 0 min 0,000 mm 0,0 UV-I 0 W/m² -2,0 °C 0,0 km/h (0 Bft)
28.12.2016 21:39 -0,6 °C -0,5 °C 90 % 1042,8 hPa 0,0 mm 0,1 km/h (0 Bft) O-NO 61 ° 0 min 0,000 mm 0,0 UV-I 0 W/m² -2,0 °C 1,6 km/h (1 Bft)
28.12.2016 21:40 -0,6 °C -0,5 °C 90 % 1042,8 hPa 0,0 mm 0,0 km/h (0 Bft) O-NO 61 ° 0 min 0,000 mm 0,0 UV-I 0 W/m² -2,0 °C 0,0 km/h (0 Bft)
28.12.2016 21:41 -0,5 °C -0,5 °C 90 % 1042,8 hPa 0,0 mm 0,0 km/h (0 Bft) O-NO 61 ° 0 min 0,000 mm 0,0 UV-I 0 W/m² -1,9 °C 0,0 km/h (0 Bft)
28.12.2016 21:42 -0,6 °C -0,5 °C 90 % 1042,8 hPa 0,0 mm 0,0 km/h (0 Bft) O-NO 61 ° 0 min 0,000 mm 0,0 UV-I 0 W/m² -2,0 °C 0,0 km/h (0 Bft)
28.12.2016 21:43 -0,5 °C -0,5 °C 90 % 1042,8 hPa 0,0 mm 0,0 km/h (0 Bft) O-NO 61 ° 0 min 0,000 mm 0,0 UV-I 0 W/m² -1,9 °C 0,0 km/h (0 Bft)
28.12.2016 21:44 -0,6 °C -0,5 °C 90 % 1042,8 hPa 0,0 mm 0,0 km/h (0 Bft) O-NO 61 ° 0 min 0,000 mm 0,0 UV-I 0 W/m² -2,0 °C 0,0 km/h (0 Bft)
28.12.2016 21:45 -0,6 °C -0,5 °C 90 % 1042,8 hPa 0,0 mm 0,0 km/h (0 Bft) O-NO 61 ° 0 min 0,000 mm 0,0 UV-I 0 W/m² -2,0 °C 0,0 km/h (0 Bft)
28.12.2016 21:46 -0,5 °C -0,5 °C 90 % 1042,8 hPa 0,0 mm 0,0 km/h (0 Bft) O-NO 61 ° 0 min 0,000 mm 0,0 UV-I 0 W/m² -1,9 °C 0,0 km/h (0 Bft)
28.12.2016 21:47 -0,6 °C -0,5 °C 90 % 1042,7 hPa 0,0 mm 0,0 km/h (0 Bft) O-NO 61 ° 0 min 0,000 mm 0,0 UV-I 0 W/m² -2,0 °C 0,0 km/h (0 Bft)
28.12.2016 21:48 -0,6 °C -0,5 °C 90 % 1042,7 hPa 0,0 mm 0,0 km/h (0 Bft) O-NO 61 ° 0 min 0,000 mm 0,0 UV-I 0 W/m² -2,0 °C 0,0 km/h (0 Bft)
28.12.2016 21:49 -0,5 °C -0,5 °C 90 % 1042,6 hPa 0,0 mm 0,0 km/h (0 Bft) O-NO 61 ° 0 min 0,000 mm 0,0 UV-I 0 W/m² -1,9 °C 0,0 km/h (0 Bft)
28.12.2016 21:50 -0,6 °C -0,5 °C 90 % 1042,7 hPa 0,0 mm 0,0 km/h (0 Bft) O-NO 61 ° 0 min 0,000 mm 0,0 UV-I 0 W/m² -2,0 °C 0,0 km/h (0 Bft)
28.12.2016 21:51 -0,5 °C -0,5 °C 89 % 1042,7 hPa 0,0 mm 0,0 km/h (0 Bft) O-NO 61 ° 0 min 0,000 mm 0,0 UV-I 0 W/m² -2,1 °C 0,0 km/h (0 Bft)
28.12.2016 21:52 -0,5 °C -0,5 °C 89 % 1042,6 hPa 0,0 mm 0,1 km/h (0 Bft) O-NO 61 ° 0 min 0,000 mm 0,0 UV-I 0 W/m² -2,1 °C 1,6 km/h (1 Bft)
28.12.2016 21:53 -0,5 °C -0,5 °C 89 % 1042,6 hPa 0,0 mm 0,3 km/h (0 Bft) O-NO 61 ° 0 min 0,000 mm 0,0 UV-I 0 W/m² -2,1 °C 1,6 km/h (1 Bft)
28.12.2016 21:54 -0,5 °C -0,5 °C 89 % 1042,6 hPa 0,0 mm 0,1 km/h (0 Bft) O-NO 61 ° 0 min 0,000 mm 0,0 UV-I 0 W/m² -2,1 °C 1,6 km/h (1 Bft)
28.12.2016 21:55 -0,5 °C -0,5 °C 89 % 1042,6 hPa 0,0 mm 0,0 km/h (0 Bft) O-NO 61 ° 0 min 0,000 mm 0,0 UV-I 0 W/m² -2,1 °C 0,0 km/h (0 Bft)
28.12.2016 21:56 -0,5 °C -0,5 °C 89 % 1042,6 hPa 0,0 mm 0,0 km/h (0 Bft) O-NO 61 ° 0 min 0,000 mm 0,0 UV-I 0 W/m² -2,1 °C 0,0 km/h (0 Bft)
28.12.2016 21:57 -0,5 °C -0,5 °C 89 % 1042,6 hPa 0,0 mm 0,4 km/h (0 Bft) O-NO 61 ° 0 min 0,000 mm 0,0 UV-I 0 W/m² -2,1 °C 1,6 km/h (1 Bft)
28.12.2016 21:58 -0,5 °C -0,5 °C 89 % 1042,6 hPa 0,0 mm 0,3 km/h (0 Bft) O-NO 61 ° 0 min 0,000 mm 0,0 UV-I 0 W/m² -2,1 °C 1,6 km/h (1 Bft)
28.12.2016 21:59 -0,5 °C -0,5 °C 89 % 1042,6 hPa 0,0 mm 0,8 km/h (0 Bft) O-NO 61 ° 0 min 0,000 mm 0,0 UV-I 0 W/m² -2,1 °C 1,6 km/h (1 Bft)
28.12.2016 22:00 -0,5 °C -0,5 °C 89 % 1042,6 hPa 0,0 mm 0,9 km/h (0 Bft) O-NO 61 ° 0 min 0,000 mm 0,0 UV-I 0 W/m² -2,1 °C 1,6 km/h (1 Bft)
28.12.2016 22:01 -0,5 °C -0,5 °C 89 % 1042,6 hPa 0,0 mm 0,4 km/h (0 Bft) O-NO 61 ° 0 min 0,000 mm 0,0 UV-I 0 W/m² -2,1 °C 1,6 km/h (1 Bft)
28.12.2016 22:02 -0,5 °C -0,5 °C 89 % 1042,7 hPa 0,0 mm 0,3 km/h (0 Bft) O-NO 61 ° 0 min 0,000 mm 0,0 UV-I 0 W/m² -2,1 °C 1,6 km/h (1 Bft)
28.12.2016 22:03 -0,5 °C -0,5 °C 89 % 1042,6 hPa 0,0 mm 0,0 km/h (0 Bft) O-NO 61 ° 0 min 0,000 mm 0,0 UV-I 0 W/m² -2,1 °C 0,0 km/h (0 Bft)
28.12.2016 22:04 -0,5 °C -0,5 °C 89 % 1042,7 hPa 0,0 mm 0,5 km/h (0 Bft) O-NO 61 ° 0 min 0,000 mm 0,0 UV-I 0 W/m² -2,1 °C 1,6 km/h (1 Bft)
28.12.2016 22:05 -0,5 °C -0,5 °C 89 % 1042,7 hPa 0,0 mm 0,5 km/h (0 Bft) O-NO 61 ° 0 min 0,000 mm 0,0 UV-I 0 W/m² -2,1 °C 1,6 km/h (1 Bft)
28.12.2016 22:06 -0,5 °C -0,5 °C 89 % 1042,7 hPa 0,0 mm 0,1 km/h (0 Bft) O-NO 61 ° 0 min 0,000 mm 0,0 UV-I 0 W/m² -2,1 °C 1,6 km/h (1 Bft)
28.12.2016 22:07 -0,5 °C -0,5 °C 89 % 1042,7 hPa 0,0 mm 0,0 km/h (0 Bft) O-NO 61 ° 0 min 0,000 mm 0,0 UV-I 0 W/m² -2,1 °C 0,0 km/h (0 Bft)
28.12.2016 22:08 -0,5 °C -0,5 °C 89 % 1042,7 hPa 0,0 mm 0,0 km/h (0 Bft) O-NO 61 ° 0 min 0,000 mm 0,0 UV-I 0 W/m² -2,1 °C 0,0 km/h (0 Bft)
28.12.2016 22:09 -0,5 °C -0,5 °C 89 % 1042,7 hPa 0,0 mm 0,0 km/h (0 Bft) O-NO 61 ° 0 min 0,000 mm 0,0 UV-I 0 W/m² -2,1 °C 0,0 km/h (0 Bft)
28.12.2016 22:10 -0,5 °C -0,4 °C 89 % 1042,7 hPa 0,0 mm 0,0 km/h (0 Bft) O-NO 61 ° 0 min 0,000 mm 0,0 UV-I 0 W/m² -2,1 °C 0,0 km/h (0 Bft)
28.12.2016 22:11 -0,5 °C -0,5 °C 89 % 1042,7 hPa 0,0 mm 0,0 km/h (0 Bft) O-NO 61 ° 0 min 0,000 mm 0,0 UV-I 0 W/m² -2,1 °C 0,0 km/h (0 Bft)
28.12.2016 22:12 -0,5 °C -0,5 °C 89 % 1042,7 hPa 0,0 mm 0,2 km/h (0 Bft) O-NO 61 ° 0 min 0,000 mm 0,0 UV-I 0 W/m² -2,1 °C 1,6 km/h (1 Bft)
28.12.2016 22:13 -0,5 °C -0,5 °C 89 % 1042,7 hPa 0,0 mm 1,5 km/h (1 Bft) O-NO 61 ° 0 min 0,000 mm 0,0 UV-I 0 W/m² -2,1 °C 3,2 km/h (1 Bft)
28.12.2016 22:14 -0,4 °C -0,4 °C 89 % 1042,7 hPa 0,0 mm 1,9 km/h (1 Bft) O-NO 61 ° 0 min 0,000 mm 0,0 UV-I 0 W/m² -2,0 °C 3,2 km/h (1 Bft)
28.12.2016 22:15 -0,5 °C -0,4 °C 89 % 1042,7 hPa 0,0 mm 1,5 km/h (1 Bft) O-NO 61 ° 0 min 0,000 mm 0,0 UV-I 0 W/m² -2,1 °C 3,2 km/h (1 Bft)
28.12.2016 22:16 -0,5 °C -0,5 °C 89 % 1042,7 hPa 0,0 mm 1,9 km/h (1 Bft) O-NO 61 ° 0 min 0,000 mm 0,0 UV-I 0 W/m² -2,1 °C 3,2 km/h (1 Bft)
28.12.2016 22:17 -0,5 °C -0,5 °C 89 % 1042,7 hPa 0,0 mm 2,5 km/h (1 Bft) O-NO 61 ° 0 min 0,000 mm 0,0 UV-I 0 W/m² -2,1 °C 4,8 km/h (1 Bft)
28.12.2016 22:18 -0,4 °C -0,4 °C 89 % 1042,7 hPa 0,0 mm 2,3 km/h (1 Bft) O-NO 61 ° 0 min 0,000 mm 0,0 UV-I 0 W/m² -2,0 °C 3,2 km/h (1 Bft)
28.12.2016 22:19 -0,5 °C -0,4 °C 89 % 1042,7 hPa 0,0 mm 0,8 km/h (0 Bft) O-NO 61 ° 0 min 0,000 mm 0,0 UV-I 0 W/m² -2,1 °C 1,6 km/h (1 Bft)
28.12.2016 22:20 -0,5 °C -0,5 °C 89 % 1042,8 hPa 0,0 mm 1,8 km/h (1 Bft) O-NO 61 ° 0 min 0,000 mm 0,0 UV-I 0 W/m² -2,1 °C 3,2 km/h (1 Bft)
28.12.2016 22:21 -0,4 °C -0,4 °C 89 % 1042,7 hPa 0,0 mm 0,8 km/h (0 Bft) O-NO 61 ° 0 min 0,000 mm 0,0 UV-I 0 W/m² -2,0 °C 1,6 km/h (1 Bft)
28.12.2016 22:22 -0,5 °C -0,4 °C 89 % 1042,8 hPa 0,0 mm 0,7 km/h (0 Bft) O-NO 61 ° 0 min 0,000 mm 0,0 UV-I 0 W/m² -2,1 °C 1,6 km/h (1 Bft)
28.12.2016 22:23 -0,5 °C -0,5 °C 90 % 1042,8 hPa 0,0 mm 0,4 km/h (0 Bft) O-NO 61 ° 0 min 0,000 mm 0,0 UV-I 0 W/m² -1,9 °C 1,6 km/h (1 Bft)
28.12.2016 22:24 -0,5 °C -0,5 °C 90 % 1042,7 hPa 0,0 mm 0,5 km/h (0 Bft) O-NO 61 ° 0 min 0,000 mm 0,0 UV-I 0 W/m² -1,9 °C 1,6 km/h (1 Bft)
28.12.2016 22:25 -0,5 °C -0,5 °C 90 % 1042,7 hPa 0,0 mm 0,7 km/h (0 Bft) O-NO 61 ° 0 min 0,000 mm 0,0 UV-I 0 W/m² -1,9 °C 1,6 km/h (1 Bft)
28.12.2016 22:26 -0,5 °C -0,5 °C 89 % 1042,7 hPa 0,0 mm 1,0 km/h (0 Bft) O-NO 61 ° 0 min 0,000 mm 0,0 UV-I 0 W/m² -2,1 °C 1,6 km/h (1 Bft)
28.12.2016 22:27 -0,5 °C -0,5 °C 89 % 1042,7 hPa 0,0 mm 1,8 km/h (1 Bft) O-NO 61 ° 0 min 0,000 mm 0,0 UV-I 0 W/m² -2,1 °C 3,2 km/h (1 Bft)
28.12.2016 22:28 -0,5 °C -0,5 °C 89 % 1042,7 hPa 0,0 mm 0,9 km/h (0 Bft) O-NO 61 ° 0 min 0,000 mm 0,0 UV-I 0 W/m² -2,1 °C 1,6 km/h (1 Bft)
28.12.2016 22:29 -0,5 °C -0,5 °C 89 % 1042,7 hPa 0,0 mm 1,9 km/h (1 Bft) O-NO 62 ° 0 min 0,000 mm 0,0 UV-I 0 W/m² -2,1 °C 3,2 km/h (1 Bft)
28.12.2016 22:30 -0,5 °C -0,5 °C 89 % 1042,7 hPa 0,0 mm 0,4 km/h (0 Bft) O-NO 62 ° 0 min 0,000 mm 0,0 UV-I 0 W/m² -2,1 °C 1,6 km/h (1 Bft)
28.12.2016 22:31 -0,5 °C -0,5 °C 89 % 1042,7 hPa 0,0 mm 1,1 km/h (1 Bft) O-NO 62 ° 0 min 0,000 mm 0,0 UV-I 0 W/m² -2,1 °C 3,2 km/h (1 Bft)
28.12.2016 22:32 -0,5 °C -0,5 °C 89 % 1042,7 hPa 0,0 mm 1,5 km/h (1 Bft) O-NO 62 ° 0 min 0,000 mm 0,0 UV-I 0 W/m² -2,1 °C 1,6 km/h (1 Bft)
28.12.2016 22:33 -0,5 °C -0,5 °C 89 % 1042,7 hPa 0,0 mm 1,4 km/h (1 Bft) O-NO 62 ° 0 min 0,000 mm 0,0 UV-I 0 W/m² -2,1 °C 3,2 km/h (1 Bft)
28.12.2016 22:34 -0,5 °C -0,5 °C 89 % 1042,7 hPa 0,0 mm 2,1 km/h (1 Bft) O-NO 64 ° 0 min 0,000 mm 0,0 UV-I 0 W/m² -2,1 °C 4,8 km/h (1 Bft)
28.12.2016 22:35 -0,6 °C -0,5 °C 89 % 1042,8 hPa 0,0 mm 0,7 km/h (0 Bft) O-NO 64 ° 0 min 0,000 mm 0,0 UV-I 0 W/m² -2,2 °C 1,6 km/h (1 Bft)
28.12.2016 22:36 -0,6 °C -0,5 °C 89 % 1042,7 hPa 0,0 mm 0,5 km/h (0 Bft) O-NO 64 ° 0 min 0,000 mm 0,0 UV-I 0 W/m² -2,2 °C 1,6 km/h (1 Bft)
28.12.2016 22:37 -0,6 °C -0,6 °C 89 % 1042,7 hPa 0,0 mm 0,5 km/h (0 Bft) O-NO 64 ° 0 min 0,000 mm 0,0 UV-I 0 W/m² -2,2 °C 1,6 km/h (1 Bft)
28.12.2016 22:38 -0,6 °C -0,6 °C 89 % 1042,7 hPa 0,0 mm 0,6 km/h (0 Bft) O-NO 64 ° 0 min 0,000 mm 0,0 UV-I 0 W/m² -2,2 °C 3,2 km/h (1 Bft)
28.12.2016 22:39 -0,6 °C -0,6 °C 89 % 1042,7 hPa 0,0 mm 1,3 km/h (1 Bft) O-NO 64 ° 0 min 0,000 mm 0,0 UV-I 0 W/m² -2,2 °C 3,2 km/h (1 Bft)
28.12.2016 22:40 -0,6 °C -0,6 °C 89 % 1042,7 hPa 0,0 mm 0,8 km/h (0 Bft) O-NO 64 ° 0 min 0,000 mm 0,0 UV-I 0 W/m² -2,2 °C 3,2 km/h (1 Bft)
28.12.2016 22:41 -0,6 °C -0,6 °C 89 % 1042,7 hPa 0,0 mm 2,5 km/h (1 Bft) O-NO 64 ° 0 min 0,000 mm 0,0 UV-I 0 W/m² -2,2 °C 4,8 km/h (1 Bft)
28.12.2016 22:42 -0,6 °C -0,6 °C 88 % 1042,7 hPa 0,0 mm 1,0 km/h (0 Bft) O-NO 64 ° 0 min 0,000 mm 0,0 UV-I 0 W/m² -2,3 °C 1,6 km/h (1 Bft)
28.12.2016 22:43 -0,6 °C -0,6 °C 88 % 1042,7 hPa 0,0 mm 1,6 km/h (1 Bft) O 84 ° 0 min 0,000 mm 0,0 UV-I 0 W/m² -2,3 °C 3,2 km/h (1 Bft)
28.12.2016 22:44 -0,6 °C -0,6 °C 88 % 1042,7 hPa 0,0 mm 2,1 km/h (1 Bft) O 84 ° 0 min 0,000 mm 0,0 UV-I 0 W/m² -2,3 °C 3,2 km/h (1 Bft)
28.12.2016 22:45 -0,6 °C -0,6 °C 88 % 1042,7 hPa 0,0 mm 2,8 km/h (1 Bft) O 86 ° 0 min 0,000 mm 0,0 UV-I 0 W/m² -2,3 °C 3,2 km/h (1 Bft)
28.12.2016 22:46 -0,7 °C -0,6 °C 88 % 1042,6 hPa 0,0 mm 2,1 km/h (1 Bft) O 86 ° 0 min 0,000 mm 0,0 UV-I 0 W/m² -2,4 °C 3,2 km/h (1 Bft)
28.12.2016 22:47 -0,7 °C -0,6 °C 88 % 1042,6 hPa 0,0 mm 0,6 km/h (0 Bft) O 86 ° 0 min 0,000 mm 0,0 UV-I 0 W/m² -2,4 °C 1,6 km/h (1 Bft)
28.12.2016 22:48 -0,7 °C -0,7 °C 88 % 1042,6 hPa 0,0 mm 0,1 km/h (0 Bft) O 86 ° 0 min 0,000 mm 0,0 UV-I 0 W/m² -2,4 °C 1,6 km/h (1 Bft)
28.12.2016 22:49 -0,7 °C -0,7 °C 88 % 1042,6 hPa 0,0 mm 0,0 km/h (0 Bft) O 86 ° 0 min 0,000 mm 0,0 UV-I 0 W/m² -2,4 °C 0,0 km/h (0 Bft)
28.12.2016 22:50 -0,7 °C -0,7 °C 88 % 1042,6 hPa 0,0 mm 0,7 km/h (0 Bft) O 86 ° 0 min 0,000 mm 0,0 UV-I 0 W/m² -2,4 °C 3,2 km/h (1 Bft)
28.12.2016 22:51 -0,7 °C -0,7 °C 88 % 1042,6 hPa 0,0 mm 1,1 km/h (1 Bft) O 86 ° 0 min 0,000 mm 0,0 UV-I 0 W/m² -2,4 °C 1,6 km/h (1 Bft)
28.12.2016 22:52 -0,7 °C -0,7 °C 88 % 1042,6 hPa 0,0 mm 2,1 km/h (1 Bft) O 87 ° 0 min 0,000 mm 0,0 UV-I 0 W/m² -2,4 °C 4,8 km/h (1 Bft)
28.12.2016 22:53 -0,7 °C -0,7 °C 88 % 1042,6 hPa 0,0 mm 3,3 km/h (1 Bft) O 87 ° 0 min 0,000 mm 0,0 UV-I 0 W/m² -2,4 °C 4,8 km/h (1 Bft)
28.12.2016 22:54 -0,8 °C -0,7 °C 88 % 1042,6 hPa 0,0 mm 1,3 km/h (1 Bft) O 87 ° 0 min 0,000 mm 0,0 UV-I 0 W/m² -2,5 °C 3,2 km/h (1 Bft)
28.12.2016 22:55 -0,8 °C -0,7 °C 88 % 1042,6 hPa 0,0 mm 0,9 km/h (0 Bft) O 87 ° 0 min 0,000 mm 0,0 UV-I 0 W/m² -2,5 °C 1,6 km/h (1 Bft)
28.12.2016 22:56 -0,8 °C -0,8 °C 87 % 1042,6 hPa 0,0 mm 1,1 km/h (1 Bft) O 87 ° 0 min 0,000 mm 0,0 UV-I 0 W/m² -2,7 °C 3,2 km/h (1 Bft)
28.12.2016 22:57 -0,8 °C -0,8 °C 88 % 1042,6 hPa 0,0 mm 0,6 km/h (0 Bft) O 87 ° 0 min 0,000 mm 0,0 UV-I 0 W/m² -2,5 °C 1,6 km/h (1 Bft)
28.12.2016 22:58 -0,8 °C -0,8 °C 88 % 1042,5 hPa 0,0 mm 1,7 km/h (1 Bft) O 87 ° 0 min 0,000 mm 0,0 UV-I 0 W/m² -2,5 °C 3,2 km/h (1 Bft)
28.12.2016 22:59 -0,9 °C -0,8 °C 88 % 1042,5 hPa 0,0 mm 1,6 km/h (1 Bft) O 87 ° 0 min 0,000 mm 0,0 UV-I 0 W/m² -2,6 °C 1,6 km/h (1 Bft)
28.12.2016 23:00 -0,9 °C -0,8 °C 88 % 1042,5 hPa 0,0 mm 1,7 km/h (1 Bft) O 87 ° 0 min 0,000 mm 0,0 UV-I 0 W/m² -2,6 °C 3,2 km/h (1 Bft)
28.12.2016 23:01 -0,9 °C -0,8 °C 88 % 1042,5 hPa 0,0 mm 1,3 km/h (1 Bft) O 87 ° 0 min 0,000 mm 0,0 UV-I 0 W/m² -2,6 °C 1,6 km/h (1 Bft)
28.12.2016 23:02 -0,9 °C -0,9 °C 88 % 1042,5 hPa 0,0 mm 1,0 km/h (0 Bft) O 87 ° 0 min 0,000 mm 0,0 UV-I 0 W/m² -2,6 °C 1,6 km/h (1 Bft)
28.12.2016 23:03 -0,9 °C -0,9 °C 88 % 1042,5 hPa 0,0 mm 1,0 km/h (0 Bft) O 87 ° 0 min 0,000 mm 0,0 UV-I 0 W/m² -2,6 °C 1,6 km/h (1 Bft)
28.12.2016 23:04 -0,9 °C -0,9 °C 88 % 1042,5 hPa 0,0 mm 1,7 km/h (1 Bft) O 87 ° 0 min 0,000 mm 0,0 UV-I 0 W/m² -2,6 °C 3,2 km/h (1 Bft)
28.12.2016 23:05 -0,9 °C -0,9 °C 88 % 1042,4 hPa 0,0 mm 1,3 km/h (1 Bft) O 87 ° 0 min 0,000 mm 0,0 UV-I 0 W/m² -2,6 °C 1,6 km/h (1 Bft)
28.12.2016 23:06 -1,0 °C -0,9 °C 88 % 1042,4 hPa 0,0 mm 1,8 km/h (1 Bft) O 87 ° 0 min 0,000 mm 0,0 UV-I 0 W/m² -2,7 °C 3,2 km/h (1 Bft)
28.12.2016 23:07 -1,0 °C -0,9 °C 88 % 1042,4 hPa 0,0 mm 2,7 km/h (1 Bft) O 87 ° 0 min 0,000 mm 0,0 UV-I 0 W/m² -2,7 °C 4,8 km/h (1 Bft)
28.12.2016 23:08 -1,1 °C -1,0 °C 88 % 1042,4 hPa 0,0 mm 2,2 km/h (1 Bft) O 87 ° 0 min 0,000 mm 0,0 UV-I 0 W/m² -2,8 °C 3,2 km/h (1 Bft)
28.12.2016 23:09 -1,1 °C -1,1 °C 88 % 1042,4 hPa 0,0 mm 2,3 km/h (1 Bft) O 87 ° 0 min 0,000 mm 0,0 UV-I 0 W/m² -2,8 °C 3,2 km/h (1 Bft)
28.12.2016 23:10 -1,1 °C -1,1 °C 88 % 1042,4 hPa 0,0 mm 2,0 km/h (1 Bft) O 87 ° 0 min 0,000 mm 0,0 UV-I 0 W/m² -2,8 °C 3,2 km/h (1 Bft)
28.12.2016 23:11 -1,1 °C -1,1 °C 88 % 1042,4 hPa 0,0 mm 1,9 km/h (1 Bft) O 87 ° 0 min 0,000 mm 0,0 UV-I 0 W/m² -2,8 °C 3,2 km/h (1 Bft)
28.12.2016 23:12 -1,1 °C -1,1 °C 88 % 1042,4 hPa 0,0 mm 2,1 km/h (1 Bft) O 87 ° 0 min 0,000 mm 0,0 UV-I 0 W/m² -2,8 °C 3,2 km/h (1 Bft)
28.12.2016 23:13 -1,1 °C -1,1 °C 88 % 1042,4 hPa 0,0 mm 2,6 km/h (1 Bft) O-SO 103 ° 0 min 0,000 mm 0,0 UV-I 0 W/m² -2,8 °C 4,8 km/h (1 Bft)
28.12.2016 23:14 -1,1 °C -1,1 °C 88 % 1042,4 hPa 0,0 mm 2,5 km/h (1 Bft) O-SO 103 ° 0 min 0,000 mm 0,0 UV-I 0 W/m² -2,8 °C 3,2 km/h (1 Bft)
28.12.2016 23:15 -1,2 °C -1,1 °C 88 % 1042,3 hPa 0,0 mm 1,9 km/h (1 Bft) O-SO 103 ° 0 min 0,000 mm 0,0 UV-I 0 W/m² -2,9 °C 3,2 km/h (1 Bft)
28.12.2016 23:16 -1,2 °C -1,2 °C 88 % 1042,4 hPa 0,0 mm 2,4 km/h (1 Bft) O-SO 103 ° 0 min 0,000 mm 0,0 UV-I 0 W/m² -2,9 °C 3,2 km/h (1 Bft)
28.12.2016 23:17 -1,2 °C -1,2 °C 88 % 1042,3 hPa 0,0 mm 2,4 km/h (1 Bft) O-SO 103 ° 0 min 0,000 mm 0,0 UV-I 0 W/m² -2,9 °C 3,2 km/h (1 Bft)
28.12.2016 23:18 -1,2 °C -1,2 °C 88 % 1042,3 hPa 0,0 mm 1,6 km/h (1 Bft) O-SO 103 ° 0 min 0,000 mm 0,0 UV-I 0 W/m² -2,9 °C 3,2 km/h (1 Bft)
28.12.2016 23:19 -1,2 °C -1,2 °C 88 % 1042,3 hPa 0,0 mm 1,9 km/h (1 Bft) O-SO 103 ° 0 min 0,000 mm 0,0 UV-I 0 W/m² -2,9 °C 3,2 km/h (1 Bft)
28.12.2016 23:20 -1,3 °C -1,2 °C 88 % 1042,3 hPa 0,0 mm 2,0 km/h (1 Bft) O-SO 103 ° 0 min 0,000 mm 0,0 UV-I 0 W/m² -3,0 °C 3,2 km/h (1 Bft)
28.12.2016 23:21 -1,3 °C -1,2 °C 88 % 1042,3 hPa 0,0 mm 2,9 km/h (1 Bft) O-SO 103 ° 0 min 0,000 mm 0,0 UV-I 0 W/m² -3,0 °C 3,2 km/h (1 Bft)
28.12.2016 23:22 -1,3 °C -1,3 °C 88 % 1042,3 hPa 0,0 mm 1,8 km/h (1 Bft) O-SO 103 ° 0 min 0,000 mm 0,0 UV-I 0 W/m² -3,0 °C 3,2 km/h (1 Bft)
28.12.2016 23:23 -1,3 °C -1,3 °C 88 % 1042,3 hPa 0,0 mm 1,3 km/h (1 Bft) O-SO 103 ° 0 min 0,000 mm 0,0 UV-I 0 W/m² -3,0 °C 1,6 km/h (1 Bft)
28.12.2016 23:24 -1,3 °C -1,3 °C 88 % 1042,3 hPa 0,0 mm 1,4 km/h (1 Bft) O-SO 103 ° 0 min 0,000 mm 0,0 UV-I 0 W/m² -3,0 °C 3,2 km/h (1 Bft)
28.12.2016 23:25 -1,3 °C -1,3 °C 87 % 1042,2 hPa 0,0 mm 2,2 km/h (1 Bft) O-SO 103 ° 0 min 0,000 mm 0,0 UV-I 0 W/m² -3,2 °C 3,2 km/h (1 Bft)
28.12.2016 23:26 -1,3 °C -1,3 °C 88 % 1042,3 hPa 0,0 mm 1,2 km/h (1 Bft) O-SO 103 ° 0 min 0,000 mm 0,0 UV-I 0 W/m² -3,0 °C 3,2 km/h (1 Bft)
28.12.2016 23:27 -1,4 °C -1,3 °C 88 % 1042,3 hPa 0,0 mm 2,1 km/h (1 Bft) O-SO 103 ° 0 min 0,000 mm 0,0 UV-I 0 W/m² -3,1 °C 3,2 km/h (1 Bft)
28.12.2016 23:28 -1,3 °C -1,3 °C 88 % 1042,3 hPa 0,0 mm 1,8 km/h (1 Bft) O-SO 103 ° 0 min 0,000 mm 0,0 UV-I 0 W/m² -3,0 °C 3,2 km/h (1 Bft)
28.12.2016 23:29 -1,4 °C -1,3 °C 88 % 1042,3 hPa 0,0 mm 1,5 km/h (1 Bft) O-SO 103 ° 0 min 0,000 mm 0,0 UV-I 0 W/m² -3,1 °C 1,6 km/h (1 Bft)
28.12.2016 23:30 -1,4 °C -1,4 °C 88 % 1042,3 hPa 0,0 mm 0,3 km/h (0 Bft) O-SO 103 ° 0 min 0,000 mm 0,0 UV-I 0 W/m² -3,1 °C 1,6 km/h (1 Bft)
28.12.2016 23:31 -1,4 °C -1,4 °C 88 % 1042,3 hPa 0,0 mm 0,0 km/h (0 Bft) O-SO 103 ° 0 min 0,000 mm 0,0 UV-I 0 W/m² -3,1 °C 0,0 km/h (0 Bft)
28.12.2016 23:32 -1,4 °C -1,4 °C 88 % 1042,2 hPa 0,0 mm 0,1 km/h (0 Bft) O-SO 103 ° 0 min 0,000 mm 0,0 UV-I 0 W/m² -3,1 °C 1,6 km/h (1 Bft)
28.12.2016 23:33 -1,4 °C -1,4 °C 87 % 1042,2 hPa 0,0 mm 1,0 km/h (0 Bft) O-SO 103 ° 0 min 0,000 mm 0,0 UV-I 0 W/m² -3,3 °C 1,6 km/h (1 Bft)
28.12.2016 23:34 -1,5 °C -1,4 °C 88 % 1042,2 hPa 0,0 mm 1,7 km/h (1 Bft) O-SO 103 ° 0 min 0,000 mm 0,0 UV-I 0 W/m² -3,2 °C 3,2 km/h (1 Bft)
28.12.2016 23:35 -1,5 °C -1,4 °C 88 % 1042,2 hPa 0,0 mm 2,0 km/h (1 Bft) O-SO 103 ° 0 min 0,000 mm 0,0 UV-I 0 W/m² -3,2 °C 3,2 km/h (1 Bft)
28.12.2016 23:36 -1,5 °C -1,5 °C 87 % 1042,1 hPa 0,0 mm 2,2 km/h (1 Bft) O-SO 103 ° 0 min 0,000 mm 0,0 UV-I 0 W/m² -3,4 °C 3,2 km/h (1 Bft)
28.12.2016 23:37 -1,5 °C -1,5 °C 88 % 1042,1 hPa 0,0 mm 2,5 km/h (1 Bft) O-SO 103 ° 0 min 0,000 mm 0,0 UV-I 0 W/m² -3,2 °C 3,2 km/h (1 Bft)
28.12.2016 23:38 -1,5 °C -1,5 °C 87 % 1042,2 hPa 0,0 mm 1,9 km/h (1 Bft) O-SO 103 ° 0 min 0,000 mm 0,0 UV-I 0 W/m² -3,4 °C 3,2 km/h (1 Bft)
28.12.2016 23:39 -1,6 °C -1,5 °C 87 % 1042,2 hPa 0,0 mm 1,9 km/h (1 Bft) O-SO 103 ° 0 min 0,000 mm 0,0 UV-I 0 W/m² -3,5 °C 3,2 km/h (1 Bft)
28.12.2016 23:40 -1,6 °C -1,6 °C 88 % 1042,2 hPa 0,0 mm 1,5 km/h (1 Bft) O-SO 103 ° 0 min 0,000 mm 0,0 UV-I 0 W/m² -3,3 °C 1,6 km/h (1 Bft)
28.12.2016 23:41 -1,6 °C -1,6 °C 87 % 1042,2 hPa 0,0 mm 1,2 km/h (1 Bft) O-SO 103 ° 0 min 0,000 mm 0,0 UV-I 0 W/m² -3,5 °C 1,6 km/h (1 Bft)
28.12.2016 23:42 -1,6 °C -1,6 °C 87 % 1042,1 hPa 0,0 mm 1,0 km/h (0 Bft) O-SO 103 ° 0 min 0,000 mm 0,0 UV-I 0 W/m² -3,5 °C 1,6 km/h (1 Bft)
28.12.2016 23:43 -1,6 °C -1,6 °C 87 % 1042,1 hPa 0,0 mm 1,0 km/h (0 Bft) O-SO 103 ° 0 min 0,000 mm 0,0 UV-I 0 W/m² -3,5 °C 1,6 km/h (1 Bft)
28.12.2016 23:44 -1,6 °C -1,6 °C 87 % 1042,1 hPa 0,0 mm 2,0 km/h (1 Bft) O-SO 103 ° 0 min 0,000 mm 0,0 UV-I 0 W/m² -3,5 °C 3,2 km/h (1 Bft)
28.12.2016 23:45 -1,6 °C -1,6 °C 87 % 1042,0 hPa 0,0 mm 1,2 km/h (1 Bft) O-SO 103 ° 0 min 0,000 mm 0,0 UV-I 0 W/m² -3,5 °C 3,2 km/h (1 Bft)
28.12.2016 23:46 -1,6 °C -1,6 °C 87 % 1042,1 hPa 0,0 mm 0,1 km/h (0 Bft) O-SO 103 ° 0 min 0,000 mm 0,0 UV-I 0 W/m² -3,5 °C 1,6 km/h (1 Bft)
28.12.2016 23:47 -1,6 °C -1,6 °C 87 % 1042,0 hPa 0,0 mm 0,6 km/h (0 Bft) O-SO 103 ° 0 min 0,000 mm 0,0 UV-I 0 W/m² -3,5 °C 1,6 km/h (1 Bft)
28.12.2016 23:48 -1,7 °C -1,6 °C 87 % 1042,0 hPa 0,0 mm 0,0 km/h (0 Bft) O-SO 103 ° 0 min 0,000 mm 0,0 UV-I 0 W/m² -3,6 °C 0,0 km/h (0 Bft)
28.12.2016 23:49 -1,7 °C -1,7 °C 87 % 1042,0 hPa 0,0 mm 0,0 km/h (0 Bft) O-SO 103 ° 0 min 0,000 mm 0,0 UV-I 0 W/m² -3,6 °C 0,0 km/h (0 Bft)
28.12.2016 23:50 -1,7 °C -1,7 °C 86 % 1042,0 hPa 0,0 mm 0,0 km/h (0 Bft) O-SO 103 ° 0 min 0,000 mm 0,0 UV-I 0 W/m² -3,7 °C 0,0 km/h (0 Bft)
28.12.2016 23:51 -1,8 °C -1,7 °C 86 % 1042,0 hPa 0,0 mm 0,0 km/h (0 Bft) O-SO 103 ° 0 min 0,000 mm 0,0 UV-I 0 W/m² -3,8 °C 0,0 km/h (0 Bft)
28.12.2016 23:52 -1,8 °C -1,7 °C 86 % 1042,0 hPa 0,0 mm 0,0 km/h (0 Bft) O-SO 103 ° 0 min 0,000 mm 0,0 UV-I 0 W/m² -3,8 °C 0,0 km/h (0 Bft)
28.12.2016 23:53 -1,8 °C -1,7 °C 86 % 1042,0 hPa 0,0 mm 0,0 km/h (0 Bft) O-SO 103 ° 0 min 0,000 mm 0,0 UV-I 0 W/m² -3,8 °C 0,0 km/h (0 Bft)
28.12.2016 23:54 -1,8 °C -1,8 °C 86 % 1042,0 hPa 0,0 mm 0,0 km/h (0 Bft) O-SO 103 ° 0 min 0,000 mm 0,0 UV-I 0 W/m² -3,8 °C 0,0 km/h (0 Bft)
28.12.2016 23:55 -1,8 °C -1,8 °C 86 % 1042,0 hPa 0,0 mm 0,0 km/h (0 Bft) O-SO 103 ° 0 min 0,000 mm 0,0 UV-I 0 W/m² -3,8 °C 0,0 km/h (0 Bft)
28.12.2016 23:56 -1,8 °C -1,8 °C 86 % 1041,9 hPa 0,0 mm 0,1 km/h (0 Bft) O-SO 103 ° 0 min 0,000 mm 0,0 UV-I 0 W/m² -3,8 °C 1,6 km/h (1 Bft)
28.12.2016 23:57 -1,8 °C -1,8 °C 86 % 1041,9 hPa 0,0 mm 0,1 km/h (0 Bft) O-SO 103 ° 0 min 0,000 mm 0,0 UV-I 0 W/m² -3,8 °C 1,6 km/h (1 Bft)
28.12.2016 23:58 -1,9 °C -1,8 °C 87 % 1041,9 hPa 0,0 mm 0,0 km/h (0 Bft) O-SO 103 ° 0 min 0,000 mm 0,0 UV-I 0 W/m² -3,8 °C 0,0 km/h (0 Bft)
28.12.2016 23:59 -1,9 °C -1,9 °C 87 % 1041,8 hPa 0,0 mm 0,0 km/h (0 Bft) O-SO 103 ° 0 min 0,000 mm 0,0 UV-I 0 W/m² -3,8 °C 0,0 km/h (0 Bft)
_ Min-Zeit 18:40 18:52 14:13 16:27 - 23:59 - - - - - - 07:25 23:59
Minimum _ -2,5 °C -2,4 °C 73 % 1041,6 hPa - 0,0 km/h (0 Bft) - - - - - - -4,4 °C 0,0 km/h (0 Bft)
_ Max-Zeit 01:33 01:33 20:03 11:26 16:41 08:26 - - 14:02 14:01 12:22 14:00 15:07 05:05
Maximum _ 3,9 °C 3,9 °C 93 % 1045,0 hPa 0,2 mm 11,9 km/h
S-SW (2 Bft)
- - 1 min 0,026 mm 1,0 UV-I 253 W/m² -1,7 °C 17,7 km/h
S (3 Bft)
Durchschnitt _ -0,2 °C -0,1 °C 82 % 1043,2 hPa #0,2 mm 2,0 km/h (1 Bft) S-SW - #11 min. #0,279 mm 0,8 UV-I 19 W/m² -2,9 °C 3,3 km/h (1 Bft)